GFSSE_sfc_thetae_000.txt.gz
Theta_e
332 341 355 355 353 352 350 347 347 346 345 342 340 339 339 338 337 335 334 333 333 333 334 336 338 339 339 340 341 342 344 345 351 353 355 357 357 354 356 359 360 355 359
333 342 355 355 353 351 351 349 349 348 347 344 341 341 341 339 338 338 337 335 334 334 335 336 336 337 340 340 340 342 343 345 349 352 354 355 356 358 358 358 358 356 359
333 343 351 355 354 353 352 351 351 350 348 345 344 343 343 342 341 340 340 339 337 336 336 336 337 337 339 341 342 341 344 345 347 351 353 350 350 355 357 356 357 357 357
335 342 347 355 354 354 353 353 352 351 348 346 346 345 345 344 343 342 341 341 340 339 338 337 337 337 338 338 341 343 344 345 346 351 347 348 349 353 356 355 356 355 356
335 341 345 355 355 355 354 353 353 352 350 348 347 346 345 344 344 344 343 342 342 342 341 340 339 338 338 340 344 345 344 345 345 349 346 344 346 351 355 354 355 355 356
338 341 348 356 355 355 353 352 352 351 350 347 347 345 344 343 344 345 342 341 341 341 341 342 340 339 341 341 343 344 344 344 345 343 344 345 344 350 354 355 354 354 356
337 341 350 356 356 356 353 351 352 352 350 347 346 345 343 344 344 342 340 340 340 340 341 342 341 341 342 341 342 343 342 343 341 341 341 342 344 350 353 355 355 355 355
342 346 350 355 355 355 355 352 350 347 344 342 340 339 340 340 340 339 339 339 339 339 340 341 341 342 342 341 341 342 342 342 341 339 341 341 345 350 353 354 354 354 356
341 343 345 349 352 354 350 349 347 344 342 337 334 333 334 334 335 336 336 337 337 337 338 341 341 342 342 340 339 341 341 342 336 338 340 340 346 350 353 355 354 356 356
332 335 337 336 337 338 341 347 344 340 336 335 334 334 333 333 333 333 334 334 335 336 336 339 340 340 340 340 340 338 341 341 336 338 338 342 348 351 352 353 353 354 353
321 326 330 329 332 333 334 338 340 337 336 336 335 334 333 326 324 327 331 335 336 337 337 337 338 339 338 339 336 336 340 332 336 336 338 347 349 350 351 352 353 352 351
312 314 317 320 323 327 334 331 330 328 328 328 326 324 323 322 322 328 331 334 334 336 337 337 337 337 337 327 328 333 331 331 334 335 338 348 348 350 350 350 349 346 348
312 317 318 319 320 322 324 325 323 322 322 322 323 323 323 323 322 323 323 325 325 331 328 332 331 330 328 326 326 328 329 330 331 333 340 347 348 350 350 349 350 350 350
313 314 316 320 321 321 323 323 322 323 322 321 322 323 322 321 320 321 323 324 323 325 324 325 325 325 327 327 325 324 328 329 328 331 337 347 347 348 349 349 348 347 347
313 317 318 320 322 324 323 323 323 322 323 322 321 323 323 321 320 325 326 324 321 322 323 323 324 324 324 325 324 323 326 327 329 332 335 347 347 347 348 348 346 346 346
315 318 319 320 323 324 323 322 323 322 324 324 323 324 324 322 323 324 320 321 319 320 321 322 322 322 323 323 322 323 325 328 329 333 333 339 344 344 347 347 347 347 347
313 318 318 321 322 323 322 322 322 323 325 324 324 324 323 322 322 321 319 319 320 320 320 321 321 322 321 323 322 322 327 328 330 332 334 337 341 344 344 346 346 346 345
314 317 319 324 321 321 320 321 324 325 324 324 323 324 325 325 323 320 319 319 320 319 318 319 319 319 320 320 321 321 325 328 330 332 334 335 334 338 343 345 346 344 345
315 316 318 319 320 320 322 322 323 324 323 325 324 323 323 324 323 320 320 320 320 318 317 318 317 319 318 319 320 321 324 325 331 332 333 333 335 336 338 344 344 343 342
316 318 319 320 320 322 322 321 323 322 324 325 325 323 323 323 323 321 320 320 319 317 316 317 317 318 318 318 324 323 322 323 329 328 333 334 336 334 337 338 339 339 341
317 318 318 319 320 321 318 319 318 319 321 323 325 326 325 322 322 320 320 319 319 317 316 317 317 317 317 318 317 317 319 323 325 330 332 334 334 335 336 337 337 337 338
316 318 319 320 319 320 319 322 321 321 322 323 324 325 326 324 325 322 321 319 319 317 316 317 317 316 316 318 315 317 314 319 325 327 332 333 331 334 334 334 335 334 335
316 318 320 320 320 319 321 322 321 320 321 322 323 324 323 324 326 323 322 320 319 317 316 316 317 317 315 318 319 319 315 312 318 328 328 330 329 332 333 332 333 334 335
314 317 320 320 318 320 321 320 319 318 316 319 320 321 322 323 324 323 322 321 320 318 316 318 320 318 318 317 319 324 322 322 316 318 327 328 330 331 331 331 331 333 334
317 317 319 318 319 321 321 320 320 317 319 319 319 319 320 323 325 324 322 320 319 318 318 320 319 319 319 319 319 321 321 320 322 322 318 323 327 329 330 331 331 332 333
315 316 317 316 317 321 321 321 319 318 318 317 316 317 318 319 324 321 322 319 319 318 319 319 320 320 319 321 323 324 322 319 319 321 321 322 322 325 328 330 331 332 332

GFSSE_sfc_thetae_003.txt.gz
Theta_e
329 335 356 355 352 350 348 346 344 343 343 340 338 337 336 335 334 334 333 332 332 332 333 335 335 337 338 339 340 341 343 344 346 352 353 355 356 355 357 358 359 355 359
327 337 356 355 353 350 349 349 348 347 346 343 340 338 338 337 337 336 336 334 334 334 335 335 336 336 337 339 339 340 341 343 345 349 353 354 355 354 356 356 359 355 358
328 338 351 355 354 352 351 350 349 348 347 344 343 342 340 339 338 338 338 339 338 337 336 336 336 336 336 338 339 341 341 343 344 346 351 348 348 353 354 356 356 358 358
334 341 347 355 354 353 352 352 350 349 347 345 343 341 341 341 342 340 340 340 341 340 340 339 338 337 337 337 338 342 342 341 344 344 345 347 349 351 352 354 354 357 357
336 342 345 355 354 354 353 352 351 351 349 346 344 344 343 344 343 343 341 341 342 342 342 342 340 339 339 338 342 343 344 341 343 341 343 343 344 350 351 352 353 356 355
334 340 347 355 355 354 354 354 352 351 349 347 345 346 345 344 343 342 343 342 341 341 341 342 342 341 340 340 343 343 344 343 341 339 341 343 344 349 351 351 353 353 354
331 337 344 355 355 355 355 352 351 350 350 349 347 346 345 344 343 342 341 340 340 339 339 340 341 342 341 341 341 343 344 342 337 338 338 340 342 348 352 351 353 353 354
334 337 345 355 355 354 354 353 352 352 351 349 345 343 342 342 341 341 341 340 339 338 339 339 342 342 342 342 342 343 343 341 338 336 338 338 343 349 351 354 355 353 352
337 341 346 349 352 355 354 352 352 350 346 344 341 338 335 334 334 334 335 336 337 337 337 338 341 342 341 341 339 340 341 342 334 335 337 337 345 349 352 354 355 354 352
337 341 343 342 344 344 345 351 350 346 343 340 335 334 334 334 333 333 333 334 335 335 335 336 337 340 341 339 340 338 339 340 334 334 335 337 346 349 352 353 353 353 351
330 331 334 335 334 334 337 341 345 343 338 336 335 335 334 326 325 327 329 332 334 335 336 335 336 339 339 337 337 337 337 331 332 333 334 342 347 349 351 352 352 352 354
320 323 328 328 329 330 335 332 330 329 327 328 328 325 323 322 321 325 329 333 334 335 335 336 336 337 336 328 329 335 326 329 330 332 333 343 346 349 350 352 351 352 353
318 317 321 322 324 326 328 327 326 324 323 323 324 322 321 322 321 322 321 322 323 329 327 329 330 329 328 325 325 325 326 328 328 331 336 343 346 348 349 350 350 351 349
311 314 318 319 320 321 322 323 323 321 321 320 321 322 320 319 319 319 319 321 322 322 323 323 324 325 325 325 325 324 325 326 327 327 332 343 346 347 348 349 349 348 349
310 313 316 318 318 320 321 321 320 321 322 321 320 321 321 319 318 319 322 324 325 324 323 321 322 323 324 325 324 323 322 324 327 327 329 340 346 347 348 348 348 348 346
312 314 316 318 320 322 321 320 321 321 321 321 321 321 323 321 319 320 323 323 319 319 319 320 321 321 321 321 322 323 322 323 326 327 330 333 345 346 346 347 348 348 348
314 316 318 319 321 322 320 321 320 321 322 321 322 323 323 321 320 321 320 318 318 318 318 319 319 320 319 320 320 321 321 323 325 327 330 332 335 344 345 345 347 347 347
315 317 317 323 321 321 319 319 320 321 321 322 322 322 324 323 322 320 318 317 319 318 317 316 317 317 317 318 318 319 320 322 324 326 329 332 332 334 340 343 346 345 345
315 316 317 319 319 319 318 319 321 321 321 322 322 322 323 325 325 320 318 318 318 316 316 316 315 317 316 316 318 318 320 320 324 329 329 330 331 333 334 341 344 343 344
314 316 317 317 318 318 319 318 319 320 321 322 322 322 323 324 324 319 317 318 318 315 314 314 314 317 316 316 320 320 319 320 324 325 328 330 330 333 333 335 339 341 343
314 316 317 317 318 318 317 316 317 317 319 320 322 324 324 325 322 319 317 318 317 315 314 315 315 314 315 316 315 315 318 320 324 327 328 330 331 333 332 334 337 337 337
315 316 317 317 318 318 316 319 318 318 319 320 321 326 327 324 322 320 319 318 317 315 314 315 315 315 314 316 313 312 309 314 324 327 327 329 330 333 334 334 336 335 335
315 316 317 317 317 318 318 319 318 318 318 319 319 320 321 322 323 322 320 318 317 315 314 314 315 316 314 316 316 314 311 308 318 324 327 327 331 331 333 334 334 335 335
314 316 318 318 317 317 321 318 316 315 314 316 317 318 319 322 323 322 321 318 317 316 314 314 317 316 316 314 316 320 318 318 315 316 325 326 329 329 330 332 332 333 334
314 315 317 318 316 319 319 318 318 315 316 317 317 316 317 320 324 322 320 318 317 316 315 316 316 316 316 316 317 319 321 320 321 321 317 321 327 329 330 331 332 333 333
313 315 316 315 317 318 319 319 318 316 316 314 315 315 315 316 322 319 320 318 317 316 318 318 317 317 317 318 319 321 320 318 317 320 319 321 321 326 329 330 330 331 333

GFSSE_sfc_thetae_006.txt.gz
Theta_e
323 331 355 355 351 348 346 344 343 341 340 338 337 335 334 332 331 331 331 331 331 331 331 332 333 334 335 336 337 338 339 342 344 347 352 353 353 356 356 355 358 355 358
327 333 355 355 352 348 348 346 346 346 344 340 338 337 336 335 335 335 334 334 334 335 334 334 334 335 335 336 337 338 338 340 343 344 349 352 353 354 355 355 356 354 358
325 335 350 355 353 351 351 350 350 347 345 343 341 339 338 337 337 337 337 338 338 337 338 337 336 336 335 335 337 338 339 340 340 343 345 350 349 354 354 354 355 357 357
330 337 348 355 354 353 352 351 350 349 346 344 343 340 338 339 338 339 339 339 340 340 340 340 339 338 337 336 336 339 341 339 339 342 343 348 349 352 354 354 355 356 357
331 340 346 355 354 353 353 351 350 350 348 346 342 341 341 341 343 344 341 340 341 341 343 342 340 340 339 338 339 341 342 339 339 340 343 346 347 350 353 353 353 354 355
333 340 346 355 354 353 353 352 352 350 349 347 344 343 344 344 343 343 342 342 341 342 341 340 342 342 342 340 342 342 342 340 341 339 342 344 347 347 352 352 352 352 352
333 338 343 354 354 354 354 353 352 351 350 349 346 345 345 344 343 342 342 342 341 341 340 340 340 343 343 342 340 343 341 342 338 340 341 341 344 346 350 352 352 353 351
331 334 340 353 354 353 353 353 352 351 350 350 349 347 345 344 343 342 341 341 341 340 339 338 341 342 343 341 340 343 342 342 338 338 340 341 342 346 349 352 353 353 352
331 335 340 347 352 354 353 352 352 350 350 351 348 345 343 341 337 336 336 337 338 338 337 338 338 341 342 340 340 342 340 340 339 338 339 341 342 346 350 351 352 353 353
331 334 339 345 347 347 348 353 352 351 349 347 344 342 335 334 334 334 334 333 334 335 334 336 337 338 340 340 339 338 339 339 338 337 339 340 343 346 349 351 353 354 353
332 334 337 340 340 340 341 347 351 347 344 343 338 335 336 329 327 329 330 331 332 334 335 335 335 337 338 337 338 338 338 334 335 336 337 340 343 345 348 350 352 352 353
327 329 334 334 334 334 338 336 336 334 332 329 330 328 327 326 325 327 329 331 333 334 335 336 337 336 336 332 333 337 334 331 333 335 337 340 342 344 348 350 351 352 352
325 329 329 330 329 330 331 329 328 326 325 326 327 326 324 323 322 324 324 324 324 328 329 330 330 331 332 330 329 330 330 330 332 334 335 339 341 344 347 348 350 351 351
315 322 325 326 326 326 326 326 326 323 322 322 323 324 322 321 321 321 321 322 323 325 325 326 327 328 329 329 328 328 328 329 330 331 333 337 340 344 347 348 348 350 350
310 314 320 321 322 322 322 322 322 322 322 322 321 322 321 320 320 321 321 322 324 326 325 326 325 326 327 327 328 327 327 327 329 331 332 335 338 344 344 347 349 348 348
309 313 317 319 320 320 320 320 321 321 322 322 321 322 323 322 321 321 321 323 323 323 323 323 324 325 325 326 326 327 327 326 327 329 331 333 336 342 344 345 348 348 348
310 314 318 318 319 320 320 320 321 321 322 321 322 323 324 323 322 322 322 322 321 322 322 322 322 323 323 324 324 326 326 326 326 327 331 333 336 339 344 344 345 346 348
312 315 317 321 320 320 319 319 320 321 321 321 322 323 325 325 323 321 322 321 321 321 321 320 320 321 322 322 323 324 325 325 326 327 330 333 336 338 339 344 343 345 346
314 315 317 320 319 320 319 318 319 321 322 322 323 322 323 325 325 322 321 321 321 320 319 319 319 320 319 320 321 322 323 324 326 329 330 333 336 337 339 341 340 343 344
314 316 318 319 319 319 318 318 319 320 321 322 323 324 324 325 326 323 321 320 320 319 318 317 318 319 320 320 322 323 322 324 326 329 331 334 335 335 337 338 340 343 342
315 316 316 317 317 317 317 316 317 318 320 321 324 326 326 326 325 322 320 319 320 318 318 318 318 318 319 320 318 319 322 325 326 327 328 331 332 333 336 338 340 342 340
315 316 316 317 316 318 317 318 319 319 320 321 323 325 327 326 325 322 320 320 319 318 317 317 318 317 318 320 317 317 315 320 324 328 327 328 331 335 335 337 337 338 337
314 316 317 317 318 318 318 319 319 318 319 319 320 322 323 324 325 324 322 321 320 318 316 317 318 319 317 318 320 318 314 312 319 325 328 328 330 334 334 336 334 334 336
314 316 317 317 317 318 319 317 317 317 316 317 319 320 321 323 324 323 323 321 320 318 317 317 319 320 320 318 320 323 321 322 317 315 325 327 331 331 331 334 331 333 333
315 316 317 317 317 318 319 318 318 317 317 318 319 319 321 321 325 323 322 320 319 319 319 318 319 319 321 320 321 322 322 323 323 322 316 322 327 329 331 332 332 332 333
314 315 316 316 316 318 318 319 319 317 317 316 317 317 317 319 322 322 321 321 320 320 319 319 320 320 320 321 323 325 323 319 320 320 320 320 321 326 329 331 331 331 331

GFSSE_sfc_thetae_009.txt.gz
Theta_e
326 332 355 354 352 350 348 344 343 341 340 338 337 336 334 333 332 331 331 331 331 330 331 331 333 333 334 335 335 336 337 339 343 344 349 352 352 353 357 356 357 356 358
330 334 355 355 353 350 350 347 346 346 344 340 338 337 336 334 333 333 334 334 334 334 334 334 334 334 335 336 336 336 337 337 340 343 344 350 350 354 356 355 355 356 359
329 336 351 355 353 352 351 349 348 347 346 343 341 339 338 337 336 336 337 337 337 338 338 338 337 336 336 336 337 337 337 337 338 341 342 350 352 353 355 356 356 357 357
331 343 345 355 354 353 351 351 350 349 346 345 344 341 339 339 338 338 339 339 339 339 339 341 340 340 338 337 337 338 338 337 337 339 340 344 349 350 354 356 355 357 357
334 344 349 355 354 353 353 352 351 350 348 346 344 343 342 342 343 343 341 341 340 340 340 342 342 341 341 339 338 341 338 337 338 338 339 342 348 348 353 355 354 356 355
335 343 348 355 354 354 353 352 352 351 350 348 346 345 344 345 345 345 343 343 342 342 341 342 340 342 343 342 341 342 340 338 337 337 340 341 344 348 350 353 353 354 352
334 342 346 355 354 354 354 353 352 351 350 349 348 346 346 346 345 344 344 342 342 342 342 341 342 343 344 342 342 342 341 339 338 339 340 341 340 345 349 352 353 352 351
336 340 346 353 355 354 353 353 352 351 351 350 350 348 347 347 345 344 343 342 342 342 341 341 342 343 343 343 341 341 341 340 339 339 340 339 343 344 348 350 352 351 352
338 340 345 348 353 354 353 352 352 352 351 350 350 348 348 344 343 341 338 337 338 339 339 340 339 341 341 340 340 342 340 340 339 340 338 338 342 344 347 350 351 351 351
338 340 343 347 349 349 349 353 353 352 351 350 350 348 344 340 335 335 336 334 334 335 336 336 338 339 340 341 341 340 339 339 339 339 340 338 342 343 345 349 351 352 351
335 340 342 344 348 348 346 348 352 351 350 349 345 342 339 335 336 334 332 333 332 333 334 335 335 336 336 337 338 339 339 337 337 338 338 340 342 343 343 347 350 352 352
334 336 339 345 346 347 346 349 348 346 343 343 341 339 338 339 337 334 333 332 332 333 335 336 337 336 338 334 334 338 337 336 337 335 335 339 340 342 343 346 349 349 351
334 336 339 344 347 347 345 347 346 343 342 342 339 339 338 336 335 333 332 333 333 331 332 333 333 332 335 336 335 334 334 337 336 335 334 338 339 341 342 345 348 349 350
332 335 340 343 344 347 344 343 341 339 338 336 336 338 337 335 334 333 331 332 332 331 332 333 333 334 335 336 335 335 334 335 335 335 333 337 338 340 342 345 347 348 350
330 334 339 342 343 344 342 340 339 337 335 335 335 336 335 334 334 333 332 332 332 331 332 333 333 332 333 335 335 334 334 335 335 335 332 334 336 338 341 345 345 347 348
329 330 336 339 343 341 338 338 337 337 336 335 334 334 335 333 333 332 331 331 332 333 332 332 331 331 330 333 334 335 334 335 335 333 330 334 335 337 339 343 344 346 347
327 327 333 338 339 338 337 336 334 334 335 334 334 336 334 335 334 334 333 333 335 336 334 333 332 332 331 331 332 333 334 335 332 332 332 334 336 336 338 343 342 344 347
325 324 330 332 335 336 335 334 333 333 334 334 334 335 335 335 336 335 333 332 334 333 333 330 329 328 328 329 331 332 332 333 332 333 333 333 336 338 340 341 343 343 346
324 326 328 332 332 333 334 333 334 335 333 334 334 334 335 335 335 333 333 332 334 331 329 330 329 328 327 328 329 331 330 329 331 331 333 337 340 341 341 342 341 342 343
325 329 331 331 332 333 332 332 332 333 333 334 334 335 336 335 335 334 332 331 332 329 328 328 328 328 328 329 328 328 329 330 331 332 335 337 339 341 342 344 345 343 343
325 327 330 330 332 330 328 328 329 329 332 333 334 336 336 336 335 334 333 330 327 327 329 329 328 326 326 329 327 326 329 332 333 334 338 338 339 340 342 346 344 344 344
324 326 329 330 330 331 330 331 333 333 334 334 336 336 336 335 335 333 329 328 327 327 329 328 327 324 327 329 325 324 319 323 331 334 336 337 335 340 342 342 344 345 346
323 325 328 329 331 332 333 332 332 334 333 332 333 334 335 333 332 333 331 330 330 329 328 328 327 326 324 326 330 325 317 314 322 332 331 331 334 337 339 339 342 340 336
323 326 329 330 331 332 333 332 333 330 329 332 333 333 334 331 332 332 332 330 331 329 328 327 328 328 328 325 328 332 332 329 318 319 330 332 332 336 336 336 335 334 338
324 327 329 331 331 332 333 333 332 332 332 333 332 331 332 333 332 330 331 331 331 329 330 328 328 328 331 329 330 327 330 331 331 325 319 327 331 333 333 334 333 333 333
325 327 328 329 330 331 332 333 335 332 330 329 329 330 330 331 331 331 330 331 331 330 330 329 329 329 329 332 332 331 330 328 328 328 322 324 323 328 333 331 332 334 332

GFSSE_sfc_thetae_012.txt.gz
Theta_e
334 343 355 355 353 351 350 347 345 342 341 339 338 337 335 333 332 331 331 331 331 330 331 331 333 333 334 334 335 336 337 339 343 345 348 352 351 353 355 355 357 355 357
337 344 355 354 353 352 351 349 347 347 344 341 339 337 336 334 333 333 333 333 334 334 334 334 334 335 335 335 336 336 337 338 339 344 345 350 352 353 355 356 356 356 357
336 345 352 355 354 353 351 350 349 348 346 343 341 339 338 337 336 336 336 337 337 337 338 338 338 337 336 336 336 337 337 338 338 341 344 347 353 354 355 356 356 357 356
336 346 346 355 354 353 352 351 350 349 347 345 342 341 340 339 339 338 338 339 340 339 340 340 341 341 340 338 337 337 338 338 339 340 337 338 348 354 354 356 356 355 356
337 343 347 355 354 354 353 351 351 350 349 346 343 342 341 341 341 341 339 340 341 341 341 341 343 343 342 340 339 339 338 338 339 339 334 336 343 349 351 353 355 354 353
338 340 348 355 354 354 353 353 352 351 349 349 345 344 343 343 344 344 341 342 343 343 342 341 343 342 341 343 342 341 339 338 337 334 336 339 340 347 348 351 352 353 353
339 343 344 355 355 355 354 354 353 352 351 350 348 345 345 346 346 346 344 345 345 343 343 343 343 345 343 341 342 343 342 339 339 335 336 339 338 344 345 349 352 351 352
339 343 347 355 355 354 354 353 353 352 352 350 350 349 348 348 348 346 345 344 344 343 343 342 342 342 343 341 341 341 341 342 340 337 338 338 342 341 344 347 350 350 352
339 340 346 351 355 355 354 353 353 352 351 350 350 350 349 349 346 344 343 340 339 339 339 341 341 341 341 340 340 341 341 341 340 337 339 340 345 342 343 346 349 350 352
340 340 342 349 351 349 349 354 353 352 352 351 351 351 350 347 343 339 337 337 335 335 336 337 338 338 340 340 339 339 340 340 340 337 339 340 342 341 342 345 348 349 351
337 341 342 344 349 348 345 349 353 352 352 351 349 349 346 340 339 339 338 332 333 333 333 334 335 336 337 338 338 339 340 337 337 336 337 343 341 341 342 342 346 348 349
335 337 342 347 348 348 342 347 352 347 347 346 343 343 343 340 341 338 337 333 333 333 333 335 336 337 337 337 335 338 337 336 335 335 336 342 340 341 341 341 344 348 348
334 338 341 346 350 348 344 346 347 345 345 344 345 343 342 340 340 338 337 335 336 335 334 334 336 336 336 335 335 333 333 334 332 335 338 338 337 340 341 341 343 348 347
332 336 341 344 349 351 345 345 344 342 343 341 341 343 341 338 339 339 336 335 336 334 333 335 334 335 335 336 336 334 333 333 333 333 338 337 337 338 339 341 343 346 346
331 336 341 344 348 350 349 346 344 341 340 339 337 340 341 338 338 338 336 335 334 335 332 333 334 334 334 334 335 335 333 333 334 335 335 337 336 337 338 339 343 346 346
333 336 341 344 349 350 349 348 344 343 340 338 336 339 341 339 339 337 335 334 333 336 333 332 334 333 332 332 333 335 335 335 335 335 336 335 335 336 337 338 343 345 346
334 337 341 345 348 350 350 347 343 340 338 335 337 342 341 341 340 339 337 336 336 338 339 336 334 333 331 331 332 334 334 336 336 336 336 332 334 337 337 338 343 343 344
336 336 340 341 346 350 349 345 340 337 335 335 338 339 341 342 341 339 337 337 338 338 338 335 332 330 329 329 330 333 333 334 334 335 333 331 332 335 338 340 342 342 343
337 337 337 341 344 348 347 342 340 340 337 337 338 338 340 341 340 339 339 339 339 337 336 333 331 331 330 328 327 332 335 333 333 331 330 333 336 338 336 342 341 342 343
335 337 337 340 344 346 342 339 335 335 336 338 338 338 341 340 339 338 338 337 336 336 334 331 332 332 330 328 329 331 332 332 331 331 331 333 336 339 339 342 344 343 343
332 334 336 338 343 340 335 331 331 330 334 336 337 341 340 340 339 337 337 336 336 333 330 333 332 330 329 331 330 330 330 332 332 330 332 333 336 338 341 342 343 345 342
331 334 336 338 340 338 333 333 332 333 333 336 338 340 340 339 338 336 335 336 335 329 331 332 332 328 331 333 327 327 322 326 329 331 334 335 337 340 340 341 343 345 348
331 333 335 338 338 337 337 336 337 338 338 334 335 336 337 338 337 337 335 335 334 333 333 333 332 328 327 331 333 328 320 316 322 332 334 334 337 340 341 342 344 346 347
331 333 336 337 337 337 339 336 336 329 328 333 336 338 337 336 334 334 336 335 335 336 334 332 332 333 331 329 332 331 331 329 318 318 333 334 338 339 339 340 343 341 346
331 333 335 336 337 337 337 337 334 333 333 335 334 334 336 336 334 332 334 335 334 334 335 333 332 331 333 331 328 328 330 330 329 323 321 329 335 339 339 336 336 338 336
331 332 334 336 335 337 337 337 337 336 334 332 332 331 333 336 336 334 332 334 335 334 333 332 332 332 334 334 332 329 331 330 325 329 328 329 328 331 334 335 333 333 335

GFSSE_sfc_thetae_015.txt.gz
Theta_e
339 348 354 354 352 351 349 346 345 343 342 340 338 337 335 333 332 332 331 331 331 330 331 331 332 333 334 334 335 336 337 338 342 345 347 352 353 353 355 356 359 356 358
340 348 354 354 353 352 350 348 347 346 345 341 339 338 336 335 333 333 332 332 333 333 334 334 335 335 335 336 336 337 337 338 339 342 345 348 353 354 355 356 357 355 357
340 348 350 354 354 353 352 350 349 348 345 343 341 339 338 336 334 334 334 335 336 336 337 338 338 338 337 337 337 337 338 338 339 340 341 342 349 355 354 356 356 355 355
341 350 346 354 354 354 352 351 350 349 346 344 342 341 340 339 338 337 337 337 339 338 338 339 340 342 341 340 339 338 338 339 339 340 335 329 336 358 355 355 356 355 354
340 351 348 355 354 354 353 352 351 350 348 345 343 342 341 341 340 340 339 339 340 341 341 341 341 343 344 342 341 340 339 339 340 338 333 330 335 348 351 353 353 353 355
339 347 353 354 354 354 354 353 352 351 350 348 345 344 343 343 344 343 340 340 341 343 343 343 342 343 343 341 343 342 341 340 339 334 332 334 335 348 350 349 352 354 354
339 342 352 354 355 354 354 353 352 351 350 350 348 346 344 346 346 344 343 343 344 345 345 344 344 344 342 342 341 342 343 342 339 337 333 336 337 346 345 347 351 352 353
339 341 345 356 355 354 354 353 353 352 352 351 350 349 348 348 348 347 346 345 345 344 343 343 343 343 343 341 340 340 341 342 341 339 337 337 343 343 342 344 349 351 352
339 340 342 354 355 354 354 353 353 352 352 351 350 350 350 348 349 347 345 344 343 341 339 339 340 341 342 341 340 340 340 341 340 339 338 339 348 343 340 344 349 351 351
337 338 341 348 355 353 350 354 353 353 352 352 351 350 350 348 348 346 343 339 337 336 336 336 337 338 340 340 341 340 340 341 339 338 338 339 345 343 340 340 347 350 350
334 338 341 342 348 351 346 348 354 353 352 352 350 349 349 343 341 344 342 337 335 334 334 334 335 336 337 338 339 339 340 336 335 336 335 345 343 341 340 340 343 348 350
331 336 339 349 345 349 344 347 351 347 347 347 345 344 347 344 342 339 341 336 335 335 334 334 335 336 337 335 335 339 336 334 333 334 338 345 343 340 339 341 342 345 349
331 335 339 352 355 351 346 344 349 347 346 346 346 347 348 342 342 341 340 339 339 337 337 336 336 336 335 335 334 337 335 333 333 334 340 342 341 339 338 340 341 344 348
332 334 340 344 354 358 346 341 344 346 345 343 345 348 344 339 343 342 338 339 341 336 336 335 333 335 336 335 335 335 336 335 331 333 337 340 338 337 336 340 341 343 346
333 335 337 347 355 357 359 345 347 346 343 345 341 343 342 339 343 340 342 337 338 336 337 337 337 336 335 335 334 336 335 335 335 334 336 339 336 336 337 339 340 343 346
335 336 338 346 356 356 354 358 353 353 346 342 340 339 342 342 342 339 339 336 337 336 336 336 336 338 335 335 334 335 335 335 334 337 334 336 338 336 336 338 339 343 346
334 338 347 352 356 358 358 356 351 346 343 340 339 342 342 344 343 342 338 338 343 343 341 338 337 338 333 332 334 334 334 336 334 336 335 334 336 339 339 338 339 344 345
338 342 346 341 353 358 357 354 349 344 341 337 337 339 343 344 343 341 338 338 344 344 341 338 336 335 331 330 332 335 333 333 335 338 335 336 332 335 339 340 340 344 344
341 347 343 350 346 356 357 352 350 353 340 336 337 338 340 342 341 340 338 340 342 342 340 337 335 335 330 329 332 333 333 334 335 332 333 333 335 335 336 341 344 345 344
339 345 347 348 354 356 352 351 343 339 338 337 337 338 340 341 339 341 338 340 341 339 337 337 334 335 332 336 329 333 335 332 332 331 332 331 334 337 337 339 342 340 344
337 341 344 346 354 351 345 341 337 333 336 335 337 340 341 341 342 340 338 339 338 336 336 337 333 332 332 334 329 329 332 333 334 334 331 331 335 335 337 336 337 346 344
336 339 340 343 350 350 345 343 338 338 334 336 337 340 341 339 340 338 338 338 338 337 335 333 334 330 331 332 326 327 321 326 330 330 331 333 335 334 335 337 341 344 347
335 338 339 342 347 348 347 342 340 338 338 335 333 335 339 338 340 338 337 337 336 339 335 335 334 331 327 333 332 328 321 317 322 330 331 331 335 337 337 339 341 344 347
335 338 340 343 343 341 346 343 346 334 330 331 336 336 337 336 336 336 336 336 335 341 334 334 333 331 332 327 331 332 333 330 319 319 330 335 339 339 342 342 347 345 346
336 337 340 341 340 341 342 345 335 336 331 334 333 336 338 338 335 335 335 335 336 334 336 334 333 333 335 332 333 331 332 328 326 326 319 326 335 341 341 342 343 345 343
335 337 338 338 338 339 338 339 340 337 334 332 333 335 338 338 337 336 333 334 336 335 334 334 335 334 335 335 338 333 335 328 323 323 330 330 329 334 338 339 335 334 335

GFSSE_sfc_thetae_018.txt.gz
Theta_e
342 347 355 354 352 350 350 347 346 344 345 343 339 338 339 338 336 333 333 332 332 330 330 331 331 332 332 333 334 335 337 338 339 344 349 351 354 352 355 355 358 354 358
346 348 354 353 352 351 350 349 348 347 345 344 341 341 340 338 335 335 334 333 333 333 333 333 334 334 334 334 335 336 337 340 341 340 342 346 351 355 357 356 355 355 355
346 347 348 353 352 352 350 350 348 347 346 345 344 342 340 338 335 334 334 334 335 335 336 337 337 338 337 336 336 336 338 341 342 341 339 336 338 355 356 356 355 353 352
348 347 345 353 353 352 352 350 349 349 347 346 345 343 341 339 337 336 335 336 337 337 337 337 339 341 341 340 339 338 339 341 342 339 335 329 327 351 356 356 355 353 353
349 348 346 354 353 353 353 351 350 349 348 347 346 344 343 341 340 340 339 338 339 340 340 340 340 341 344 343 342 342 342 341 339 338 332 329 328 343 354 353 353 353 353
349 348 352 353 353 354 353 353 351 350 349 349 347 346 346 344 345 344 341 341 340 340 343 343 343 345 344 343 342 344 343 341 340 335 332 332 333 352 352 351 350 351 353
339 349 352 353 354 354 354 353 352 351 350 349 349 348 347 346 346 346 344 342 343 344 345 345 345 346 344 344 343 343 342 343 339 335 336 332 338 349 348 348 350 350 351
338 343 354 354 353 353 353 353 351 351 351 350 349 349 348 348 348 347 347 346 346 345 345 344 343 343 343 343 344 343 342 341 339 338 337 335 345 347 345 346 348 349 351
336 340 353 353 353 355 353 352 352 351 350 350 350 350 349 349 349 349 349 347 345 344 342 340 340 341 343 343 342 343 341 341 337 336 338 337 347 348 345 345 347 348 350
331 338 352 352 352 350 350 354 352 352 352 351 351 351 350 349 349 349 348 346 344 341 338 337 337 337 339 342 343 343 341 341 337 335 335 338 346 344 342 343 346 347 349
328 337 346 352 352 351 347 350 354 354 353 352 351 351 349 344 340 344 346 345 342 339 338 336 335 336 336 338 339 340 341 336 333 334 333 346 347 343 341 341 342 345 348
328 330 338 350 353 350 346 346 350 349 349 348 345 346 346 343 344 342 343 341 340 338 337 336 336 336 336 332 332 338 334 335 332 331 333 347 344 343 342 341 341 342 347
329 331 336 347 351 350 346 346 349 346 345 346 345 346 346 346 345 341 338 339 337 338 334 334 333 333 334 333 334 335 334 334 332 330 339 345 344 342 341 341 341 342 347
330 332 344 345 348 349 347 346 349 347 345 345 345 347 345 345 343 342 339 342 338 338 335 335 333 334 335 336 334 332 334 333 329 330 339 343 342 341 340 340 341 341 345
333 336 346 347 348 350 353 344 347 348 346 345 346 347 345 342 341 344 343 340 340 339 337 337 334 334 334 335 334 333 333 334 335 332 335 342 342 340 338 338 340 341 343
338 337 348 348 349 351 347 355 348 352 347 345 345 346 345 343 343 343 343 341 339 338 336 336 335 334 334 333 332 334 334 333 334 334 333 337 340 340 338 337 339 341 342
339 341 350 352 352 351 350 350 357 351 352 346 346 348 343 344 345 345 341 340 340 340 340 337 335 335 333 332 332 331 332 333 334 332 335 335 335 340 339 340 339 340 342
342 343 351 339 352 353 352 351 352 349 348 344 344 344 343 346 345 344 340 338 341 341 339 335 334 332 332 332 329 330 331 332 333 332 334 332 333 331 337 340 341 342 343
343 348 350 348 351 353 355 354 353 356 347 346 343 342 343 344 343 341 339 338 342 339 337 335 333 332 330 331 329 328 329 329 331 330 332 334 333 332 334 339 340 342 346
345 350 354 352 354 354 354 353 350 350 346 345 343 343 345 344 343 341 340 340 340 337 335 333 332 332 331 329 330 328 328 330 331 330 331 332 330 330 335 336 334 338 345
343 348 353 354 357 351 349 346 344 340 341 342 343 345 343 343 343 340 339 339 337 335 334 333 331 329 328 329 326 326 328 329 329 330 331 328 329 332 334 337 336 336 338
343 345 351 351 354 351 350 347 345 341 338 339 341 344 343 342 342 339 338 337 336 334 333 331 330 326 327 327 321 321 316 321 327 329 329 328 328 333 333 335 334 337 337
340 343 344 347 353 350 350 347 349 344 343 340 342 341 342 341 340 339 338 337 334 334 331 331 330 327 324 328 326 321 315 313 319 325 327 327 329 328 331 333 334 336 337
338 341 344 348 349 349 348 344 341 335 336 337 338 339 340 341 338 338 337 334 335 335 333 331 332 329 327 323 325 326 325 323 316 314 323 325 329 331 330 332 332 336 337
338 340 343 346 346 346 345 342 341 340 340 342 339 339 339 340 338 337 337 336 334 334 333 332 331 330 329 326 325 325 323 323 322 317 315 320 326 329 331 331 332 335 338
337 340 342 342 342 341 345 344 341 340 341 338 337 336 337 338 338 337 335 334 335 335 334 332 332 331 329 327 327 327 325 320 313 317 317 319 320 324 328 333 333 333 337

GFSSE_sfc_thetae_021.txt.gz
Theta_e
341 350 356 355 353 351 350 346 345 343 343 342 339 337 337 337 336 334 333 332 332 331 331 330 331 332 332 332 332 333 334 335 336 338 343 348 351 355 351 355 357 354 357
343 349 355 354 352 352 350 348 347 346 345 344 340 338 337 336 335 335 334 333 332 333 333 333 333 334 333 333 333 334 334 336 337 336 338 340 344 351 353 353 354 355 358
344 348 350 354 352 352 351 349 348 347 346 345 343 340 338 337 336 335 335 334 334 335 335 336 336 337 336 336 335 335 335 337 337 336 337 331 333 342 354 353 352 354 356
343 345 346 353 352 352 351 350 349 348 347 346 344 340 339 338 337 336 335 335 336 337 336 336 337 338 341 340 339 338 338 337 337 337 333 333 330 341 355 353 353 353 353
342 343 344 353 353 352 351 350 349 348 348 347 344 343 340 340 340 340 338 338 338 339 340 340 340 340 341 344 342 341 340 339 339 337 331 328 325 336 356 355 354 353 353
342 340 349 353 353 352 352 351 350 349 349 348 346 344 343 342 343 343 340 340 339 339 341 343 343 343 343 343 343 343 343 341 340 334 331 331 331 352 353 351 353 351 353
341 339 348 353 354 353 353 352 351 350 349 349 348 346 345 347 346 345 342 341 341 342 344 345 345 345 344 344 343 344 342 343 339 335 333 333 332 351 353 352 351 350 352
341 340 346 353 354 353 353 352 351 350 350 350 349 349 348 348 348 346 344 343 344 345 346 344 344 343 344 343 343 344 341 341 337 335 336 333 344 350 350 349 350 350 351
343 342 345 346 350 354 352 352 351 350 350 349 349 349 349 349 348 348 348 347 347 347 345 343 342 341 341 342 342 344 341 341 334 333 334 333 347 349 347 348 348 350 351
340 345 344 345 344 346 347 353 352 351 350 349 349 349 349 349 349 349 348 348 347 345 343 341 339 338 338 340 343 343 341 342 334 334 332 332 347 347 346 346 348 350 350
330 344 344 344 344 343 344 349 351 352 351 350 350 350 347 341 341 342 345 347 346 345 343 341 339 337 336 337 339 341 342 332 333 332 332 337 347 345 345 345 347 349 350
317 341 344 344 344 343 343 344 346 346 345 346 345 344 342 338 333 336 342 349 347 347 344 341 339 337 336 329 329 337 333 332 332 329 329 340 345 345 343 343 344 346 348
317 323 343 344 344 343 342 343 345 344 344 345 341 339 339 338 335 337 332 339 335 342 332 335 332 330 329 328 328 328 333 332 332 330 330 342 344 345 344 342 342 343 347
316 319 341 345 345 343 341 341 343 341 342 341 341 337 339 337 335 333 331 332 331 330 329 328 328 329 329 331 330 330 332 331 333 331 328 345 343 345 343 342 341 342 344
317 319 336 345 345 343 339 341 341 340 340 340 339 339 338 337 332 331 329 331 331 331 329 329 330 330 331 330 331 328 328 330 333 332 332 343 342 343 342 342 341 342 342
320 320 331 340 344 343 340 340 341 341 340 339 339 340 339 336 331 333 333 330 329 328 328 328 327 327 327 327 328 330 329 328 331 331 334 335 341 341 342 342 341 341 341
321 322 332 338 340 341 340 337 341 342 341 339 338 340 339 335 332 334 331 330 330 330 329 329 328 328 327 327 326 326 330 328 330 329 331 332 336 340 340 340 341 340 342
320 322 329 341 341 340 338 340 341 342 340 339 336 339 338 335 335 334 330 329 330 330 329 328 326 325 326 325 324 324 325 327 327 328 329 330 330 331 338 341 341 342 343
321 324 332 339 342 342 341 339 342 340 336 334 333 333 337 337 338 333 331 329 330 330 329 328 327 325 323 324 324 324 325 326 326 328 328 329 330 329 329 337 340 341 343
322 327 331 336 342 344 344 341 341 338 334 334 332 332 334 336 337 333 331 329 330 329 327 326 325 324 324 323 326 324 325 324 324 324 328 330 326 327 329 330 332 335 342
330 332 336 340 343 345 343 340 336 333 332 333 332 334 335 335 335 332 330 329 329 327 326 326 324 323 322 323 319 317 321 323 322 324 325 325 326 327 326 331 331 331 334
326 333 337 343 344 343 342 338 336 331 332 332 331 331 332 332 331 330 328 327 327 326 325 324 322 320 320 321 316 317 310 315 320 323 323 324 326 325 327 332 330 331 332
329 334 337 342 341 341 340 339 334 330 329 327 328 330 331 332 333 331 329 328 326 325 323 322 322 320 317 318 319 315 312 309 313 318 321 322 322 325 326 328 330 332 335
330 333 335 341 340 341 338 334 329 326 324 326 326 329 331 331 331 331 329 328 326 325 323 323 324 321 318 316 318 321 319 319 310 308 316 321 323 326 325 326 326 330 332
330 332 337 339 337 336 333 331 327 324 326 327 328 328 329 327 328 330 328 326 325 324 324 323 323 322 321 317 317 316 318 319 319 313 308 313 320 321 323 324 325 329 331
333 334 337 335 333 333 331 330 328 326 326 324 326 326 326 325 327 327 328 325 325 325 324 324 324 323 321 321 320 319 317 313 314 314 312 312 313 316 325 326 326 329 328

GFSSE_sfc_thetae_024.txt.gz
Theta_e
340 349 357 355 353 352 350 346 345 344 344 343 339 337 336 336 334 334 333 332 332 331 331 331 331 330 330 331 331 332 332 332 333 334 337 342 347 351 352 356 355 352 357
342 349 356 354 353 351 350 348 347 346 345 343 339 338 336 336 334 334 334 333 332 332 333 333 333 333 332 332 332 333 334 334 333 333 334 336 339 343 351 353 354 351 357
343 347 351 354 353 352 351 349 348 346 345 344 342 339 337 336 336 335 335 334 334 335 334 335 335 336 336 335 335 334 334 335 335 335 335 329 331 336 343 352 354 353 354
345 346 347 354 353 352 351 349 348 347 346 345 343 339 338 337 337 336 335 335 336 336 336 335 336 337 339 340 339 338 337 337 337 337 331 331 331 337 342 354 352 354 353
343 345 346 354 353 352 351 350 348 347 347 345 342 341 340 339 340 339 337 337 338 339 338 339 339 340 340 342 343 341 340 339 339 337 330 328 325 332 351 354 353 353 352
341 343 349 353 352 352 352 350 348 348 348 347 345 343 343 341 342 341 339 339 339 339 341 342 342 343 342 342 343 344 343 342 341 333 331 331 332 337 354 355 352 351 353
338 339 348 353 352 352 352 351 349 348 348 348 348 346 344 345 344 342 341 341 340 340 342 343 344 345 345 344 343 344 342 342 339 335 333 332 332 340 354 354 352 352 352
336 337 345 352 352 352 352 350 349 348 348 348 348 348 347 347 346 344 343 342 342 343 344 345 346 344 344 343 343 343 342 342 337 334 334 333 337 348 351 353 353 351 351
337 335 342 344 349 352 351 350 349 348 348 348 348 348 348 348 348 347 346 345 344 345 346 346 345 343 342 342 342 343 343 342 334 332 333 332 340 349 349 351 351 351 352
337 337 339 340 343 345 346 352 350 349 348 347 348 348 348 349 348 348 346 347 346 347 346 346 344 341 339 339 340 342 343 342 335 332 332 331 340 347 349 348 348 350 351
336 338 340 340 339 343 342 347 350 351 350 348 348 348 346 341 342 342 346 346 347 348 347 344 342 340 339 337 337 339 341 333 332 332 331 336 339 344 346 347 348 348 350
331 338 340 341 339 339 340 341 344 343 343 343 341 341 341 337 336 341 342 347 348 349 346 344 343 340 337 328 329 335 331 332 331 331 330 338 340 342 345 345 346 348 350
319 337 340 340 340 338 336 338 343 341 341 341 340 339 339 338 334 335 332 337 342 346 337 340 336 333 328 327 327 326 328 330 330 331 334 338 341 342 344 344 344 346 348
315 333 340 341 340 339 337 337 340 339 340 340 340 338 337 333 330 330 330 330 332 332 330 328 327 327 327 328 329 327 328 329 332 330 329 338 341 344 346 343 343 343 346
314 318 338 340 340 340 337 338 339 338 339 340 339 337 337 333 331 331 330 328 329 328 328 326 326 327 327 327 328 330 329 331 332 330 327 336 342 345 343 343 342 342 342
316 315 333 339 340 340 338 337 339 339 338 338 338 336 336 335 333 330 329 327 329 329 328 327 327 326 326 327 327 328 329 327 327 330 332 333 342 342 342 343 343 342 341
315 318 329 339 340 340 339 336 339 339 338 337 336 336 337 336 332 331 329 330 328 327 326 327 326 325 324 325 324 325 325 329 326 330 330 331 334 341 341 342 342 342 342
316 316 321 337 340 340 339 336 338 339 338 337 337 337 338 337 333 331 329 328 329 328 327 326 325 325 323 323 322 323 324 325 327 327 327 330 330 331 339 341 340 341 342
317 316 318 332 335 338 338 336 338 338 338 336 336 338 337 336 334 332 329 328 328 327 326 325 324 323 321 321 322 322 322 322 324 327 325 327 328 329 329 335 340 340 342
315 318 320 333 334 335 335 336 335 334 332 332 334 335 336 335 335 330 329 328 328 327 325 323 324 322 322 321 323 323 321 324 322 322 324 326 329 329 327 327 330 333 340
317 318 324 334 335 338 336 337 335 330 330 329 330 333 333 333 333 330 329 328 327 326 325 323 322 322 321 323 320 318 317 321 321 321 323 323 326 327 325 328 327 329 332
319 325 327 334 338 339 339 337 333 331 328 329 330 333 333 332 332 330 327 326 325 324 323 321 321 317 318 320 316 316 314 317 320 322 322 323 322 323 324 327 329 329 330
323 328 333 337 338 338 337 334 329 327 326 325 327 328 329 331 330 329 326 325 324 323 321 320 319 318 315 316 317 314 311 308 314 318 321 321 322 321 323 326 329 328 328
325 332 337 337 338 338 337 332 330 324 323 323 325 326 327 330 330 329 328 326 324 322 321 321 322 318 316 313 315 319 316 315 311 307 314 318 320 322 320 322 326 327 330
330 333 338 337 337 335 333 330 328 324 323 323 325 326 325 326 328 329 326 325 323 322 321 322 321 319 318 315 314 314 314 315 318 311 307 311 317 319 320 321 323 326 329
331 336 336 335 332 331 329 327 324 324 323 323 323 323 322 322 324 326 326 323 323 322 322 322 322 321 319 318 317 316 314 313 314 314 309 309 311 317 323 326 324 323 326

GFSSE_sfc_thetae_027.txt.gz
Theta_e
336 345 357 355 353 352 349 347 347 346 345 345 341 339 338 338 336 334 334 333 333 331 331 331 331 331 330 330 331 332 332 333 333 334 336 340 344 349 351 352 352 351 355
339 348 357 356 354 351 350 349 348 347 346 344 341 339 337 336 335 334 333 333 332 331 332 332 332 332 331 331 331 332 331 332 332 333 333 335 338 340 346 352 350 350 354
341 348 352 355 354 353 351 350 348 347 345 344 342 339 338 336 336 335 334 334 334 334 335 335 335 336 335 334 334 334 333 333 333 333 333 329 329 336 339 349 352 351 355
343 347 347 354 353 353 351 350 349 347 346 345 343 339 338 338 336 336 335 335 335 336 336 336 336 336 337 338 338 337 337 337 337 336 329 329 329 336 339 340 351 352 352
342 345 345 354 353 353 352 350 348 347 347 345 343 342 339 339 339 337 337 336 336 337 337 337 338 338 338 340 342 341 340 339 339 337 330 327 325 334 341 349 354 353 351
341 344 347 353 353 353 352 350 348 347 347 346 345 343 342 341 341 340 337 338 338 339 339 340 341 341 341 341 341 344 343 342 342 333 331 331 332 337 343 354 353 353 352
339 342 344 354 353 353 352 351 349 348 347 347 346 345 343 344 342 340 339 340 340 340 341 342 343 343 344 344 343 343 343 343 338 335 333 332 332 340 344 352 353 353 354
338 340 342 353 353 352 352 351 349 348 347 347 347 346 346 345 344 341 341 341 340 340 341 343 344 345 345 344 343 343 344 343 338 333 333 332 335 343 347 352 352 352 351
336 337 341 345 349 353 351 350 349 348 347 347 347 346 346 346 346 345 345 343 342 343 344 345 345 345 344 343 342 342 343 343 335 331 333 331 337 341 348 349 351 352 353
332 333 337 341 344 344 345 351 349 349 348 347 347 347 347 348 347 347 345 346 343 344 345 346 346 345 343 341 340 340 341 342 335 331 331 331 339 341 346 348 347 350 353
334 330 334 337 339 341 342 345 350 349 349 348 347 347 345 340 341 341 344 344 344 346 347 346 346 345 341 339 339 338 339 333 332 331 331 337 340 340 343 347 348 349 349
331 332 336 336 335 339 339 338 342 342 341 342 341 340 340 335 335 339 342 344 344 346 347 346 346 342 340 329 328 334 329 330 331 330 330 339 340 339 342 345 345 346 348
325 334 336 337 335 335 336 336 340 340 339 340 338 336 335 336 335 336 333 335 338 345 340 341 339 335 331 327 326 326 326 327 328 330 334 339 339 339 341 342 341 343 346
315 329 336 338 337 334 334 334 335 337 337 338 338 336 336 333 329 329 329 328 332 335 335 331 330 329 327 327 326 325 326 325 327 329 330 338 339 339 340 342 342 343 345
312 319 332 337 337 336 332 332 333 336 335 336 337 337 336 333 330 328 327 327 329 329 330 327 326 325 325 326 326 327 327 327 331 331 328 337 339 340 341 342 342 342 341
314 313 327 336 337 337 335 332 332 334 334 335 337 336 335 332 330 328 328 328 327 327 327 326 325 324 324 325 326 327 327 326 329 329 328 329 338 342 345 343 341 340 341
315 314 324 335 337 337 336 335 334 334 334 335 336 336 335 332 330 330 329 326 327 327 326 325 325 324 323 323 324 325 324 326 329 327 327 330 332 341 343 342 343 341 342
313 313 315 330 336 336 336 336 336 336 335 334 335 334 334 334 332 330 331 329 328 325 324 323 323 322 324 323 321 322 323 323 326 328 326 328 329 331 339 341 342 342 339
315 314 313 330 335 336 336 335 334 335 335 335 334 334 334 334 333 331 329 328 327 325 324 323 322 321 319 320 321 321 321 321 322 327 324 325 328 329 328 338 340 339 341
313 315 313 328 333 335 333 330 331 334 333 334 334 335 335 335 334 331 329 327 326 325 324 322 322 321 321 320 322 322 320 320 321 321 323 324 325 327 327 326 328 331 338
314 313 315 322 327 333 332 331 331 332 331 331 334 335 334 334 333 330 328 326 325 324 324 322 320 320 318 321 319 316 320 320 318 319 320 321 324 327 326 326 325 327 330
314 314 314 321 329 332 334 334 330 331 327 329 331 333 334 334 332 329 327 325 325 323 322 321 324 316 316 320 314 313 312 316 320 320 319 321 321 325 325 324 326 327 327
312 316 319 324 330 332 330 329 327 327 326 325 326 327 330 332 330 329 327 325 324 323 321 319 318 316 314 314 315 312 308 306 314 320 320 320 321 320 321 322 325 327 327
312 322 328 331 332 333 332 328 328 326 325 322 326 326 326 329 329 328 326 324 323 321 319 319 320 317 315 312 314 316 313 312 311 308 317 319 319 319 318 320 324 325 327
318 328 332 334 333 332 329 330 326 323 322 324 326 324 324 325 327 327 326 324 322 320 320 319 319 317 316 315 313 312 312 313 313 311 309 314 316 317 321 320 320 322 325
330 333 333 333 330 330 328 326 326 323 323 323 322 322 321 321 323 325 325 323 322 320 320 320 320 319 318 317 315 314 312 311 311 313 311 308 311 316 322 323 321 321 323

GFSSE_sfc_thetae_030.txt.gz
Theta_e
334 347 358 356 354 353 353 349 350 350 349 349 347 346 345 346 343 341 339 337 336 335 333 333 332 332 332 331 332 332 333 333 334 335 337 339 343 345 350 352 352 351 354
336 349 357 356 355 352 352 351 350 349 348 347 346 344 342 341 338 338 336 335 334 333 333 332 332 332 332 331 332 332 331 332 332 332 333 336 337 338 342 350 351 351 352
337 349 353 356 355 354 352 351 350 349 348 346 344 343 341 341 337 336 337 334 333 333 334 335 335 335 335 334 334 334 333 333 333 332 333 333 331 334 338 347 351 352 354
340 347 349 356 355 354 352 351 350 349 347 346 345 343 341 341 339 337 335 335 335 335 336 335 335 335 336 337 337 336 336 335 335 335 332 332 331 334 338 340 350 351 352
342 345 346 356 355 354 353 351 349 348 347 346 345 344 343 342 341 340 337 336 337 337 337 337 337 337 337 338 340 340 339 338 337 337 334 332 331 334 341 344 347 352 352
340 344 347 355 354 354 353 352 350 349 348 347 346 345 344 342 341 340 338 337 338 338 338 339 340 339 339 340 339 341 344 342 341 337 335 334 336 337 343 347 352 352 353
339 341 344 355 354 354 353 352 350 349 348 347 347 345 344 344 343 340 339 339 339 340 341 341 342 342 342 343 344 343 343 343 341 339 338 337 336 340 344 349 354 352 353
338 340 342 353 353 353 353 351 350 349 348 348 347 346 345 345 343 341 340 340 340 341 341 342 342 343 346 344 344 343 344 344 341 337 337 336 336 340 345 348 352 353 353
337 338 339 346 350 353 352 351 350 348 348 347 346 346 346 346 345 344 343 343 342 342 343 343 344 345 345 343 342 342 342 343 341 336 335 335 336 340 343 347 349 351 351
332 335 335 341 345 345 346 352 350 349 348 347 347 347 346 346 346 345 344 345 343 344 344 345 345 346 345 343 341 340 340 340 340 337 335 335 339 340 341 346 347 349 351
332 330 332 337 340 342 343 345 350 349 349 348 348 348 345 341 342 341 344 344 345 345 346 346 346 347 343 340 339 339 338 335 336 336 335 337 340 340 340 343 346 347 349
330 331 330 334 337 339 341 340 343 342 342 342 342 342 341 339 339 341 342 344 344 345 346 347 346 345 342 335 333 335 332 332 333 335 335 339 340 340 340 341 346 347 348
326 332 331 331 335 336 337 337 339 340 339 340 339 339 339 338 339 340 337 339 339 344 341 345 344 341 336 333 330 329 329 329 331 333 335 338 339 340 340 340 343 345 346
314 325 333 333 333 333 335 334 335 338 337 338 338 337 336 336 334 335 334 333 334 337 339 339 337 336 334 332 330 329 329 329 329 330 332 337 339 340 339 341 342 343 345
312 314 323 333 334 333 333 333 332 334 335 335 337 336 336 335 332 332 332 330 330 333 335 335 333 331 330 329 329 329 329 329 330 331 332 336 339 340 340 341 342 342 342
312 313 315 332 335 335 332 332 332 332 333 333 335 336 336 334 331 331 330 329 328 331 332 332 330 329 328 328 328 329 330 330 331 334 333 334 336 340 340 341 343 343 341
313 313 314 323 334 335 334 332 331 331 332 332 333 335 336 333 331 330 329 328 329 330 330 329 329 328 327 327 327 329 329 331 331 332 331 333 334 338 340 341 342 342 341
313 313 313 325 333 335 335 335 332 331 332 332 333 335 336 333 331 330 328 329 330 329 329 328 328 327 326 326 326 327 327 327 328 330 331 332 333 333 336 341 342 341 340
313 313 312 316 328 333 335 335 334 333 333 333 334 335 335 334 333 330 329 330 330 329 327 327 326 327 325 325 325 326 327 327 327 328 329 330 331 335 334 339 340 341 342
313 313 313 313 322 331 333 331 330 331 333 333 333 333 334 334 333 331 331 330 329 328 327 326 326 325 325 325 324 325 325 325 326 325 327 328 329 332 333 331 336 336 339
312 313 313 314 325 332 330 328 328 330 331 331 333 334 334 334 333 332 331 330 328 328 327 326 325 325 323 325 322 321 322 324 324 324 326 326 327 330 331 330 332 333 334
312 312 312 314 324 331 333 330 330 330 331 331 333 334 335 334 334 332 330 328 328 326 326 325 326 321 322 323 319 317 315 319 323 324 323 325 326 329 330 330 331 332 333
309 312 314 314 324 328 330 328 327 327 327 326 329 330 333 334 334 332 330 329 327 327 326 325 324 322 319 320 321 318 312 311 316 322 322 324 325 326 328 328 329 331 332
309 311 315 320 327 330 330 327 328 325 324 325 328 329 330 332 331 329 329 328 327 327 325 324 323 321 320 317 319 319 319 318 314 313 318 321 324 324 324 327 329 331 332
307 312 323 327 330 330 329 330 328 324 323 327 327 327 327 328 329 329 328 328 327 325 324 323 323 321 320 319 318 317 317 318 318 316 312 315 321 323 324 325 327 329 331
325 329 331 329 327 328 329 326 326 324 325 325 324 325 325 324 326 328 329 327 326 324 323 323 323 323 321 321 319 319 318 317 316 317 314 312 314 320 323 326 327 328 331

GFSSE_sfc_thetae_033.txt.gz
Theta_e
338 346 359 358 356 356 355 353 354 353 352 352 352 352 352 351 350 348 345 343 343 339 337 335 334 333 333 333 334 334 335 335 335 336 337 341 344 345 350 352 352 351 354
342 349 358 357 356 356 355 354 354 353 352 351 351 351 350 348 346 346 344 341 339 337 335 334 333 333 332 332 333 334 333 333 333 333 334 335 336 339 343 350 351 352 353
343 351 355 356 356 356 354 353 352 352 352 351 351 349 347 346 344 341 341 339 337 336 335 335 335 336 336 335 335 335 334 334 334 333 336 333 333 335 341 347 351 352 353
347 353 350 357 355 355 354 352 351 350 349 349 348 347 345 344 343 339 338 336 336 336 337 338 338 338 337 338 338 337 336 336 336 336 335 333 329 330 339 340 345 351 352
348 351 352 357 356 355 354 353 351 350 349 348 347 346 345 344 343 342 340 338 337 337 338 337 337 338 339 340 340 340 339 338 338 338 339 337 335 329 340 344 345 352 353
346 348 351 356 355 355 354 353 351 350 349 348 347 346 346 345 344 342 342 340 339 339 339 339 339 340 340 340 339 340 343 342 342 342 344 339 334 336 343 345 349 351 354
345 347 348 356 355 355 354 354 351 350 348 348 347 347 346 345 344 343 342 339 340 340 340 341 342 342 342 342 343 343 342 343 343 342 340 343 338 339 344 346 351 353 353
345 348 347 355 355 354 354 353 351 350 349 348 347 347 347 346 345 344 344 342 341 342 343 343 344 343 343 344 344 343 343 344 342 342 340 341 339 339 343 348 352 352 351
345 346 346 349 353 354 354 353 351 349 349 348 347 347 347 347 345 345 344 344 344 345 345 345 344 344 345 345 343 342 341 342 342 342 341 341 336 338 342 346 347 351 352
343 344 343 346 349 348 348 353 351 350 349 348 348 347 347 347 346 345 344 345 345 345 345 346 345 345 346 344 342 341 340 340 339 341 342 342 338 339 340 343 346 348 351
339 342 343 343 348 348 345 347 352 351 350 349 348 348 345 340 342 342 342 345 346 346 347 346 346 347 346 343 341 340 338 337 336 336 337 339 340 341 340 340 344 345 348
339 340 341 344 345 347 343 347 348 347 345 346 345 345 344 343 343 339 342 345 346 347 346 346 347 346 344 341 339 338 337 337 336 335 336 338 340 341 340 340 342 345 347
333 341 341 343 346 346 345 345 346 347 347 347 346 347 348 344 343 341 340 342 342 345 343 346 346 345 343 341 339 338 337 334 334 336 335 337 339 340 340 340 341 344 347
328 333 341 344 343 346 345 344 344 344 345 344 344 347 346 342 342 341 338 339 342 339 343 345 345 346 345 343 340 338 337 337 336 336 337 336 338 340 340 340 341 344 344
327 331 333 341 344 345 346 344 344 344 343 343 342 345 345 341 342 341 339 338 339 339 340 343 344 344 344 342 339 338 337 337 338 338 339 337 338 340 341 340 341 343 343
329 329 332 333 346 345 344 346 345 344 344 342 341 344 346 343 343 339 339 337 337 337 337 341 343 342 342 340 338 338 338 338 338 339 339 340 338 339 340 340 343 343 343
328 332 335 333 341 346 347 346 344 342 341 341 340 343 343 344 342 341 337 338 338 338 341 341 341 341 339 339 338 338 338 339 338 339 339 339 337 337 340 340 341 344 343
329 331 334 328 335 347 347 345 343 342 340 340 340 341 342 343 342 340 337 337 339 339 337 337 339 336 337 337 337 337 337 337 338 339 337 338 338 337 339 339 343 343 342
332 334 333 333 331 343 346 345 345 344 340 340 340 340 341 341 340 339 338 339 339 336 336 338 338 338 337 337 336 337 338 336 337 338 336 337 338 338 338 340 341 340 340
332 334 334 332 333 339 341 344 342 341 340 341 340 341 341 341 340 341 339 337 337 335 336 337 339 338 337 338 335 332 333 335 336 336 336 336 336 338 339 339 339 337 340
332 333 337 333 334 333 337 337 338 337 340 340 341 342 342 342 342 341 338 339 338 335 338 340 340 337 335 334 329 329 331 334 335 334 335 334 335 336 338 340 338 344 336
329 332 335 332 332 337 338 340 341 341 339 339 340 343 344 342 342 341 340 338 339 336 341 339 338 331 330 330 328 325 321 326 330 332 333 333 335 335 335 337 332 337 339
327 330 331 332 332 339 342 341 341 340 336 336 338 337 340 341 342 341 341 339 339 340 338 340 336 332 331 326 328 326 320 318 325 329 330 330 330 332 338 338 336 334 339
326 326 326 330 332 337 343 341 340 339 334 337 336 337 337 342 342 341 340 340 341 338 334 336 337 332 332 327 324 327 327 326 320 320 327 329 327 333 336 337 336 336 337
322 322 326 332 336 338 341 342 340 340 340 341 340 339 340 343 342 340 341 342 340 334 335 338 336 333 331 329 326 325 325 326 329 325 317 320 324 329 332 330 331 334 339
323 333 335 336 339 339 340 342 342 341 339 338 339 338 339 340 340 341 341 341 340 336 337 335 335 334 332 330 329 328 325 323 323 325 322 316 318 325 328 329 335 339 337

GFSSE_sfc_thetae_036.txt.gz
Theta_e
342 351 360 360 359 358 356 356 357 358 359 360 360 359 357 356 354 351 350 347 346 343 341 339 338 336 336 336 335 335 335 335 336 336 338 343 345 347 351 351 354 353 355
344 350 359 358 358 358 357 355 355 356 356 357 358 357 355 353 351 348 346 343 343 340 338 336 335 333 334 335 335 334 334 333 333 332 333 336 338 341 344 351 352 353 354
345 351 356 357 357 357 357 355 354 354 354 354 354 353 352 350 348 346 345 341 340 337 336 335 334 334 335 335 335 335 335 335 334 333 335 330 334 339 342 346 351 351 353
349 353 347 357 357 357 356 355 354 354 353 353 353 352 351 350 348 344 342 339 338 337 336 337 337 337 337 337 337 337 336 336 336 336 334 331 327 333 339 341 343 351 352
352 354 348 357 356 356 355 354 354 353 353 353 352 351 350 348 346 344 343 341 338 338 339 339 338 338 339 339 339 339 339 338 338 339 337 335 333 331 338 342 346 350 352
351 352 354 356 356 356 355 354 353 352 352 351 351 349 348 347 345 344 343 343 341 339 340 339 339 340 341 341 341 342 344 342 343 342 342 339 333 337 341 344 347 349 354
348 350 353 356 355 356 355 354 353 351 350 349 349 348 348 347 345 344 344 343 341 341 341 341 341 342 342 342 342 342 342 344 344 342 340 342 338 339 342 346 348 352 352
346 349 349 357 356 355 355 353 352 351 350 349 348 348 348 347 346 345 345 344 344 345 343 343 344 344 344 344 345 344 344 344 343 342 342 341 341 338 341 345 350 355 352
346 348 348 352 354 356 354 353 352 350 349 348 347 347 347 347 346 345 345 345 345 346 347 347 345 345 344 345 344 343 342 342 341 342 341 343 339 337 340 344 347 350 349
346 347 349 351 350 348 349 354 353 351 350 348 348 348 347 347 347 346 345 345 346 347 347 347 345 345 345 345 344 342 342 341 339 339 341 343 341 338 339 342 345 345 347
343 349 349 348 351 348 343 346 353 352 351 350 349 349 347 342 343 341 341 344 347 347 347 345 345 346 346 346 343 341 340 340 339 337 337 343 341 341 340 340 342 344 343
340 344 348 352 350 350 343 347 350 347 347 346 344 344 343 342 342 338 341 346 347 347 346 346 346 347 346 343 343 341 340 340 338 337 336 342 340 342 342 341 341 344 344
332 335 345 351 354 351 348 345 346 347 345 345 345 348 347 341 343 339 339 341 343 345 344 345 347 345 345 343 340 340 338 339 335 335 337 339 339 341 341 340 341 342 347
331 334 343 350 353 354 349 347 347 346 347 345 345 351 347 344 346 343 338 340 341 340 342 345 344 346 345 345 342 340 340 339 338 338 340 339 339 340 341 340 341 342 344
331 335 337 341 352 353 355 350 351 349 347 348 346 347 346 342 346 342 341 338 340 340 340 343 343 345 343 345 343 341 339 339 340 339 339 341 339 340 342 342 342 341 343
331 334 337 338 347 353 352 355 354 354 351 349 347 346 349 345 347 341 342 338 338 339 339 340 342 342 343 343 342 342 341 339 340 341 339 341 340 340 341 341 341 341 343
332 335 338 341 344 351 354 353 353 350 350 348 347 351 348 350 350 347 339 339 337 341 343 341 344 344 342 342 341 341 341 341 340 340 341 339 339 339 340 341 341 342 343
335 335 338 336 337 346 355 351 349 348 347 347 347 348 348 350 348 346 339 338 338 340 338 338 340 339 339 340 346 345 339 339 339 341 342 340 340 338 340 342 341 341 342
334 338 338 340 339 346 351 348 351 354 348 346 346 347 349 348 347 345 341 338 347 337 338 336 336 338 338 343 341 341 338 338 340 340 340 341 342 340 337 341 341 343 344
333 338 342 342 346 345 343 346 344 346 347 346 346 347 348 348 347 346 343 342 341 337 337 335 338 340 340 340 338 335 338 338 338 339 339 341 342 340 340 340 340 337 341
331 339 343 345 351 342 337 339 342 341 344 345 346 349 348 348 347 347 343 343 341 337 338 341 340 342 341 341 336 333 333 337 337 336 338 340 340 338 339 343 341 340 338
332 339 343 346 347 344 339 344 344 345 345 346 346 346 348 348 347 345 346 343 342 336 338 340 342 342 340 339 332 330 323 328 332 334 338 340 339 341 338 339 338 342 342
329 337 337 342 343 345 346 346 347 348 347 344 343 343 344 346 345 344 344 344 342 339 336 346 345 341 334 336 337 329 323 320 328 332 334 337 338 339 340 340 339 340 341
326 330 334 339 340 342 349 350 351 343 340 342 344 341 342 344 343 343 346 344 343 339 345 342 342 341 340 332 331 332 332 329 323 322 330 333 336 335 336 337 340 338 338
325 327 334 336 337 342 347 350 346 346 344 346 344 338 342 344 344 346 347 346 344 344 346 343 341 341 338 332 330 328 330 329 330 325 321 327 331 335 336 338 341 341 339
324 325 329 337 341 344 347 348 349 348 347 344 345 340 342 343 345 346 346 347 348 346 344 341 342 340 336 334 331 330 327 327 325 327 326 324 325 327 333 335 337 340 341

GFSSE_sfc_thetae_039.txt.gz
Theta_e
342 354 361 361 360 358 360 361 362 363 363 363 362 361 360 359 357 354 352 350 348 346 344 341 339 337 336 336 335 335 335 336 336 337 341 345 347 349 351 351 353 352 355
343 355 359 360 360 358 359 360 361 362 361 362 362 360 359 357 355 354 350 347 345 342 340 338 336 335 333 333 333 332 332 331 331 331 332 337 343 345 346 351 350 353 355
344 355 355 359 359 358 357 358 359 360 360 361 360 359 357 356 353 351 349 346 343 341 339 336 334 334 333 334 333 333 333 333 333 332 333 328 341 346 343 346 350 352 353
348 354 347 359 359 359 357 355 356 357 358 358 358 357 355 354 352 348 346 343 341 339 337 336 335 336 337 337 337 336 336 336 337 338 332 327 327 344 342 342 344 351 352
350 354 350 358 358 358 357 355 354 354 355 356 355 354 353 352 351 348 346 343 340 339 338 338 339 338 339 338 338 338 338 338 340 339 337 332 332 337 342 341 346 350 351
349 352 356 356 357 357 357 356 355 354 354 353 353 353 352 351 350 347 345 344 342 340 340 341 340 339 340 342 341 342 343 343 344 344 341 338 334 337 339 342 345 348 353
348 351 356 356 356 357 357 356 355 354 354 353 353 352 351 350 348 346 345 344 342 341 341 341 341 341 342 341 341 342 342 343 344 343 341 341 340 340 339 343 346 348 350
345 350 355 356 356 356 356 354 353 353 352 352 352 351 350 348 347 346 345 344 345 345 344 343 343 343 343 343 344 345 346 346 344 342 343 341 342 339 340 344 348 351 352
343 346 352 357 354 356 355 354 353 352 351 350 349 348 348 348 347 347 346 346 346 347 347 346 346 344 345 345 345 345 343 343 340 339 342 343 344 340 338 342 348 348 350
341 343 345 357 351 349 350 355 353 352 351 350 349 349 348 348 348 347 345 346 347 347 347 348 347 346 345 346 346 344 343 343 339 337 339 342 343 340 339 341 345 346 347
339 344 346 349 352 349 344 348 353 352 351 350 350 349 347 340 341 340 341 344 347 348 348 348 348 347 346 347 346 344 342 339 340 339 338 346 344 341 339 340 342 345 343
337 342 346 352 352 351 344 348 351 346 347 346 343 344 343 342 341 337 340 345 347 347 348 348 347 347 346 342 345 344 340 340 338 338 338 344 342 340 340 340 342 343 344
337 339 343 357 359 355 349 345 349 350 348 349 348 348 348 340 342 340 339 339 343 345 342 344 345 345 343 342 341 342 340 339 337 335 340 342 340 339 340 342 341 342 345
333 335 338 349 358 363 351 348 347 346 351 348 348 352 347 344 345 346 339 340 345 341 342 344 342 346 345 345 343 340 340 339 336 337 340 342 339 338 339 340 340 342 343
333 335 338 347 357 360 362 351 352 351 349 352 349 352 350 345 346 343 345 341 343 339 340 342 344 347 346 345 342 341 340 340 340 338 339 344 341 340 341 342 342 341 343
334 335 337 339 360 361 359 362 360 360 354 354 351 353 354 349 349 345 345 342 340 341 340 341 343 342 344 342 342 344 342 341 342 343 339 342 343 342 342 342 343 342 342
333 337 345 347 352 363 364 361 357 351 354 350 350 362 358 355 353 351 345 342 341 344 350 347 348 344 342 341 342 342 346 346 340 341 340 340 341 343 343 341 341 341 342
338 341 346 336 346 358 361 358 354 349 348 349 349 351 357 358 356 355 344 343 345 343 341 340 338 338 339 338 340 342 343 342 340 339 339 339 344 339 341 342 341 341 343
340 342 343 348 342 356 359 351 354 358 350 346 347 348 357 355 353 352 346 346 351 342 341 338 338 341 338 336 340 342 344 340 338 337 339 341 341 342 337 341 342 343 344
342 346 349 347 353 358 348 356 344 343 345 347 347 348 357 353 352 353 348 350 348 341 339 339 341 338 336 337 339 339 340 339 338 339 339 344 342 340 342 342 336 338 344
339 343 347 347 353 347 339 338 337 339 343 347 348 357 354 352 352 351 346 349 348 342 343 347 340 340 336 341 340 335 334 339 340 336 339 342 340 338 339 341 341 340 338
337 342 344 347 351 353 342 346 342 346 344 347 348 354 353 351 351 351 351 349 349 341 348 345 344 334 338 341 333 330 323 328 333 336 335 340 339 339 338 339 339 343 335
335 340 340 347 352 355 352 347 352 352 352 346 348 348 350 350 350 349 349 350 350 346 337 344 343 344 337 338 339 330 322 322 332 337 335 338 339 342 339 341 339 341 340
332 334 340 345 351 352 358 345 355 345 343 344 348 348 346 349 348 347 347 348 347 342 343 342 344 345 341 334 337 334 335 330 324 322 332 333 338 338 338 339 335 340 342
330 334 338 345 351 352 353 353 348 351 345 346 346 350 346 347 347 344 346 347 348 343 351 350 347 344 340 335 331 332 331 328 330 324 323 328 334 338 334 338 340 344 339
325 327 336 343 347 350 349 354 358 356 355 346 347 340 341 343 343 346 346 348 349 349 349 347 345 344 341 340 332 333 327 325 326 327 327 328 328 332 333 333 340 342 338

GFSSE_sfc_thetae_042.txt.gz
Theta_e
345 352 361 360 358 361 362 363 364 364 363 362 361 361 361 360 358 356 354 352 352 349 346 343 341 340 339 337 336 337 337 337 337 337 341 346 349 352 352 352 352 352 354
347 352 360 359 358 360 362 362 363 363 363 362 362 361 360 359 357 356 353 351 350 345 342 339 337 337 336 335 334 334 333 332 332 332 333 336 345 348 350 351 350 354 354
347 351 355 358 357 358 361 362 362 362 362 362 361 361 359 357 356 354 352 349 347 342 339 337 335 334 334 334 334 334 335 334 333 336 334 327 340 349 348 350 351 353 354
348 349 351 359 357 357 360 360 361 361 361 361 361 359 358 356 355 352 349 346 344 340 338 335 334 335 336 336 336 336 336 336 338 339 333 328 330 349 348 346 346 350 351
350 346 352 359 358 357 357 358 358 359 359 360 360 358 357 355 353 351 348 347 342 339 337 336 336 338 338 337 337 337 338 339 341 340 335 333 332 344 345 345 348 349 351
350 346 357 358 358 357 356 356 357 357 358 358 357 357 355 353 352 350 348 346 344 340 339 339 341 340 339 340 341 341 343 345 346 341 342 335 334 343 341 343 345 346 349
349 348 355 357 358 358 358 356 355 355 355 355 355 355 353 352 351 349 347 346 345 344 342 342 343 343 343 342 342 342 343 344 342 339 341 339 336 342 339 340 343 348 350
346 349 354 357 357 357 357 355 354 354 353 353 353 353 352 351 349 348 347 346 346 346 346 345 345 345 345 345 344 345 346 346 343 339 340 341 342 344 340 341 345 350 353
345 352 353 352 355 357 355 355 354 353 353 352 352 351 351 350 348 347 346 346 346 346 347 346 346 347 346 346 346 346 345 343 339 335 336 341 345 345 342 342 344 348 352
342 350 354 353 350 349 350 355 354 353 352 351 351 350 350 349 348 347 345 345 346 347 347 347 347 348 348 347 348 348 345 344 339 336 334 341 346 343 341 342 344 346 349
338 341 354 354 351 346 345 349 354 353 352 351 350 350 347 343 343 341 343 343 347 347 348 348 348 348 348 348 349 348 345 338 336 337 337 346 345 343 341 342 342 344 349
335 339 348 355 350 346 341 346 350 350 349 348 345 345 344 341 338 338 341 343 346 347 348 348 349 348 347 341 342 346 341 337 336 336 341 348 347 344 341 340 341 342 347
336 339 344 354 354 349 346 348 348 345 345 345 344 342 343 340 338 338 336 337 343 345 342 344 344 343 340 340 339 341 340 339 337 334 343 347 346 342 341 341 341 342 346
335 334 344 356 357 355 349 350 351 348 347 345 344 342 341 339 337 337 336 337 337 338 337 338 339 340 340 341 341 342 340 338 336 337 343 346 344 341 339 341 342 342 346
338 339 343 356 357 361 363 357 352 349 349 347 346 344 341 341 338 337 339 339 337 338 337 336 339 340 341 341 342 341 338 339 339 338 339 346 343 343 340 340 340 341 342
342 354 346 355 361 361 359 361 365 357 353 351 347 347 345 342 342 340 338 339 341 338 339 337 338 341 342 343 343 341 341 342 341 341 340 341 344 344 344 343 343 343 342
338 344 347 351 363 361 360 360 358 358 353 354 351 354 347 346 345 341 341 339 338 342 339 340 338 342 342 344 341 342 341 342 339 339 341 339 340 344 344 345 344 343 342
343 344 351 339 356 362 360 358 358 353 354 353 352 355 354 349 346 348 342 341 342 340 343 339 341 339 340 339 339 338 341 341 340 339 340 336 339 337 342 344 344 344 342
340 343 346 348 348 359 361 357 358 357 356 353 354 351 357 352 349 346 346 345 345 341 338 340 339 338 338 339 337 342 341 339 340 340 336 335 338 339 338 342 342 343 343
346 351 351 351 354 360 355 354 349 349 350 351 350 353 357 353 351 349 349 344 348 341 340 340 337 339 338 337 334 337 339 339 339 337 334 338 338 337 337 337 336 336 341
344 349 349 349 351 355 352 345 341 341 342 347 350 354 357 354 351 350 346 349 346 342 340 342 341 339 335 335 337 335 336 338 335 335 338 338 336 337 337 337 336 333 335
344 345 346 349 352 352 347 344 347 345 340 345 351 354 357 355 352 351 348 346 345 344 342 344 340 333 333 338 333 331 324 327 332 335 334 336 334 336 335 336 335 335 334
340 343 345 346 347 349 345 345 347 347 353 354 351 352 354 353 352 349 348 346 346 343 340 342 339 336 330 339 338 330 321 318 324 331 331 332 334 334 333 334 335 334 332
337 341 347 346 345 345 349 346 344 340 339 347 351 351 351 352 351 349 347 347 349 342 343 339 339 335 337 333 334 335 333 329 320 318 328 330 333 333 331 332 331 334 333
330 331 337 344 346 345 346 347 342 345 346 354 353 353 349 352 349 347 346 346 345 343 343 338 339 340 340 335 331 331 330 329 328 322 317 322 329 331 331 329 326 330 334
324 328 335 337 338 345 347 351 349 348 347 346 349 346 344 345 343 344 344 344 344 344 345 342 343 340 337 335 333 332 328 324 323 322 320 321 321 325 330 331 331 333 333

GFSSE_sfc_thetae_045.txt.gz
Theta_e
343 354 360 361 362 363 365 365 364 363 362 362 361 361 360 359 358 356 354 354 353 350 346 345 343 341 339 337 336 336 336 336 335 335 339 346 350 353 355 354 354 349 354
345 354 359 358 361 363 364 364 364 363 362 362 362 361 360 358 356 355 353 352 351 346 343 341 339 338 337 336 334 334 333 332 330 329 330 332 345 349 352 351 352 352 354
346 352 354 358 360 362 363 363 363 362 362 362 361 360 359 357 355 353 352 350 347 343 340 338 336 335 335 335 336 335 335 334 334 334 332 325 333 348 351 353 351 352 351
346 349 349 357 359 362 362 362 361 362 362 362 361 360 358 357 355 352 349 346 344 341 339 336 335 335 337 337 337 337 336 336 338 340 334 331 324 349 348 349 351 349 350
345 346 349 357 358 361 362 361 360 361 361 361 360 359 357 356 354 352 349 347 343 341 338 336 336 337 338 338 338 337 338 340 343 343 335 332 335 346 347 346 348 350 351
342 346 355 356 356 359 361 361 360 360 361 361 360 358 356 355 354 351 349 347 345 340 339 339 340 340 340 340 340 341 343 344 344 341 340 336 332 348 345 345 346 346 349
338 347 353 356 356 356 359 359 359 359 359 359 359 358 356 355 353 351 349 346 345 344 342 342 344 344 344 344 343 344 342 344 342 339 337 336 335 345 344 343 345 346 348
339 349 351 357 357 355 355 357 357 357 357 357 357 356 355 354 352 350 349 347 346 347 346 346 346 345 346 346 346 347 346 347 343 338 334 334 339 345 342 343 344 348 350
344 347 347 352 355 357 355 354 353 354 354 354 354 353 353 352 351 350 348 347 347 347 347 347 347 347 347 347 347 348 346 344 337 335 334 335 345 347 342 343 345 349 351
347 347 347 347 350 351 351 355 353 353 352 351 352 352 352 352 350 349 346 346 347 347 347 347 347 347 348 347 348 348 347 345 337 336 333 336 347 345 343 344 346 350 353
347 346 346 345 346 346 347 351 353 353 353 352 351 351 349 343 343 342 344 345 347 347 348 348 348 348 348 348 347 347 348 337 336 334 333 347 348 346 344 344 345 348 351
343 346 345 344 343 340 344 345 346 346 346 345 344 343 341 336 335 340 342 346 346 347 348 348 348 348 347 340 340 345 342 338 335 333 334 348 348 346 343 343 343 346 348
341 348 348 345 343 338 338 341 345 344 343 342 339 338 338 338 334 338 332 338 336 344 339 343 343 343 340 338 337 336 339 338 335 334 341 348 349 347 344 342 342 343 345
335 345 348 345 341 338 337 342 342 340 340 340 340 338 338 335 333 329 331 331 332 336 335 334 336 338 336 336 337 335 338 337 336 332 341 349 348 347 343 342 342 342 344
332 339 341 347 343 341 339 343 342 340 340 338 339 339 338 336 332 331 329 330 330 334 334 332 333 335 335 336 337 337 338 337 334 333 338 348 346 345 343 341 342 342 342
329 332 333 333 347 345 344 344 343 343 342 341 341 340 338 337 333 331 330 331 331 333 334 332 331 333 335 336 336 337 337 334 334 333 334 339 344 344 345 342 341 341 342
329 330 334 341 346 348 347 347 350 346 345 343 342 341 339 336 336 333 332 332 332 333 331 333 330 332 335 337 337 338 337 335 334 333 336 335 337 344 345 345 345 344 343
329 328 337 348 351 350 348 347 347 348 347 345 345 344 342 339 337 336 335 332 333 332 332 332 331 330 332 336 335 335 336 335 334 333 333 334 334 337 342 345 344 344 343
328 329 332 340 351 351 351 350 348 346 344 344 344 345 346 342 339 340 336 336 333 333 333 332 332 331 329 330 331 330 333 332 333 335 335 335 338 337 334 339 343 343 343
325 325 330 332 346 350 352 348 346 345 345 345 344 344 346 345 343 338 340 337 336 335 331 331 329 330 328 331 331 329 332 333 332 333 332 334 334 335 336 333 334 336 341
328 333 332 332 336 344 341 340 338 338 336 338 340 341 344 348 344 342 340 339 339 335 332 331 329 327 328 328 326 327 330 332 331 331 330 330 332 333 333 332 332 332 335
324 332 332 331 333 339 339 335 332 331 332 333 337 341 343 347 347 343 341 340 337 336 332 332 331 327 327 326 322 324 319 322 327 328 329 330 329 332 333 333 332 332 332
326 332 332 332 333 334 334 333 332 332 331 335 336 338 342 346 346 345 341 340 338 336 334 332 330 326 323 324 330 324 319 317 319 323 324 325 328 329 329 330 332 334 332
326 330 330 332 333 335 335 330 331 330 329 328 336 340 342 345 345 344 342 340 340 338 334 333 332 328 327 324 328 330 328 326 314 312 321 324 327 327 327 326 328 330 332
324 324 330 333 332 331 334 333 332 329 331 333 338 340 340 341 343 343 341 339 339 340 338 334 331 329 329 328 326 328 326 322 320 316 311 317 322 324 325 325 326 328 329
313 319 319 328 331 330 332 335 332 332 333 335 339 338 337 337 339 342 343 342 340 339 338 334 333 331 331 330 330 326 322 321 318 317 313 314 315 318 324 323 323 324 330

GFSSE_sfc_thetae_048.txt.gz
Theta_e
342 351 362 364 364 364 364 364 362 362 361 361 360 359 359 358 357 356 354 354 354 351 348 346 344 341 339 337 335 335 335 334 334 335 339 347 351 352 352 353 353 350 352
342 351 361 363 364 364 363 363 362 361 360 361 360 359 358 357 355 355 353 352 352 347 345 343 341 338 337 334 332 332 330 330 329 330 330 332 345 348 351 352 352 349 351
344 350 356 361 363 364 363 362 361 360 360 361 360 358 357 356 354 352 352 351 348 344 341 340 338 337 336 335 334 333 333 333 334 334 332 324 327 347 351 350 351 351 351
346 348 350 360 362 363 362 362 361 361 361 360 360 358 357 356 354 351 349 347 344 342 340 338 336 336 337 337 337 336 335 336 337 338 333 332 325 349 348 349 351 350 350
344 346 347 359 360 362 362 361 360 360 360 360 360 359 357 356 355 352 350 347 344 341 339 337 337 338 339 339 339 338 337 340 343 343 337 334 328 347 348 348 350 350 350
342 343 351 358 359 361 361 361 360 360 360 360 360 359 357 356 354 352 349 348 346 342 340 339 340 340 340 340 340 340 341 343 343 337 337 336 335 350 348 349 350 350 351
338 340 350 357 359 360 361 361 360 360 359 360 359 359 357 356 354 351 349 347 346 344 341 341 344 344 344 342 342 343 342 343 341 339 337 336 332 349 348 346 347 348 350
336 341 348 356 358 358 359 359 359 359 359 359 358 358 357 356 354 351 350 348 347 346 346 346 346 345 345 346 344 344 343 346 343 338 335 332 336 347 344 345 345 346 348
338 342 345 348 354 358 358 357 358 357 357 357 357 356 356 355 353 351 349 348 348 347 347 347 347 346 346 346 345 347 346 346 338 335 335 332 342 347 344 342 343 346 348
342 341 345 347 348 348 350 357 356 356 356 355 355 355 355 354 352 351 348 348 347 347 347 347 348 347 346 347 347 347 346 347 338 335 334 331 345 345 344 343 344 348 351
342 340 343 346 346 346 345 349 354 355 355 354 354 354 350 345 344 344 345 345 347 347 347 347 348 347 347 346 346 346 346 339 337 334 333 338 348 346 345 345 346 349 350
339 340 340 342 344 344 347 345 344 345 345 345 345 344 342 338 337 340 343 345 347 347 347 348 348 347 346 339 339 344 338 339 337 334 332 342 349 346 346 345 345 347 349
340 341 341 338 340 340 340 343 344 342 342 342 341 340 338 337 336 339 334 338 336 344 337 342 342 342 338 337 337 334 336 338 336 334 335 345 349 348 346 345 343 345 347
341 342 341 339 336 335 335 340 340 340 340 340 339 337 337 334 331 331 331 332 331 333 333 333 336 337 337 337 336 334 333 335 336 334 333 347 348 349 346 344 343 343 345
341 345 344 341 338 335 333 337 339 337 338 338 338 337 337 334 331 330 330 328 329 331 332 331 333 335 335 335 336 334 334 335 336 333 333 348 347 347 347 344 343 342 343
336 340 342 341 344 342 335 337 338 337 336 334 335 336 336 335 331 330 327 328 328 331 332 332 331 331 332 333 333 333 334 335 334 332 334 341 346 346 346 346 343 342 342
331 332 336 337 337 339 340 339 338 338 338 336 336 337 336 335 333 329 328 327 329 329 330 331 328 328 329 332 332 333 334 336 338 333 333 335 340 344 345 345 346 344 343
329 329 328 335 334 342 342 342 341 340 341 340 339 339 338 336 334 331 329 327 329 329 330 330 328 326 329 330 331 332 334 338 336 334 332 334 333 337 342 345 344 345 343
324 327 327 330 337 344 345 345 346 345 343 343 342 340 339 338 335 334 331 331 329 330 329 329 328 327 325 327 331 331 331 334 332 333 332 333 333 335 334 340 343 343 343
326 324 327 326 331 344 346 345 344 342 345 341 343 342 342 340 338 335 334 332 330 330 330 328 328 329 325 328 331 330 331 331 330 330 331 333 331 338 333 332 335 336 341
321 323 321 327 333 342 342 342 342 341 341 339 341 342 343 344 340 335 336 333 333 330 330 330 327 327 326 328 325 323 326 330 329 330 329 328 329 332 332 332 331 331 333
316 322 324 326 336 344 344 344 341 342 336 341 342 341 341 344 343 340 336 336 335 333 329 329 328 324 325 325 321 320 317 321 323 328 326 327 328 329 331 331 330 330 330
312 317 327 327 335 343 343 341 330 331 329 329 330 331 335 342 344 341 338 338 336 336 331 329 328 326 323 323 325 322 316 315 319 324 325 323 325 325 327 328 330 330 330
317 321 326 329 329 338 337 334 332 328 325 325 326 333 334 342 343 342 340 339 338 335 333 330 330 326 326 323 326 328 325 323 318 316 320 320 323 325 325 325 326 329 330
315 324 326 326 327 329 331 331 331 323 324 324 330 331 333 338 342 343 340 336 337 335 333 332 331 329 329 327 327 326 324 325 322 316 310 314 320 322 323 323 323 325 328
311 319 325 326 327 328 327 326 324 324 325 327 330 332 333 335 338 340 340 338 338 338 334 333 333 331 329 330 329 327 324 323 321 318 311 312 313 318 320 321 323 324 325

GFSSE_sfc_thetae_051.txt.gz
Theta_e
337 349 363 364 363 363 363 363 361 361 360 359 359 358 358 357 358 357 356 355 355 353 351 347 344 342 340 338 337 336 335 334 335 336 343 349 352 353 353 352 352 349 352
341 352 363 363 363 363 363 362 361 360 360 359 359 358 357 357 356 355 354 353 353 349 347 344 342 339 337 335 333 332 331 330 329 329 330 334 346 350 351 352 352 349 351
339 353 360 363 363 363 362 361 360 359 359 359 358 358 357 356 354 354 353 352 349 347 344 342 339 338 336 334 333 333 333 334 334 333 332 322 327 347 350 350 352 350 350
341 352 357 362 363 362 362 360 359 360 360 359 358 357 357 356 354 352 351 349 346 344 342 340 338 337 336 336 335 335 335 336 337 338 332 331 326 347 349 350 352 350 348
342 350 353 362 362 362 361 360 359 359 359 359 358 357 357 356 354 352 351 349 345 343 341 339 337 337 338 338 337 336 336 339 343 342 337 334 330 340 348 349 350 350 349
340 346 356 360 361 361 361 360 359 359 359 359 359 358 357 356 354 352 351 349 347 343 341 339 340 340 340 339 338 338 340 341 342 337 336 337 327 345 348 349 350 350 350
339 341 353 359 360 361 361 360 359 359 358 358 359 358 357 356 355 353 351 348 347 346 342 341 342 344 343 341 340 341 341 342 340 338 336 333 333 347 348 349 350 350 350
336 339 348 357 359 359 360 359 358 358 358 358 357 357 357 356 354 352 350 348 348 347 346 344 345 345 345 344 342 343 343 344 342 337 334 331 335 344 347 349 348 348 350
334 339 344 350 356 359 359 358 358 357 357 357 356 356 356 356 354 352 350 349 348 348 347 346 347 346 345 344 344 344 344 345 339 334 335 331 338 344 344 346 343 345 347
331 337 340 346 351 352 354 358 358 357 357 356 356 356 356 355 354 352 349 348 348 348 347 347 348 347 346 346 346 345 344 345 338 335 334 332 340 343 345 344 342 346 348
335 334 338 342 344 346 347 353 357 358 357 356 356 356 353 349 348 346 347 346 348 348 347 348 348 348 346 345 344 344 345 337 337 335 333 337 342 345 346 346 347 347 348
333 335 338 340 342 342 345 344 346 350 351 351 350 350 347 342 340 342 345 346 348 347 347 347 348 348 345 337 338 343 338 336 337 336 334 340 343 347 347 347 347 346 348
332 335 338 339 339 340 338 339 339 340 342 343 342 344 342 338 338 340 334 338 336 344 335 341 340 340 336 336 336 334 334 334 335 336 336 342 346 348 348 346 346 345 349
334 335 335 337 338 336 334 339 338 338 338 338 338 337 336 333 331 332 332 331 332 331 331 331 333 335 334 335 335 334 333 332 333 334 334 342 345 347 347 347 345 344 346
336 337 337 335 334 335 329 335 335 336 336 335 335 336 335 332 330 329 330 328 328 328 329 329 330 332 333 333 334 335 333 332 332 334 332 341 345 347 348 347 345 344 344
339 341 340 337 336 334 331 332 335 335 334 332 333 335 335 332 330 328 327 327 325 327 329 329 329 329 329 331 332 333 333 332 333 334 333 333 345 345 346 347 346 344 343
339 343 341 339 338 334 332 332 335 335 335 333 332 334 335 333 330 329 326 326 326 327 327 328 326 326 326 328 329 330 330 332 333 333 331 332 338 345 345 345 345 346 343
330 339 342 343 341 338 335 334 336 337 337 335 334 333 334 334 332 329 327 325 325 326 327 328 325 323 325 326 327 329 329 331 334 336 335 333 336 338 341 345 344 345 344
326 327 333 339 339 338 338 338 338 337 337 338 337 336 336 335 334 331 329 327 325 326 327 327 325 325 322 324 327 328 329 331 334 337 334 335 333 334 332 339 342 342 343
325 325 324 324 328 331 337 338 338 340 340 340 340 339 338 337 336 333 332 328 327 326 326 326 325 325 323 325 328 329 328 329 330 332 331 332 331 333 332 332 331 335 342
323 323 324 324 324 327 335 336 336 337 340 341 341 341 340 339 337 333 333 329 328 327 327 327 325 324 323 325 323 321 323 327 328 328 328 328 329 331 331 331 329 329 332
316 321 323 323 325 325 336 338 336 337 339 341 342 340 341 341 338 335 333 332 330 329 326 328 326 322 324 325 322 319 316 319 322 326 325 326 326 328 330 330 330 330 329
311 315 320 322 324 326 336 337 329 331 329 332 332 335 338 339 340 338 335 334 332 332 328 328 328 325 322 323 325 321 314 313 314 320 322 325 323 323 325 328 329 329 328
306 310 316 320 321 325 328 336 336 336 334 333 335 335 333 337 339 340 337 336 334 334 330 329 329 328 328 324 326 329 326 324 317 313 319 322 321 323 323 324 325 327 328
305 307 312 319 322 324 332 338 337 335 329 323 323 328 329 332 337 340 339 336 335 334 333 330 329 329 330 328 328 326 326 324 322 316 316 313 318 320 322 322 322 324 326
308 304 309 319 323 325 332 335 336 334 326 323 324 325 326 329 333 337 337 336 336 334 333 332 334 331 330 330 329 328 326 324 320 318 314 310 312 315 318 321 320 321 323

GFSSE_sfc_thetae_054.txt.gz
Theta_e
333 352 362 364 363 362 362 361 360 360 360 361 361 362 361 361 361 361 360 358 358 355 353 350 347 345 343 341 339 338 337 337 338 341 349 352 353 353 353 351 351 350 351
336 354 362 363 363 363 362 361 360 359 358 359 359 359 359 359 359 358 357 356 356 352 350 346 344 341 339 337 334 333 332 332 332 332 334 341 348 351 351 350 351 349 351
338 354 359 362 363 362 361 360 360 359 358 358 357 357 357 357 356 356 355 354 352 349 346 344 341 339 337 335 334 334 335 335 335 334 334 324 334 348 350 350 351 349 349
340 353 357 362 362 362 360 360 359 358 358 358 357 357 357 356 355 354 353 352 349 347 344 342 340 338 336 336 336 337 337 338 339 342 335 334 329 345 348 349 351 349 347
342 352 356 362 361 362 360 359 358 358 358 358 357 357 356 355 355 353 353 352 348 345 342 341 339 339 338 338 338 338 339 342 344 339 339 338 337 334 347 350 351 350 348
342 351 356 360 360 360 360 359 358 359 358 358 357 357 356 355 354 352 352 351 349 344 343 341 342 341 340 339 339 339 341 342 343 340 340 338 333 335 348 348 349 350 350
342 347 354 360 360 360 360 360 359 358 358 357 358 357 356 355 354 352 352 351 349 348 344 343 344 345 344 341 340 341 341 342 342 341 340 338 336 343 348 348 349 350 349
340 343 353 360 360 359 359 358 358 357 357 357 357 357 356 355 354 353 351 350 349 348 347 345 345 345 345 344 342 343 341 343 342 339 337 336 338 341 348 349 350 348 349
336 341 349 354 357 360 358 357 357 357 356 356 356 356 355 355 354 352 351 350 349 348 347 346 346 346 345 344 343 343 342 343 341 340 337 337 338 341 345 348 346 345 347
331 338 342 348 352 354 355 358 357 357 356 355 355 355 355 355 354 353 349 348 349 349 348 347 347 347 346 345 345 344 343 343 342 340 338 336 339 342 344 349 345 345 347
331 333 337 344 347 349 351 355 357 358 357 356 356 356 353 351 351 349 348 348 349 348 348 348 348 348 347 344 343 343 343 341 340 340 338 338 340 343 345 349 347 347 347
329 332 335 338 341 344 349 350 352 352 353 352 352 352 351 349 346 346 348 347 348 348 348 348 348 348 345 340 341 343 341 340 340 340 339 341 342 344 347 348 348 348 347
329 334 337 337 339 343 343 343 345 344 350 349 349 349 348 343 343 345 340 343 341 346 339 344 344 343 339 339 338 338 338 338 337 338 339 342 343 344 348 349 348 348 348
329 332 334 338 339 337 336 339 340 342 339 340 340 341 339 335 335 336 335 335 335 336 336 335 336 339 338 337 338 337 337 336 336 336 337 341 344 345 347 350 348 347 347
328 332 333 335 337 338 333 337 338 338 339 338 337 337 337 334 332 332 332 331 332 332 332 332 333 334 335 336 337 337 336 336 335 335 336 340 344 345 347 348 349 346 346
333 334 334 334 337 337 334 336 336 337 336 336 336 337 337 334 331 330 329 329 329 330 330 331 331 331 332 334 335 336 336 336 335 335 336 337 341 344 347 349 348 347 345
332 337 336 335 335 333 333 332 334 336 335 335 335 336 336 334 332 330 329 328 328 329 329 330 330 330 330 331 333 333 335 335 335 335 336 336 338 342 346 346 346 346 347
332 339 340 339 335 333 332 331 332 333 333 333 333 335 336 335 333 330 328 327 328 327 328 329 328 327 327 328 329 330 332 333 334 336 339 340 339 342 342 345 345 345 345
328 336 339 340 337 334 333 331 330 334 335 335 334 333 333 334 334 332 329 328 327 326 327 328 327 328 326 326 328 329 331 332 333 337 339 338 338 338 341 339 342 343 344
321 326 331 340 340 338 337 335 335 335 336 336 336 336 335 334 334 332 330 329 327 326 326 327 327 327 327 328 328 330 331 332 334 335 338 338 339 338 338 337 339 340 343
313 321 323 325 330 330 331 333 333 333 335 335 337 338 337 337 336 333 332 329 328 327 327 327 328 327 326 328 327 327 329 330 331 334 336 335 335 336 336 338 337 337 337
308 311 318 322 324 327 332 336 336 336 336 337 339 340 339 339 337 335 333 331 329 329 328 327 328 326 327 328 326 325 323 327 328 331 332 332 333 334 334 336 336 336 336
305 307 310 315 322 323 324 333 332 333 333 335 336 338 340 340 339 338 335 335 332 331 328 328 328 327 325 326 329 327 318 320 321 326 327 330 331 331 332 334 334 335 335
307 306 308 311 315 319 323 326 332 332 332 335 337 338 337 340 340 339 337 336 333 333 330 329 331 329 328 325 326 329 329 326 321 320 324 326 328 328 330 331 332 333 334
307 306 306 307 311 316 320 324 327 331 333 335 329 333 332 337 339 340 339 336 335 334 334 331 330 329 330 329 330 328 328 328 326 322 321 322 324 327 329 330 330 331 331
305 306 307 306 309 317 319 323 327 331 332 325 326 329 329 331 333 337 339 337 336 335 334 332 332 331 330 331 331 331 328 327 323 321 321 320 321 324 325 328 328 329 330

GFSSE_sfc_thetae_057.txt.gz
Theta_e
338 355 361 363 363 362 363 364 364 364 364 363 363 363 362 361 362 362 362 361 360 357 355 353 350 348 346 343 341 339 339 340 344 350 353 354 353 353 353 351 350 349 351
341 355 362 362 363 362 362 363 363 363 363 363 363 363 362 362 362 361 360 359 358 354 353 349 347 344 341 339 336 335 334 334 335 336 341 350 352 352 351 349 349 349 350
344 357 361 362 362 362 361 361 361 361 361 362 362 361 361 361 360 359 358 357 355 352 349 346 344 341 338 336 335 335 336 336 335 335 333 338 344 350 350 349 350 348 349
349 361 358 361 362 362 360 359 359 359 360 360 360 360 359 359 358 357 357 355 352 349 347 344 341 339 338 338 338 338 339 340 343 339 332 337 337 346 348 349 351 349 346
348 356 360 362 361 361 360 359 357 358 358 358 358 358 357 357 356 356 355 354 351 347 345 343 341 340 340 340 339 340 341 344 345 342 343 344 342 340 347 349 350 350 347
347 351 360 361 361 361 360 359 358 357 357 357 357 357 356 356 355 354 354 353 351 347 344 344 344 343 341 341 340 341 343 344 341 344 347 343 341 340 348 347 349 349 348
344 349 358 361 361 361 360 359 358 358 357 357 357 357 357 355 354 354 353 352 351 349 348 346 345 346 345 342 341 342 343 344 342 346 347 346 344 339 348 346 347 349 349
343 348 353 361 360 360 359 358 358 357 357 357 357 357 356 355 354 353 353 352 351 350 348 347 346 346 346 345 343 343 343 343 342 343 344 346 339 339 347 346 346 347 348
343 346 352 356 360 360 358 358 357 357 356 356 355 355 355 355 354 353 352 351 350 350 348 347 347 347 346 345 344 344 343 344 342 342 338 340 337 340 343 347 346 345 345
341 342 348 353 356 357 357 358 358 357 356 356 356 356 355 355 354 353 350 350 351 350 349 348 348 347 346 346 346 344 343 344 343 341 342 340 339 340 343 346 346 345 343
337 343 348 351 354 355 353 355 357 358 357 356 356 356 354 352 352 351 348 349 350 350 349 349 348 348 347 344 343 343 343 342 341 343 343 339 340 342 344 346 348 346 345
333 339 345 351 352 354 352 355 356 355 356 356 356 357 355 354 354 350 350 348 350 350 349 349 349 349 345 340 340 343 340 342 342 342 343 341 343 343 345 348 350 348 347
333 336 341 349 353 352 350 353 354 354 355 354 355 355 355 352 353 352 349 348 347 347 341 343 342 340 340 341 339 340 340 343 341 340 342 342 344 345 345 349 351 349 348
333 335 340 344 349 351 349 349 351 350 353 350 351 353 351 347 349 350 347 347 348 344 343 341 339 340 341 341 340 339 339 339 338 339 341 341 344 346 347 349 350 349 348
334 335 337 343 345 348 348 346 349 349 350 349 349 351 351 348 347 348 347 345 344 343 341 340 339 339 339 339 338 338 337 338 339 339 339 340 342 345 347 348 350 348 347
337 335 338 340 347 346 345 345 347 348 349 348 347 348 350 348 347 344 345 343 342 341 340 339 338 337 336 336 336 338 338 337 338 339 337 339 342 344 346 348 350 350 347
337 339 340 342 344 347 347 343 344 343 344 343 344 347 345 347 346 345 341 340 340 340 342 340 339 338 336 335 335 336 337 339 339 339 339 338 341 343 343 347 350 348 346
331 337 344 340 340 345 345 343 340 342 340 340 341 342 343 343 343 341 339 337 338 339 337 336 336 334 333 334 334 335 337 339 340 341 340 340 344 345 345 346 348 348 348
327 338 344 344 339 343 341 341 340 344 340 341 340 340 341 341 341 338 337 337 340 337 335 335 335 335 334 334 334 336 338 338 340 339 340 344 347 348 347 346 344 345 345
322 328 340 347 347 344 338 337 337 338 341 340 341 340 337 339 339 338 336 339 339 336 335 336 337 337 336 335 333 334 338 338 340 341 342 344 348 348 349 348 347 343 343
319 321 324 335 351 349 343 338 335 333 336 337 339 343 337 339 341 339 337 333 336 336 340 340 338 338 336 337 334 335 336 339 340 341 343 344 344 346 347 347 346 344 344
317 321 321 324 333 345 347 347 345 343 339 341 341 347 347 343 342 341 339 338 338 339 341 341 339 337 337 338 334 336 329 334 337 340 342 343 344 344 344 345 344 345 345
317 319 320 322 324 331 343 346 346 345 345 342 344 346 346 345 344 343 345 343 341 343 340 341 341 340 337 338 339 337 328 326 333 337 339 341 343 342 343 344 343 344 345
314 316 319 322 323 323 332 337 345 341 340 344 344 346 348 347 346 346 347 346 345 343 345 343 342 342 341 337 335 339 337 336 328 326 334 336 339 339 341 341 341 342 343
313 314 317 320 323 326 326 333 335 342 344 346 345 351 354 349 350 348 350 348 346 345 346 345 343 341 340 338 336 335 336 335 333 329 326 329 333 336 338 338 339 340 341
312 312 315 317 322 325 325 328 332 336 340 339 342 342 343 344 347 350 350 349 349 348 346 345 344 343 341 340 340 339 335 332 330 329 329 331 331 334 335 337 337 338 339

GFSSE_sfc_thetae_060.txt.gz
Theta_e
338 355 363 364 364 365 366 366 365 364 363 362 362 362 362 361 362 363 362 361 361 359 356 354 352 351 349 346 343 342 344 347 352 354 355 353 354 354 353 351 350 349 351
342 356 363 363 364 365 365 366 365 364 363 362 362 362 362 362 363 362 362 361 360 356 354 352 349 346 344 340 338 336 336 338 340 345 352 353 353 352 350 349 350 350 350
343 357 362 362 363 364 365 365 364 364 363 363 362 362 362 362 362 362 361 360 358 354 352 348 346 343 340 337 335 335 335 335 335 336 335 341 343 351 350 349 350 347 348
347 358 357 361 362 364 364 363 362 363 363 363 363 362 362 362 361 360 359 357 355 352 349 346 343 340 338 337 337 338 338 339 340 335 332 337 338 347 349 349 350 348 345
350 357 357 361 361 362 363 362 362 362 362 362 362 362 362 361 360 358 357 357 353 349 347 343 341 341 340 339 339 340 342 346 344 343 341 343 343 345 347 348 351 350 347
350 353 361 360 360 361 362 361 361 361 361 361 361 361 360 359 358 357 356 355 353 349 346 344 344 343 342 341 341 342 344 344 344 343 347 342 344 349 346 347 348 348 348
348 350 363 360 360 361 361 360 360 360 359 359 360 359 359 357 356 356 355 354 353 351 348 346 345 346 346 343 342 343 343 344 345 345 347 349 345 343 348 346 347 349 348
344 349 359 362 360 360 360 359 358 357 357 357 357 357 357 356 355 355 354 353 352 351 350 348 346 346 346 345 343 343 343 344 339 344 345 346 342 340 349 345 346 347 347
343 346 355 359 362 360 359 358 358 357 356 356 356 355 356 355 355 354 353 353 352 352 350 348 348 347 346 344 344 344 344 344 345 341 340 342 343 342 345 347 346 345 344
341 344 350 354 357 357 358 359 358 358 357 356 356 356 356 355 354 353 351 351 352 352 350 349 348 348 346 345 344 344 343 344 341 340 340 342 339 340 344 347 347 345 342
339 342 347 349 354 353 350 355 358 358 357 357 357 356 354 349 352 351 348 351 352 352 350 350 349 348 346 343 343 344 343 339 341 340 342 342 339 342 344 346 347 347 345
337 339 344 350 351 351 346 352 355 354 356 356 355 355 352 350 351 347 349 351 351 351 351 350 350 348 344 337 339 342 339 338 340 338 342 344 342 343 345 347 348 349 347
336 340 343 351 354 351 348 349 350 350 352 354 355 356 355 352 353 350 348 350 347 347 341 343 343 340 339 339 338 339 338 340 339 338 341 344 344 345 346 347 350 351 350
337 336 341 348 354 357 350 350 349 347 350 351 353 358 355 353 353 351 346 346 348 344 344 341 339 341 341 341 340 337 338 337 336 336 340 345 345 346 348 348 350 351 351
336 340 339 345 352 354 356 349 349 348 349 351 351 355 354 351 350 350 349 346 345 344 342 343 340 340 340 341 339 337 336 337 337 336 336 346 344 344 347 349 349 350 350
336 339 341 343 351 352 353 355 352 353 352 352 348 351 354 351 350 347 348 347 345 344 341 341 340 339 339 338 338 339 338 338 337 339 336 338 344 344 346 348 350 350 350
334 339 346 347 347 351 354 353 350 348 348 348 347 353 353 354 353 353 345 345 343 346 347 344 343 341 339 338 338 337 339 340 339 340 340 339 339 343 345 346 348 351 350
326 332 344 342 345 352 352 352 347 343 345 344 345 346 351 353 352 352 344 343 342 343 342 341 340 339 339 339 339 339 340 341 342 344 343 343 339 338 345 347 348 350 350
325 330 338 348 343 348 352 348 350 351 345 341 344 344 347 349 349 348 343 342 347 340 340 340 340 342 342 341 340 341 342 342 344 343 344 344 342 346 346 348 348 347 348
324 328 331 344 348 349 347 349 344 342 342 341 341 340 344 345 346 348 342 343 342 339 339 340 346 345 344 343 341 341 342 344 345 344 345 342 345 349 350 351 350 346 345
325 328 332 330 341 350 340 339 338 338 340 340 341 346 346 348 347 349 341 342 344 344 344 344 346 346 344 345 342 342 343 346 347 344 345 344 346 348 350 352 352 346 344
323 326 328 330 332 337 349 351 347 343 340 340 342 346 348 346 346 346 349 345 347 336 346 349 349 344 345 346 340 340 336 340 343 344 344 344 346 346 346 349 349 347 347
319 321 323 327 332 333 336 344 352 352 351 345 343 342 345 348 345 348 349 347 346 344 342 352 350 350 343 344 347 341 334 331 338 342 344 344 347 347 346 347 348 348 349
316 319 322 325 328 330 333 335 346 345 345 344 349 346 346 353 349 350 351 349 351 349 354 352 351 349 349 344 344 345 348 343 333 330 339 343 345 345 346 342 344 346 347
317 318 322 324 326 329 333 335 332 340 338 344 349 355 356 357 353 350 353 354 355 352 356 357 353 351 349 345 344 343 344 342 341 334 329 333 338 340 342 343 341 341 344
316 319 321 322 324 326 329 332 335 335 338 337 344 347 348 350 353 354 352 357 357 356 355 354 355 353 352 350 347 346 342 338 337 335 332 333 333 342 339 341 341 340 340

GFSSE_sfc_thetae_063.txt.gz
Theta_e
347 355 364 365 367 367 367 365 364 364 362 362 363 363 362 362 362 363 363 362 362 360 358 357 355 353 350 347 345 346 350 353 354 355 354 354 354 354 351 350 352 348 353
350 354 362 364 366 367 367 366 364 363 362 362 363 362 362 362 363 363 362 361 360 357 355 353 350 348 345 342 339 339 339 342 348 352 354 354 353 351 349 350 350 350 351
352 354 360 363 365 367 366 365 364 363 362 363 363 362 362 363 363 362 361 360 358 355 353 350 347 344 340 337 335 335 335 335 336 338 349 350 342 350 349 349 349 347 348
355 357 355 363 365 366 366 365 363 363 363 362 362 362 363 363 362 361 360 358 356 353 350 347 344 341 338 336 336 335 335 335 336 340 335 338 340 348 348 349 349 347 346
353 357 356 362 364 365 365 364 363 363 363 363 362 362 363 362 361 360 359 358 354 351 348 345 342 340 339 338 339 339 339 342 340 339 341 342 342 344 348 347 350 349 345
349 355 359 360 363 364 364 364 363 363 363 363 363 363 362 362 360 359 358 357 355 350 347 344 342 341 341 340 340 340 343 346 346 346 346 341 345 349 346 345 345 346 347
346 354 361 360 362 363 364 363 363 363 362 362 362 362 362 360 358 358 357 356 355 352 347 345 344 345 343 341 341 343 343 345 345 344 344 346 347 351 346 344 346 346 347
345 352 361 359 360 360 361 361 360 360 361 361 361 360 360 358 357 357 356 355 354 352 350 347 346 346 345 343 342 343 343 344 344 341 343 345 342 344 349 345 346 346 346
345 348 359 355 359 360 359 359 359 358 358 358 357 357 357 357 356 356 354 354 353 352 351 349 349 347 346 344 344 344 344 345 343 342 339 342 346 345 346 348 346 345 344
344 345 354 352 355 355 356 359 358 358 358 357 356 356 356 356 355 355 353 353 353 352 351 350 349 348 347 346 345 345 344 344 339 338 339 343 348 345 346 348 348 346 345
341 344 351 349 351 351 349 356 358 358 357 357 356 356 354 347 350 351 348 352 353 352 351 351 349 349 347 344 344 345 344 337 337 340 338 346 345 342 345 347 348 349 347
339 341 346 352 350 350 344 353 353 352 352 353 351 354 350 350 351 345 348 353 352 352 352 351 350 349 344 335 338 342 338 336 336 338 338 349 344 343 345 347 349 350 349
340 340 343 355 359 352 346 349 349 347 349 351 352 356 355 349 352 347 347 347 347 349 341 344 342 340 338 337 335 341 340 339 338 338 342 349 346 346 346 348 349 351 352
337 340 342 349 355 361 346 346 348 344 349 348 350 359 358 351 357 356 346 348 353 343 345 342 341 345 342 340 340 338 337 337 336 336 342 349 348 347 348 348 349 351 353
334 340 341 348 357 359 364 349 350 348 348 348 350 355 354 352 358 354 354 347 348 345 344 345 342 344 342 342 340 339 338 337 338 337 339 350 348 348 347 348 350 350 352
334 340 344 345 358 359 359 365 357 356 353 351 350 354 357 355 358 350 352 347 346 344 343 344 345 343 342 341 341 341 341 339 340 343 338 341 346 346 346 346 350 351 351
334 340 348 349 351 359 361 360 356 353 350 351 351 362 360 360 360 357 348 347 346 349 358 352 349 345 341 341 344 341 340 344 341 343 341 342 341 345 345 347 349 351 352
326 330 344 342 348 354 354 356 351 351 352 350 349 351 357 360 359 358 347 346 346 348 344 344 344 341 340 341 346 343 343 345 346 348 345 345 343 342 344 346 348 350 352
327 330 337 348 346 353 355 354 355 357 350 349 348 348 355 356 356 355 349 347 356 346 344 345 342 345 343 344 343 345 346 344 348 345 348 348 348 346 341 345 347 349 350
327 331 333 340 354 352 354 355 349 349 347 349 347 346 351 353 353 355 348 350 350 343 343 342 349 346 344 346 344 344 348 346 350 350 350 347 347 344 347 350 348 346 347
326 328 331 332 343 348 349 345 345 344 346 346 346 346 350 350 348 351 346 349 348 345 342 352 347 344 344 350 345 343 346 351 350 347 350 349 347 345 350 352 350 348 349
320 331 330 329 334 339 349 345 345 343 344 345 347 348 348 348 351 351 347 349 349 342 350 348 348 343 345 349 343 340 334 339 347 349 348 348 349 347 350 350 350 351 343
320 320 323 328 330 336 343 347 351 350 350 345 342 341 346 347 350 350 349 347 350 347 345 347 347 352 339 348 354 341 331 328 336 347 348 345 351 347 348 348 349 346 346
317 319 321 326 329 332 335 339 346 349 348 348 347 347 348 346 349 347 349 346 347 347 348 349 352 352 354 345 347 348 350 346 336 331 342 347 347 349 353 346 346 344 349
316 320 322 325 328 330 332 341 334 338 339 348 352 358 359 353 350 347 344 345 347 351 353 355 358 361 352 349 347 344 347 343 348 339 333 336 341 342 346 345 344 344 346
317 317 320 323 325 328 329 331 336 337 339 336 340 346 352 349 352 350 350 353 355 353 355 360 356 360 357 355 351 347 343 340 338 339 335 338 337 340 341 343 340 340 348

GFSSE_sfc_thetae_069.txt.gz
Theta_e
353 363 366 366 365 365 365 364 363 363 362 362 362 362 362 362 362 362 362 362 362 362 359 357 354 351 349 347 347 351 355 356 356 354 354 355 353 353 356 354 355 350 352
355 362 366 365 365 365 364 363 363 362 362 361 362 362 362 362 362 361 361 361 360 359 357 354 351 348 344 342 341 343 345 350 354 355 353 353 352 351 352 352 353 351 350
355 361 364 365 365 364 364 363 362 362 362 361 361 362 362 362 361 361 360 359 359 355 353 351 348 344 341 338 336 338 340 341 344 347 351 347 346 350 351 351 349 350 350
355 358 361 365 364 364 363 362 361 361 362 361 361 362 362 362 361 360 360 359 357 352 350 347 344 341 339 336 335 337 339 340 343 343 335 339 342 349 350 350 349 347 348
351 354 361 365 364 364 363 362 361 361 361 361 361 362 362 361 360 359 359 358 356 351 348 345 343 342 340 339 339 342 343 345 347 344 332 330 336 349 350 351 349 347 349
348 354 363 364 363 363 363 362 361 361 361 361 361 362 362 361 359 358 358 357 355 351 347 345 345 344 343 341 342 343 345 347 347 341 340 341 336 352 353 352 351 349 350
346 355 360 363 364 364 364 363 361 361 361 361 361 362 361 360 359 358 357 356 354 353 349 346 346 345 345 344 342 344 345 344 339 337 337 337 340 350 353 350 350 350 349
345 354 358 363 363 363 362 362 361 361 361 361 361 361 360 359 358 358 357 356 354 353 351 349 347 346 345 344 344 345 346 345 340 337 336 339 344 350 353 351 351 349 348
349 352 354 359 362 363 362 361 361 360 360 359 359 359 359 358 357 356 356 355 354 352 351 349 348 346 346 346 345 346 347 344 338 337 336 337 350 352 353 352 351 350 349
351 351 352 356 358 358 358 361 360 360 360 359 359 358 357 357 356 355 352 353 353 352 351 349 349 347 347 347 346 347 347 346 337 335 332 336 351 355 355 352 352 351 350
350 348 349 352 355 355 356 358 359 361 359 358 358 357 354 348 349 351 350 352 353 352 351 350 349 348 348 348 347 347 344 337 336 333 331 345 350 353 355 354 353 352 351
346 346 346 348 350 350 356 354 354 356 355 353 352 352 347 344 344 347 348 352 352 352 351 351 350 349 348 338 334 344 337 336 335 331 330 350 351 354 354 353 353 353 353
335 342 343 346 346 345 349 352 352 352 351 350 349 348 344 343 343 342 339 342 342 349 343 346 345 343 339 335 332 328 336 334 332 331 335 351 351 354 354 353 353 353 352
328 339 341 344 344 342 349 348 346 347 347 346 345 346 343 339 336 340 339 339 339 339 338 334 336 336 336 333 332 330 333 333 334 333 335 351 349 352 352 353 352 352 352
322 338 341 343 341 341 347 345 344 344 344 343 342 345 344 338 339 341 339 338 339 339 338 334 333 334 333 334 332 332 332 332 331 332 336 351 348 350 353 353 352 351 351
324 331 343 345 344 343 346 346 341 339 342 343 343 345 346 341 338 343 342 343 342 341 339 336 334 334 334 335 335 335 334 333 333 333 334 342 349 348 351 353 354 352 352
325 334 337 346 349 346 350 350 350 342 343 342 343 344 345 346 340 340 344 342 342 342 340 338 338 338 336 336 333 334 336 335 335 334 333 335 341 348 348 350 353 354 354
322 325 333 341 349 345 346 347 348 349 346 343 344 345 347 344 348 346 345 343 341 341 340 338 335 333 332 331 330 331 333 335 336 335 334 335 335 338 345 348 349 351 352
322 324 329 335 345 347 348 350 347 348 348 347 346 348 347 346 349 349 344 342 343 340 340 339 336 334 332 332 333 334 336 337 336 337 337 336 336 338 337 343 347 347 348
322 324 325 331 340 347 347 346 347 345 346 345 344 345 349 350 349 346 345 343 341 341 337 336 336 336 333 333 338 338 336 339 337 337 338 339 339 339 338 338 340 342 346
324 325 325 329 342 343 344 342 340 341 342 340 340 342 342 347 350 347 344 342 343 340 336 335 334 333 333 338 334 333 336 339 339 339 340 339 341 341 340 340 338 338 342
322 322 322 326 330 340 343 341 340 339 339 341 340 341 341 343 345 347 346 343 342 339 337 335 333 332 333 336 333 332 328 329 335 340 339 341 341 341 340 338 341 341 340
319 319 321 321 325 327 333 340 337 336 339 338 339 339 339 340 342 344 344 345 341 340 338 338 335 332 331 334 335 332 323 318 330 334 339 339 339 339 339 339 342 341 342
318 318 318 320 320 322 324 329 337 333 329 333 333 337 340 340 341 342 342 344 343 341 339 337 337 335 336 331 333 342 330 334 325 323 336 338 340 339 339 338 340 342 342
312 315 318 319 318 319 320 324 328 329 331 335 336 336 336 338 340 340 339 343 342 340 340 337 336 336 337 334 334 334 332 334 334 329 322 331 335 338 339 337 337 339 339
308 311 313 317 318 319 319 319 322 325 328 329 331 331 336 337 338 339 339 338 342 341 339 339 337 340 341 340 339 332 327 321 320 324 326 332 327 332 337 338 336 337 336

GFSSE_sfc_thetae_072.txt.gz
Theta_e
355 360 365 365 364 364 363 363 362 361 360 361 361 361 361 361 361 362 362 362 362 361 358 356 352 350 348 347 348 351 354 354 355 353 354 353 353 354 355 356 353 350 351
358 361 364 364 364 364 363 363 361 361 360 360 361 361 360 361 361 361 361 361 361 358 356 352 349 347 344 341 340 343 347 352 354 354 352 351 350 352 353 353 352 349 349
358 361 362 364 364 364 362 362 361 360 360 360 360 360 360 360 360 360 360 360 359 355 352 350 347 343 339 336 335 338 339 341 344 347 351 345 344 349 351 350 350 350 348
358 360 360 364 364 363 362 361 360 360 360 360 360 361 360 359 360 359 359 358 355 352 350 347 344 340 337 335 334 336 339 341 342 339 332 337 343 348 349 350 348 349 349
357 359 360 364 363 363 362 360 360 359 359 360 361 361 360 359 358 358 358 357 354 350 348 345 342 340 338 337 337 341 342 344 343 343 335 329 329 347 349 349 348 347 348
354 358 363 363 362 362 361 360 360 360 359 360 361 360 360 359 358 358 357 356 354 350 347 344 342 342 340 337 340 341 342 345 345 337 336 337 335 352 352 352 351 348 350
351 357 361 362 362 362 361 360 360 360 359 360 360 360 360 358 357 357 357 356 354 351 347 344 344 345 343 341 339 342 344 343 337 334 334 336 335 351 355 353 351 349 348
349 356 360 363 362 361 361 360 359 359 359 359 360 360 359 358 357 357 356 355 354 352 350 347 346 345 344 343 343 344 345 344 339 336 335 334 339 351 354 353 352 351 348
351 353 358 359 361 361 360 359 359 358 358 358 358 358 358 357 357 356 355 354 353 351 350 349 347 346 345 345 344 345 345 344 336 335 335 331 345 350 354 353 353 351 350
349 350 354 357 357 355 357 360 359 358 358 357 358 357 357 357 356 355 351 352 353 351 349 349 348 346 346 345 345 345 345 344 336 334 331 330 345 350 354 353 353 352 351
348 347 350 355 354 353 354 357 359 360 359 357 358 357 353 348 349 350 350 352 352 351 350 349 348 347 346 346 346 346 344 334 334 334 330 337 345 352 355 354 353 352 351
344 344 347 351 353 351 353 355 356 356 355 355 354 353 348 344 343 347 348 351 351 351 350 350 349 348 346 337 334 340 336 334 334 333 330 341 346 353 356 355 354 353 352
345 345 345 347 351 352 351 353 352 354 353 352 351 348 345 343 342 343 339 342 341 348 341 345 343 342 339 336 334 330 329 333 332 332 332 342 347 352 355 355 354 353 351
343 343 344 346 347 347 351 350 349 349 349 348 349 346 343 339 337 336 336 336 337 338 338 335 336 336 337 336 333 330 328 330 331 331 331 343 348 354 356 356 353 353 351
332 338 342 344 343 340 347 349 349 348 348 347 346 346 343 337 336 337 335 336 336 336 336 334 333 332 332 332 332 330 329 330 332 332 330 344 350 350 353 355 354 352 352
328 336 341 343 341 340 344 343 346 347 347 345 344 345 343 339 336 334 336 336 335 336 336 336 334 331 331 331 332 332 331 331 332 331 331 332 349 348 350 353 354 354 353
328 333 339 341 342 341 344 341 341 343 343 342 343 343 344 338 335 338 337 338 338 338 337 336 334 334 331 333 332 333 333 333 333 333 332 332 337 348 348 350 353 355 354
326 330 332 343 342 343 344 344 341 341 341 342 342 342 344 343 337 334 341 340 340 341 339 336 336 334 333 332 330 330 330 331 333 334 333 332 332 337 345 349 350 352 353
321 325 330 336 343 342 345 346 344 340 341 341 342 342 343 344 346 340 338 341 341 339 338 337 335 333 331 331 330 330 330 332 334 337 334 333 332 334 335 341 347 348 349
320 323 327 333 339 344 344 345 345 344 344 341 341 343 343 344 344 346 344 341 340 339 338 335 335 335 332 330 333 334 333 334 336 336 337 336 335 336 337 336 337 343 347
318 318 322 333 338 341 341 337 336 341 341 342 341 344 347 345 345 345 345 343 339 337 337 335 333 332 331 335 332 331 332 335 335 336 337 335 338 340 338 338 337 337 338
318 318 321 325 330 338 341 339 336 336 338 340 341 341 341 346 348 345 343 341 340 339 338 335 332 331 331 333 327 328 328 326 331 336 337 338 338 340 341 340 338 338 337
316 315 317 319 322 324 330 337 335 334 335 335 337 339 340 340 344 347 345 343 341 340 339 336 334 330 329 331 333 328 322 317 322 328 331 336 338 338 339 339 338 339 339
314 315 316 317 317 318 320 324 332 329 326 329 333 336 337 339 339 342 344 344 343 341 340 337 337 334 329 330 333 335 331 323 321 319 329 332 338 338 338 338 339 340 340
314 313 314 315 315 315 316 321 323 324 328 331 332 331 333 338 339 340 340 342 343 341 340 338 335 333 332 333 332 331 332 333 331 325 320 318 330 336 338 339 339 339 340
312 313 314 314 314 315 316 315 317 319 321 325 326 327 332 335 335 338 338 337 339 339 338 338 336 333 333 335 336 335 332 327 324 321 317 317 321 330 336 338 337 336 337

GFSSE_sfc_thetae_075.txt.gz
Theta_e
351 358 364 364 364 363 362 362 362 362 362 362 362 362 361 361 361 361 361 362 361 360 357 355 352 350 349 349 351 353 353 354 354 354 353 353 353 354 355 354 351 348 348
354 357 363 362 364 363 362 362 361 361 361 361 361 361 361 361 361 361 361 361 360 357 355 352 349 347 345 343 345 349 352 354 355 352 351 350 351 352 354 352 351 348 348
355 359 360 363 364 363 362 361 360 360 360 360 360 360 360 361 361 360 360 360 359 356 353 350 348 344 340 338 338 340 343 345 349 351 349 343 343 349 350 351 350 348 347
356 358 359 363 363 363 361 360 359 359 359 359 359 360 360 360 360 360 359 358 356 353 350 348 344 341 338 337 336 339 340 340 341 339 331 334 342 347 348 348 349 349 348
355 358 359 363 362 362 360 359 358 358 359 359 359 359 359 358 358 358 358 357 353 351 349 346 342 341 339 337 339 340 342 344 344 342 336 332 329 341 348 348 348 348 349
355 357 361 362 362 361 360 360 359 358 359 359 359 359 358 358 357 357 357 355 354 349 347 344 343 342 341 339 340 341 343 343 342 334 334 335 334 347 350 350 349 347 349
354 356 360 362 361 361 360 360 359 358 358 359 359 359 358 357 357 357 356 354 352 349 346 343 343 344 343 341 340 342 343 342 336 333 332 331 334 348 353 353 352 349 349
353 356 357 361 361 360 359 359 358 357 358 358 358 358 357 356 356 356 355 354 353 351 348 344 344 343 344 343 342 343 343 342 337 334 333 329 339 347 352 354 352 350 348
352 355 356 358 359 360 359 359 358 357 357 357 357 357 357 356 356 355 354 354 352 351 349 347 345 344 343 343 342 343 343 342 335 334 334 330 337 346 350 354 351 350 349
350 354 354 355 357 355 356 359 358 357 357 356 357 357 356 356 355 355 351 352 352 350 349 347 346 345 344 344 344 343 343 342 333 332 331 329 339 344 350 355 353 352 351
346 351 352 352 354 353 354 356 357 358 358 356 356 356 353 349 349 350 349 351 352 351 349 349 347 346 345 345 345 344 343 333 332 332 331 336 340 342 350 355 353 352 350
342 346 350 351 352 349 354 354 353 354 353 352 352 352 348 345 344 347 348 351 352 351 350 349 348 348 346 335 332 337 331 331 332 332 331 340 344 346 351 355 354 352 351
343 346 348 349 350 348 349 352 352 353 352 352 350 349 344 343 343 343 339 342 340 347 340 344 342 340 336 334 333 331 329 327 329 331 333 342 344 345 351 356 356 353 351
342 343 348 349 348 347 347 350 350 350 350 349 350 346 342 339 336 336 334 333 334 335 336 335 336 335 335 336 334 331 329 327 329 330 331 342 345 348 350 356 355 353 351
340 342 345 348 348 348 349 349 348 348 348 349 348 345 342 337 335 334 332 332 333 333 334 333 332 332 332 332 333 331 330 328 328 330 330 340 345 349 352 356 356 354 353
339 340 343 345 348 347 347 347 347 348 348 347 347 346 343 338 332 332 333 332 333 334 333 334 333 331 330 330 330 331 330 329 329 329 330 330 342 349 351 353 355 354 354
330 336 340 343 345 344 347 346 346 347 347 346 345 345 345 339 334 332 332 333 334 334 334 334 333 332 330 330 330 331 331 332 332 332 332 330 333 345 349 350 352 354 355
326 334 338 343 342 341 344 345 344 345 345 345 345 344 344 342 337 334 333 334 337 336 336 335 335 333 332 332 331 331 331 330 330 331 332 332 331 333 344 349 350 352 353
327 331 336 338 339 338 340 342 342 340 339 341 341 341 342 343 339 334 335 337 337 337 337 337 335 334 331 330 330 329 329 329 330 334 334 335 332 333 333 341 348 349 350
323 327 332 339 338 337 341 341 340 339 341 340 339 340 340 342 342 338 335 334 338 337 336 335 334 333 332 330 331 332 331 333 333 333 336 337 334 334 334 334 335 341 348
319 323 328 334 338 341 340 338 338 337 337 339 341 341 341 341 342 342 341 340 338 338 337 337 334 333 331 333 330 329 330 332 332 334 333 333 335 337 336 335 335 335 338
315 317 324 332 335 338 339 338 336 335 336 339 339 341 345 343 341 342 342 341 341 338 336 335 332 330 330 333 327 328 324 327 326 330 332 335 336 337 339 338 337 336 336
313 316 322 326 328 329 334 335 332 332 333 333 334 335 337 343 346 343 342 341 341 340 339 337 334 331 330 330 330 327 319 318 318 323 328 331 332 336 337 338 337 338 338
314 313 317 320 319 320 326 330 331 330 327 329 330 334 334 338 338 344 344 343 341 340 338 337 337 335 331 330 331 333 330 324 322 320 324 328 330 333 334 336 338 339 339
312 311 313 314 313 314 317 319 323 324 328 329 329 329 329 333 336 337 339 337 340 340 340 338 335 334 331 330 329 329 331 331 326 325 323 323 322 327 334 335 336 338 339
311 310 311 311 311 312 313 317 319 319 318 322 323 325 326 329 331 334 336 336 337 335 332 332 338 335 332 331 331 331 330 327 325 327 325 326 321 325 330 334 336 337 337

GFSSE_sfc_thetae_078.txt.gz
Theta_e
348 358 363 363 363 362 363 364 364 363 363 362 362 362 361 361 361 362 361 361 361 359 357 355 353 352 351 351 352 354 355 355 354 353 353 353 353 354 354 352 350 347 348
353 358 363 363 363 362 363 363 363 362 362 362 362 361 361 361 361 361 361 361 360 357 355 353 350 348 347 349 352 353 354 354 355 352 350 350 353 354 353 351 350 347 347
353 358 361 362 363 362 362 361 361 361 361 361 361 360 360 360 361 361 360 360 359 356 353 351 348 345 342 343 346 349 352 353 353 352 349 344 345 350 351 350 349 348 347
354 356 357 363 362 362 361 360 360 361 360 360 360 360 360 360 360 360 360 359 356 354 351 349 345 341 340 340 340 343 343 343 344 341 336 339 344 348 349 350 350 348 348
354 357 356 362 361 361 360 359 359 359 359 360 360 360 360 360 359 359 359 358 354 352 350 346 343 342 341 340 342 344 346 346 346 341 338 338 334 339 349 348 349 349 349
353 355 360 362 361 361 360 359 359 359 359 359 359 359 359 359 358 357 357 356 354 350 347 344 342 343 342 340 343 344 345 345 342 336 337 337 342 340 350 349 348 348 349
351 355 360 362 361 361 360 359 358 358 358 358 359 358 358 357 357 356 356 354 353 350 347 343 343 344 343 342 342 344 345 343 337 336 335 335 338 347 352 352 352 349 349
351 354 357 360 360 359 359 359 358 357 358 358 358 357 357 356 356 356 355 354 353 351 348 345 345 344 342 340 341 343 343 341 337 336 335 333 341 344 350 354 354 350 348
353 353 354 355 358 359 359 358 357 356 356 357 356 356 355 356 355 355 354 354 353 351 349 347 345 344 342 341 342 343 342 340 337 336 334 334 335 341 347 355 352 350 349
351 351 352 353 356 355 355 358 357 356 356 356 356 356 355 355 355 355 352 352 352 351 349 347 345 344 343 343 343 343 342 341 335 333 334 333 338 341 346 352 354 353 351
350 349 351 351 352 354 353 355 357 356 356 356 356 356 352 350 351 351 350 351 352 351 349 348 347 345 344 343 345 344 343 336 334 333 334 337 340 342 345 353 355 354 352
344 347 349 350 350 351 353 353 352 353 353 352 352 352 349 346 346 347 349 351 352 351 350 348 348 346 345 338 335 337 331 331 331 332 334 339 343 343 346 352 355 354 353
343 346 348 349 350 350 350 351 351 352 352 350 350 348 345 344 345 345 342 346 345 349 342 346 344 342 339 337 335 334 333 332 331 332 334 341 345 346 349 353 356 356 353
341 345 348 348 349 348 350 350 349 349 350 350 348 348 342 340 339 340 339 338 338 338 338 337 337 338 337 337 336 335 334 333 332 333 334 341 344 346 348 353 356 357 354
339 343 347 348 347 348 347 350 348 347 348 347 347 347 344 340 338 337 336 334 334 335 335 335 335 335 335 335 335 335 334 333 333 333 334 339 344 346 348 353 356 357 355
340 341 346 346 347 348 347 347 347 347 348 348 347 347 345 341 337 335 334 333 332 334 335 335 335 334 334 334 334 334 334 334 335 335 335 336 340 343 345 352 356 358 356
340 341 343 345 346 347 346 346 347 347 348 346 346 347 346 342 337 335 335 333 333 335 336 336 335 335 334 334 334 335 335 336 335 337 336 337 337 340 344 350 352 355 356
337 338 341 345 345 346 346 345 345 346 347 346 347 346 346 345 340 335 333 334 336 336 336 336 335 335 335 335 336 336 336 336 336 336 336 336 337 337 339 345 350 352 354
329 337 339 341 342 343 345 345 344 344 346 345 343 342 344 345 343 338 336 334 336 337 337 337 337 337 337 335 334 335 335 334 335 336 338 339 341 340 339 339 345 349 351
323 331 337 340 340 341 341 340 339 340 342 343 342 341 341 342 344 338 336 335 338 336 336 338 338 337 336 334 334 334 335 336 337 337 338 339 341 341 341 340 339 342 347
321 326 331 335 336 337 337 338 336 335 338 338 340 341 340 340 342 341 338 335 336 336 338 339 338 337 336 336 334 333 333 335 336 336 337 338 339 341 343 343 341 339 342
321 324 328 334 335 336 339 340 339 337 336 337 339 340 341 341 341 341 341 340 339 337 339 339 337 334 335 335 333 330 325 328 329 332 336 339 340 342 342 344 343 342 342
316 319 326 332 336 337 337 334 333 334 335 334 337 338 340 342 343 342 341 342 342 343 340 338 337 334 334 334 334 332 325 320 324 329 331 334 339 340 342 341 343 344 344
313 315 322 328 330 333 336 335 333 331 329 334 336 339 338 340 341 344 342 340 341 341 338 339 340 338 334 333 334 335 332 329 325 322 328 332 337 336 339 339 340 343 345
313 312 318 322 322 324 330 334 332 327 329 330 332 332 333 335 337 339 342 341 341 341 341 339 337 336 334 334 332 332 331 330 330 327 324 327 331 333 334 337 337 340 344
311 311 313 315 314 315 317 319 323 325 325 325 326 328 329 332 334 336 337 337 338 337 336 335 337 335 330 330 333 334 332 330 329 328 327 328 328 330 335 336 338 338 341

GFSSE_sfc_thetae_081.txt.gz
Theta_e
351 359 364 364 364 365 366 366 365 364 362 361 361 361 360 361 361 363 362 362 362 361 358 356 354 353 352 352 354 355 356 356 354 353 354 353 353 354 354 350 348 344 348
355 361 363 363 364 365 365 365 364 363 361 361 361 361 360 361 362 362 362 362 361 358 356 354 351 350 350 352 354 354 355 356 355 351 351 352 354 354 352 350 347 345 346
357 362 361 363 363 364 364 364 363 362 362 362 362 361 361 361 362 361 361 361 360 357 354 351 348 347 348 351 353 354 353 354 354 350 347 344 345 351 350 350 348 346 345
359 362 360 363 363 363 363 362 362 362 362 362 361 361 361 361 361 361 360 360 357 355 352 349 346 344 344 345 348 351 351 352 351 350 349 347 346 349 349 350 349 347 347
358 361 361 362 362 362 362 361 361 361 361 361 361 360 360 360 360 360 360 359 356 353 351 348 344 345 344 343 344 344 345 346 343 341 345 346 345 346 349 349 350 349 349
357 359 361 362 361 361 361 361 360 360 361 360 360 360 360 360 360 359 359 357 356 352 349 346 345 345 344 343 344 344 345 345 344 343 344 343 346 348 349 349 349 348 349
354 357 360 361 361 361 361 360 360 360 359 359 360 360 360 359 358 358 357 356 355 353 349 345 345 346 345 343 341 342 341 342 340 341 340 341 347 343 350 351 351 349 348
353 357 359 361 360 359 359 359 359 358 358 358 358 358 358 357 357 356 356 355 354 353 350 347 346 345 344 344 343 342 341 341 337 337 338 338 342 345 350 354 353 352 349
353 357 359 358 360 359 358 358 358 357 357 357 356 357 357 356 356 356 355 355 353 352 350 348 346 345 344 343 343 342 340 340 339 338 334 336 337 340 346 352 354 352 349
352 355 356 357 356 355 357 358 357 357 357 356 356 356 355 355 355 355 352 353 353 352 350 348 346 345 344 343 342 342 340 341 336 335 339 341 338 341 343 349 353 354 352
349 354 355 356 356 354 353 355 357 357 357 356 356 356 353 350 351 352 349 353 353 351 350 348 346 345 344 343 342 342 342 337 335 335 338 342 341 343 345 350 354 356 354
345 350 353 355 354 354 351 354 354 352 352 354 354 355 353 351 351 347 349 351 352 351 350 349 348 346 343 338 337 339 336 336 335 334 338 338 343 344 346 351 353 355 355
345 348 350 355 356 354 351 353 352 352 352 353 355 356 355 352 350 348 346 346 347 349 343 343 343 341 340 340 338 338 337 339 340 340 342 340 343 345 348 352 354 355 355
345 347 351 353 354 354 353 352 352 351 352 350 351 354 352 350 349 348 345 345 347 344 344 343 340 342 344 343 342 341 340 340 341 343 344 343 344 344 348 351 355 357 356
344 347 350 352 354 353 355 352 352 351 352 351 351 352 350 348 348 348 346 344 343 343 342 342 340 342 343 344 344 343 342 343 343 343 344 345 344 344 346 349 353 356 358
345 347 349 351 356 354 354 356 353 354 353 353 351 351 350 349 348 345 346 344 343 342 341 341 341 343 344 344 345 346 344 345 345 345 345 347 343 343 345 347 349 357 358
347 348 350 352 354 355 355 356 354 352 352 351 351 353 351 351 350 347 344 343 342 343 344 343 344 345 344 344 346 347 347 348 347 347 348 347 346 343 343 346 350 354 357
347 349 350 350 352 355 355 355 354 353 351 351 351 352 351 352 351 348 344 343 344 343 342 343 344 344 344 345 348 348 347 347 348 347 346 346 346 347 346 344 348 352 354
341 349 349 351 350 353 354 353 354 356 353 352 351 351 352 353 351 350 347 345 346 342 341 342 343 345 345 347 346 346 346 346 347 345 347 349 349 348 348 349 343 346 351
331 346 348 349 352 351 351 352 350 352 351 351 351 350 353 352 351 349 349 347 346 343 341 341 344 347 347 347 344 344 347 346 347 347 346 346 346 349 351 353 352 349 345
326 336 346 347 350 349 346 345 345 345 348 348 348 351 351 351 353 353 349 350 347 346 344 343 343 345 344 347 343 343 342 346 345 344 344 345 347 350 351 351 351 350 350
324 331 340 347 349 348 346 348 346 346 347 346 347 348 350 350 350 351 352 349 347 344 345 344 344 342 345 346 342 339 333 335 337 339 340 343 346 346 346 347 349 349 351
323 329 335 344 348 347 348 348 348 346 346 344 345 345 347 348 347 348 348 348 347 345 342 345 346 346 347 342 344 339 332 327 331 338 340 341 342 343 347 348 347 348 349
323 326 331 338 344 345 347 346 344 341 340 342 343 344 345 346 346 347 348 348 349 349 348 348 347 347 343 340 339 342 344 339 330 328 339 340 342 343 348 344 345 346 346
320 326 329 337 342 346 347 349 345 345 346 346 345 346 349 348 348 347 348 348 345 346 345 341 332 330 327 329 336 340 340 340 339 333 327 330 339 339 342 343 343 342 344
316 323 327 333 340 345 346 347 347 346 345 342 344 343 344 346 347 348 346 340 336 334 337 338 332 331 330 327 333 338 333 331 331 334 332 331 333 336 339 341 344 342 343

GFSSE_sfc_thetae_084.txt.gz
Theta_e
349 361 365 365 367 367 367 365 365 364 362 362 362 362 362 362 362 364 364 363 362 362 359 359 358 355 353 353 354 355 355 355 354 354 353 353 353 354 352 350 348 345 349
351 361 364 365 366 367 367 366 365 363 362 361 362 362 362 362 363 363 363 363 362 360 357 355 353 352 352 353 355 355 355 354 353 352 351 354 355 353 351 349 348 347 346
353 361 362 364 366 366 366 365 364 362 362 361 361 361 361 362 363 362 362 361 361 358 355 352 351 350 352 353 354 354 353 352 351 349 348 348 347 351 349 349 348 346 345
356 364 361 364 365 366 365 364 363 362 362 361 361 361 362 362 362 362 361 361 358 355 352 349 347 348 350 353 354 353 353 353 352 350 350 348 345 348 349 349 348 346 346
359 363 363 363 364 365 364 363 362 362 362 362 362 362 361 361 361 361 361 360 357 354 351 348 346 346 347 348 350 350 349 347 344 343 348 350 349 348 349 349 350 349 348
357 360 362 362 363 363 364 363 362 362 362 362 362 361 361 361 360 360 360 359 357 354 350 348 347 347 345 345 345 344 342 342 345 347 349 346 348 349 349 350 349 347 349
354 358 364 362 362 363 363 363 362 362 361 361 361 361 361 360 360 359 359 358 357 355 350 346 346 347 346 345 344 344 342 343 345 345 345 342 349 348 349 351 351 350 349
353 356 361 361 361 361 361 361 361 360 360 361 360 360 360 359 359 359 358 357 356 354 351 347 347 347 346 345 345 342 341 343 340 336 337 341 343 342 347 352 353 353 351
351 354 359 358 360 360 359 360 359 359 359 359 358 358 358 358 358 357 357 356 355 353 351 349 347 346 345 344 342 342 341 342 339 337 336 338 343 342 348 351 353 353 352
350 351 355 358 356 355 356 359 359 358 358 357 358 358 357 357 357 356 354 354 354 352 351 349 347 346 344 343 342 340 340 341 336 337 341 344 337 338 342 347 351 356 355
347 349 354 356 358 355 351 355 357 358 358 357 357 357 354 353 354 353 350 354 353 352 350 348 347 346 342 342 342 341 341 335 335 336 340 344 340 343 346 348 352 355 356
346 346 351 357 357 355 350 355 354 352 353 354 353 356 354 353 351 346 349 353 353 351 348 348 347 344 341 336 338 341 335 337 336 334 339 342 340 345 348 349 353 354 356
349 348 350 357 360 357 352 353 352 351 351 351 352 354 355 351 350 347 346 346 346 348 342 342 342 340 338 338 337 336 339 342 341 341 344 342 343 345 348 350 355 355 356
345 348 351 354 359 360 354 353 353 350 350 349 350 355 355 351 350 347 343 343 345 342 342 342 339 341 343 344 345 342 342 343 344 346 349 346 345 345 348 350 353 356 356
341 348 351 354 358 358 358 354 355 352 350 350 349 355 354 352 349 346 345 344 344 342 342 342 340 341 345 349 348 347 345 346 348 347 347 348 346 346 347 349 351 356 358
334 346 352 353 360 359 358 360 358 358 354 351 347 350 355 352 352 346 347 345 343 343 342 341 340 341 347 349 350 352 351 350 350 351 348 350 348 346 346 347 350 352 358
332 345 350 354 357 360 358 358 357 355 353 351 349 355 353 354 353 352 345 344 342 345 347 345 344 344 346 347 350 351 352 353 351 352 351 350 349 346 346 346 347 350 355
331 341 352 352 355 361 361 358 357 354 353 352 351 351 354 353 352 350 344 345 344 345 343 340 340 342 346 346 347 349 349 350 350 352 351 351 348 348 349 348 348 349 351
328 336 347 357 355 358 360 357 359 362 355 352 352 351 355 354 352 350 345 344 350 343 342 341 341 344 343 346 345 348 350 349 350 346 350 352 352 350 351 349 347 346 348
327 336 343 350 357 360 358 359 354 353 354 353 353 352 354 355 354 354 348 350 350 344 341 341 346 342 343 343 342 343 350 349 349 349 349 347 348 351 354 354 352 349 347
327 329 336 349 357 358 355 352 351 349 351 352 352 357 355 355 354 355 351 352 353 349 350 350 345 345 338 345 343 344 346 349 350 347 347 346 347 349 351 352 352 348 347
326 329 333 344 354 357 354 354 352 351 349 350 351 354 355 354 354 355 356 353 356 349 353 352 350 340 339 344 342 341 333 338 339 344 344 345 347 345 346 349 349 350 349
324 328 331 338 349 359 360 356 354 352 351 348 350 349 353 353 353 354 357 354 355 352 346 353 350 347 334 344 352 342 335 330 335 342 345 343 348 344 345 349 351 351 353
321 325 330 334 342 351 358 355 354 347 345 346 349 349 351 352 350 351 355 352 352 349 349 348 348 348 346 343 345 346 344 340 333 333 341 342 345 344 347 344 345 349 351
322 323 327 334 337 344 352 356 351 349 347 347 348 356 356 353 352 349 351 352 352 350 353 351 351 347 344 338 335 336 334 333 339 335 326 331 339 339 342 342 344 344 349
322 322 324 330 336 341 347 352 355 354 351 345 349 347 347 347 349 351 350 350 352 349 350 349 346 344 338 336 333 331 330 329 328 331 329 333 333 336 338 342 344 342 344

GFSSE_sfc_thetae_087.txt.gz
Theta_e
354 362 366 368 367 365 365 364 364 363 363 362 363 362 363 362 363 364 363 363 363 363 362 360 358 355 353 353 354 355 355 354 354 354 353 354 354 354 351 349 350 345 350
357 362 365 367 367 366 365 364 365 363 362 362 362 362 362 363 364 364 363 363 362 360 358 357 354 352 352 353 354 354 354 354 353 351 350 354 354 353 350 349 349 346 347
358 361 364 366 367 367 365 365 364 362 362 362 362 362 362 362 363 363 363 363 361 358 355 353 352 351 352 353 354 354 352 351 349 348 351 353 345 351 349 349 348 347 345
358 362 361 365 366 367 367 365 363 363 362 362 362 362 362 362 363 362 362 361 359 356 353 351 350 350 352 353 352 352 351 350 350 351 352 346 344 350 349 348 347 347 346
358 360 363 365 366 366 366 365 363 362 362 362 362 362 362 362 362 362 362 361 357 354 351 348 347 349 351 353 352 352 352 351 350 348 347 348 348 350 350 349 349 347 347
356 357 363 364 365 365 366 365 363 362 362 362 362 362 362 362 362 361 361 360 358 353 350 348 346 346 345 346 348 347 344 342 343 349 346 346 346 352 351 349 348 347 348
353 358 364 363 364 364 365 364 364 363 362 362 362 362 362 361 361 361 360 359 357 354 350 346 344 345 345 343 341 341 341 343 345 345 343 342 350 354 351 350 349 349 349
351 356 364 363 363 363 363 363 363 362 362 362 361 361 361 361 360 360 360 358 357 355 351 346 344 343 344 343 341 342 342 343 344 339 337 340 346 346 347 350 352 352 351
351 352 360 358 362 362 362 361 361 361 361 361 360 360 360 360 359 359 358 357 356 355 352 348 345 343 342 341 341 342 343 343 338 338 337 339 347 346 346 349 352 353 354
350 351 354 356 355 357 361 361 360 360 360 359 359 359 359 358 358 357 356 356 355 353 351 348 345 343 342 342 343 344 342 342 336 335 339 343 344 338 338 344 348 354 356
346 349 353 353 354 354 352 358 359 359 359 358 359 359 356 354 355 356 352 355 354 352 350 348 346 345 343 344 346 345 342 333 335 336 338 347 344 342 345 347 350 353 355
344 346 349 356 355 354 349 356 355 357 358 359 358 359 355 354 354 349 351 355 353 350 349 348 346 344 341 334 337 343 335 333 336 336 338 349 344 344 348 350 352 354 355
346 347 347 357 360 356 351 352 352 350 352 353 355 358 358 352 353 347 347 346 348 349 342 342 340 338 336 336 337 339 338 341 341 340 343 349 345 345 348 351 354 356 356
337 348 350 353 359 364 353 350 353 349 352 349 349 357 357 352 356 353 343 346 348 340 341 341 336 344 343 340 341 341 341 342 343 345 347 350 347 347 348 350 353 356 357
329 344 350 354 361 363 365 354 355 352 351 350 349 354 354 351 355 350 349 345 343 340 341 342 342 344 342 342 347 345 344 345 347 347 347 352 349 348 349 350 351 354 357
328 336 346 351 363 363 361 364 360 361 354 353 350 351 357 355 357 348 349 344 343 342 341 343 344 341 341 344 348 350 350 349 350 351 349 351 351 349 350 350 350 352 355
328 332 339 353 360 366 366 365 359 355 354 352 350 357 358 361 361 354 347 345 344 347 357 351 349 344 341 344 348 349 350 353 352 352 352 351 350 350 350 350 351 351 352
327 331 341 344 356 367 365 362 358 358 356 355 352 352 357 357 359 357 346 347 347 347 344 344 343 338 338 341 347 345 349 353 351 352 351 351 349 350 348 350 351 351 351
327 331 334 353 352 362 365 363 361 363 358 356 356 352 355 353 353 353 349 349 355 346 343 343 342 343 341 344 343 345 349 347 350 346 348 351 353 352 351 349 351 349 350
327 337 338 341 360 366 361 363 359 358 359 358 356 354 357 353 353 352 349 346 351 345 344 344 347 344 341 340 338 340 348 347 348 348 348 348 349 351 357 359 354 350 349
327 332 341 344 346 359 356 354 355 352 356 357 357 360 359 358 357 354 351 351 352 347 346 351 346 348 341 347 338 341 342 353 353 349 348 345 348 349 356 359 353 349 347
328 334 335 337 348 354 357 357 357 356 357 357 358 359 360 360 359 357 356 350 353 348 352 353 350 342 340 345 337 338 332 342 344 345 345 345 348 348 347 351 354 355 353
322 331 332 341 343 348 359 357 359 359 357 353 354 356 356 357 357 358 357 356 356 353 348 355 356 350 341 343 347 339 334 328 336 344 348 347 351 347 352 350 353 350 353
322 325 331 336 342 342 349 353 355 350 349 352 353 353 356 358 356 357 358 358 358 356 353 356 355 353 350 342 348 350 346 342 334 330 346 345 351 350 353 346 347 351 353
322 324 330 336 338 342 347 353 351 353 351 351 353 355 357 357 357 355 357 359 358 355 356 356 355 353 349 343 345 344 340 335 337 331 325 332 338 339 341 342 345 345 350
321 322 324 331 336 340 342 345 352 351 352 348 351 349 351 352 356 356 355 357 358 355 355 354 355 355 350 349 346 342 336 330 330 330 329 329 329 332 332 331 338 340 345

GFSSE_sfc_thetae_093.txt.gz
Theta_e
357 363 365 365 364 364 363 363 363 363 362 362 363 363 363 362 363 363 364 364 363 363 361 359 356 354 355 355 355 357 358 358 357 354 355 354 352 353 354 357 350 346 349
360 363 364 364 364 364 363 363 363 362 362 362 363 363 363 362 362 362 363 363 363 363 359 357 353 353 354 355 354 355 356 355 356 356 354 353 351 352 352 349 348 347 348
359 362 362 364 364 364 363 363 362 362 362 362 362 362 363 363 362 362 362 362 362 360 357 354 352 353 354 354 353 353 353 353 353 352 352 348 346 351 351 350 349 348 347
359 360 360 364 364 364 363 362 361 362 362 362 362 362 363 363 362 362 361 361 360 356 354 352 352 354 354 354 353 353 353 354 356 354 349 348 343 352 350 350 349 349 348
357 360 361 364 363 364 364 361 361 361 361 361 362 362 363 362 362 361 361 360 359 354 352 351 352 354 354 353 354 354 354 354 352 345 338 342 341 352 353 352 349 349 350
356 361 364 364 363 364 364 362 361 361 361 361 362 362 362 362 361 361 360 359 358 355 351 351 354 354 355 355 354 352 349 347 348 337 339 344 341 355 355 353 353 350 350
355 360 363 364 363 364 364 362 362 361 361 360 361 362 362 360 360 360 360 359 357 356 353 351 350 349 349 349 348 347 345 346 338 336 336 343 346 353 356 354 353 352 351
356 358 360 364 364 363 363 362 361 360 360 360 360 361 361 360 360 360 359 359 357 355 353 350 348 346 345 344 344 345 344 344 337 333 330 341 349 354 356 355 354 353 352
357 356 357 360 363 364 362 361 361 360 360 359 359 359 359 359 359 359 358 357 356 354 352 349 346 345 343 342 342 343 343 344 334 333 332 340 352 354 356 354 354 355 355
356 355 354 356 359 358 360 362 361 360 359 358 359 359 359 358 358 358 355 356 356 354 351 349 346 344 343 342 342 343 344 344 334 331 329 334 350 354 354 354 354 354 355
355 352 351 354 354 355 357 360 361 362 360 359 359 358 356 354 354 356 354 356 356 354 351 349 346 345 344 344 344 345 345 333 329 328 329 344 349 350 349 347 348 350 352
350 350 350 351 352 352 358 357 355 358 356 356 356 355 353 350 351 353 353 355 355 354 352 350 347 346 345 332 330 344 336 333 329 327 328 349 350 353 352 351 352 352 353
333 349 349 350 350 349 349 355 355 355 354 354 353 353 351 350 351 350 346 350 347 351 344 346 342 338 332 329 327 327 333 331 328 328 338 351 351 354 354 353 353 354 354
316 339 348 349 348 346 346 353 353 353 353 353 352 353 351 348 346 346 344 344 343 343 338 336 334 333 330 328 327 329 330 330 330 331 339 352 350 352 353 354 354 355 354
316 344 349 351 345 345 347 351 350 350 352 352 352 353 352 349 346 344 343 341 341 339 336 331 331 331 329 328 329 331 332 333 334 336 337 352 349 350 353 355 355 355 356
316 335 348 347 345 344 348 349 348 346 348 349 350 352 353 351 347 345 341 340 339 338 336 331 332 330 329 331 331 332 335 339 338 338 339 342 349 349 351 354 356 356 357
313 322 343 337 337 340 350 351 352 347 345 346 346 348 349 349 344 346 343 341 341 338 335 332 330 334 332 333 333 335 337 341 341 343 344 342 343 349 350 352 354 356 357
320 322 325 334 349 351 353 351 351 353 349 346 345 346 347 347 346 344 343 342 340 339 335 334 331 333 336 333 330 333 341 342 342 342 343 343 344 344 348 351 352 354 355
316 317 318 323 333 348 352 354 352 350 350 348 346 345 346 346 347 345 345 342 340 338 336 338 333 333 333 330 331 332 336 340 341 346 344 344 342 344 342 346 350 350 352
317 319 318 318 318 329 327 349 354 352 349 351 349 347 345 345 344 347 347 342 339 339 336 335 334 334 333 332 332 332 336 338 341 341 343 343 343 344 342 342 344 346 349
317 315 317 318 321 326 329 335 345 343 347 347 349 348 344 347 345 344 348 343 341 338 337 334 331 331 330 333 331 329 332 338 337 342 341 341 340 340 342 345 342 340 342
317 320 324 324 329 332 333 334 340 344 348 350 350 349 348 346 348 345 345 345 342 341 336 336 335 332 332 331 330 327 323 326 335 339 340 340 339 338 341 343 346 343 343
315 317 320 324 325 325 326 331 325 334 342 342 344 346 348 348 348 348 346 344 343 341 338 336 336 333 330 333 332 327 323 319 328 336 338 338 337 336 340 340 340 342 340
314 317 321 320 320 321 324 323 322 323 325 330 340 344 347 349 348 347 345 344 342 342 339 337 337 335 332 329 330 333 334 330 325 324 334 336 338 339 338 337 338 339 341
314 313 318 319 317 323 320 321 322 321 324 327 333 338 342 345 348 347 347 344 342 341 341 339 336 337 334 330 329 330 332 330 330 325 322 328 330 333 337 338 336 332 331
312 313 313 313 316 320 321 320 320 319 321 323 326 329 336 342 344 346 346 346 344 343 340 340 338 336 337 334 334 332 332 330 325 324 321 321 324 326 331 332 330 328 328

GFSSE_sfc_thetae_096.txt.gz
Theta_e
356 361 365 365 364 363 363 362 362 362 362 362 362 362 362 362 362 363 363 363 363 362 359 356 354 354 354 354 354 356 358 358 357 353 353 353 352 352 355 351 349 347 352
358 361 364 364 364 363 363 363 362 361 361 362 362 362 361 361 362 362 362 362 362 361 357 353 353 354 354 353 353 354 355 357 357 355 353 351 352 351 350 349 349 346 348
358 360 362 364 364 363 362 362 362 361 361 361 361 361 361 361 362 362 362 362 362 358 356 352 353 354 354 353 352 352 353 353 353 355 353 345 345 350 349 348 348 347 347
358 359 360 364 363 363 362 361 361 361 361 361 361 361 361 361 361 361 361 361 359 357 354 352 353 353 353 353 351 352 353 354 353 352 348 348 345 350 350 349 350 349 347
357 358 360 364 363 363 362 361 361 360 360 361 362 362 361 361 360 360 360 359 358 354 352 352 353 354 354 352 351 352 352 351 349 340 336 342 339 350 350 350 350 351 347
357 358 362 363 362 362 362 361 361 360 360 361 361 361 361 361 360 360 359 358 358 354 351 352 353 355 354 352 352 351 348 346 347 334 335 343 339 353 354 353 351 348 348
357 359 361 363 363 362 361 361 361 360 360 360 361 361 361 360 359 359 359 358 357 354 352 351 352 353 354 352 349 346 343 344 335 332 330 341 341 353 356 356 354 351 349
356 358 360 363 363 361 361 361 360 360 359 360 360 360 360 359 359 359 358 358 356 355 352 350 350 348 347 346 344 341 341 343 336 329 328 332 345 353 356 355 354 353 351
357 356 358 360 361 362 361 360 360 359 359 359 358 358 359 359 358 358 357 357 356 354 352 350 347 346 344 343 342 341 342 344 332 330 330 332 350 354 357 356 355 353 352
354 354 356 358 359 358 358 360 360 359 359 358 358 358 358 358 358 358 354 355 356 354 352 349 347 345 343 342 341 342 344 344 333 329 327 330 349 354 357 355 355 355 355
351 352 354 356 357 357 357 359 360 360 359 358 358 358 355 353 353 354 354 355 355 354 352 349 347 345 344 344 343 344 345 332 328 326 326 337 348 353 356 354 354 354 354
349 349 351 353 353 354 358 357 357 357 357 356 355 355 352 350 351 353 353 355 355 354 352 350 348 346 345 331 331 343 334 331 329 327 324 340 350 353 354 350 349 350 351
351 350 349 350 352 352 353 355 355 356 354 356 355 354 350 349 349 350 347 350 349 352 345 346 342 338 333 330 326 323 328 331 328 327 330 342 349 352 354 352 352 353 353
346 348 348 349 350 350 354 353 353 353 353 352 353 352 349 346 345 346 345 344 344 343 340 339 336 334 331 328 325 322 324 328 328 327 328 344 350 353 356 355 354 354 353
327 345 347 348 348 348 348 352 351 351 352 352 352 352 350 347 345 346 344 343 343 341 339 335 334 332 330 328 325 325 325 328 329 330 331 346 351 351 354 356 355 355 355
334 342 346 346 346 343 343 348 349 350 351 351 351 350 351 347 346 345 344 342 341 340 339 334 331 330 328 326 324 326 327 329 331 332 336 340 350 349 351 354 356 356 356
320 343 345 346 341 335 339 347 347 347 349 349 350 351 351 350 347 346 342 342 342 340 337 334 330 328 326 328 327 326 328 331 335 337 337 336 342 348 348 351 354 356 357
326 337 340 345 340 333 338 347 348 344 343 347 347 349 351 352 350 345 344 341 341 339 336 334 331 327 328 327 327 330 331 333 337 339 340 342 339 341 346 350 352 354 356
321 323 329 333 337 338 345 350 349 350 346 344 344 344 347 349 350 347 344 344 340 339 336 333 329 325 325 330 331 330 331 335 338 341 340 341 342 343 342 346 350 350 353
313 313 314 318 325 324 325 335 347 346 349 346 346 343 344 344 345 345 345 342 341 338 337 332 332 330 328 329 332 331 329 332 337 338 342 343 342 341 341 341 341 345 349
320 321 321 323 322 324 326 327 334 340 343 344 344 346 344 343 344 342 344 343 341 339 338 335 334 333 331 329 327 326 328 331 332 335 340 342 342 343 341 341 340 341 343
314 316 318 320 320 323 326 328 332 330 335 343 346 346 345 344 343 342 341 342 343 341 339 335 334 330 331 331 328 323 320 324 330 337 338 340 340 340 339 340 341 341 339
313 317 317 316 317 318 322 321 321 322 323 326 331 337 342 344 345 344 344 342 343 343 340 337 335 334 330 328 330 324 319 317 321 332 336 339 338 336 337 339 341 343 341
312 317 316 316 316 320 319 317 318 318 316 320 322 329 333 338 340 344 345 344 343 344 342 340 338 336 333 329 328 331 326 323 320 319 329 333 336 336 334 336 338 339 339
310 315 316 313 316 319 316 317 317 316 318 320 321 321 322 327 336 341 342 343 343 342 342 342 339 335 335 334 331 328 328 329 327 321 320 327 329 332 336 335 336 336 336
309 309 309 310 312 315 318 316 315 314 314 315 317 317 320 323 328 333 339 341 340 341 341 342 340 338 335 335 333 331 329 327 327 323 319 322 326 326 329 333 332 331 329

GFSSE_sfc_thetae_099.txt.gz
Theta_e
354 358 361 364 363 362 362 363 363 363 362 362 362 362 362 361 362 362 362 362 361 361 358 355 355 354 353 354 355 355 357 356 353 353 353 352 351 352 352 349 350 348 349
357 359 361 363 363 363 362 362 361 361 361 361 361 361 361 361 362 362 362 362 361 359 355 353 353 353 353 352 353 354 355 357 356 353 351 352 351 352 349 348 348 349 349
357 358 361 363 363 362 362 361 361 361 360 360 360 361 361 361 362 361 361 361 360 357 353 352 353 354 353 352 352 352 354 355 356 354 350 344 345 348 348 348 347 347 348
357 358 359 363 363 361 361 360 360 360 360 360 360 361 361 361 361 361 361 361 359 356 352 352 353 354 353 351 351 352 354 353 352 351 347 345 345 350 349 349 348 346 348
356 358 359 363 362 361 360 360 359 360 360 360 360 360 360 360 360 360 360 360 358 354 352 353 353 354 353 352 352 352 353 351 345 341 336 339 341 349 350 350 351 348 346
355 357 361 362 361 361 360 360 360 360 360 360 360 360 359 359 359 359 359 358 357 353 351 352 354 354 353 352 352 351 348 346 344 332 332 338 340 351 352 352 350 350 347
353 357 360 361 361 361 360 360 360 360 359 359 360 359 359 359 359 359 358 357 356 354 352 351 353 355 354 353 351 348 344 343 333 330 328 341 339 350 355 354 352 350 348
354 357 358 361 361 360 360 360 359 359 358 359 359 359 359 358 358 359 358 357 356 354 352 352 352 353 353 351 349 345 343 342 334 327 326 328 342 350 354 357 355 352 349
355 355 356 357 360 360 359 359 359 358 358 358 358 358 358 358 358 358 357 357 355 354 352 351 349 349 348 347 346 344 343 343 330 327 328 326 342 352 354 357 354 353 352
353 353 353 355 357 356 356 359 359 358 358 357 357 357 357 358 357 357 354 355 356 354 352 350 348 347 345 345 343 342 343 343 331 328 326 324 346 352 355 357 355 355 354
350 349 352 353 354 354 354 356 358 359 359 357 357 357 354 352 352 352 354 354 355 354 352 350 348 346 345 344 344 344 344 330 327 325 324 333 345 353 354 357 356 355 355
345 348 350 352 353 352 353 353 353 355 355 354 354 353 351 348 348 351 352 355 355 355 353 351 349 346 345 331 330 341 332 330 327 325 324 336 343 347 355 357 355 355 354
347 348 350 351 352 351 352 353 353 353 353 353 352 352 350 349 347 349 346 347 346 352 344 346 342 338 333 330 326 323 324 328 327 326 328 340 344 349 356 355 353 351 350
347 347 348 350 351 351 351 352 349 352 353 352 352 353 349 346 345 345 345 344 343 343 342 338 336 334 331 328 326 322 320 321 326 327 327 340 343 348 354 355 354 352 352
346 347 346 348 348 349 348 350 349 351 351 350 350 351 350 346 344 344 344 342 342 341 338 335 334 332 330 328 325 323 321 320 324 327 327 339 344 348 354 356 357 356 355
337 345 346 346 347 346 345 347 346 348 350 350 350 350 350 347 344 343 343 343 342 341 340 335 330 330 328 325 324 322 322 322 325 327 329 332 344 348 351 355 357 357 357
328 339 343 345 344 342 341 345 346 346 348 348 349 348 350 347 344 343 343 342 343 342 339 336 334 329 327 326 324 325 323 325 327 329 333 333 337 349 350 352 354 356 358
333 338 340 346 339 335 337 344 345 345 344 346 347 347 349 349 347 344 343 342 343 340 337 335 333 327 326 327 326 326 327 327 328 330 335 338 337 339 345 350 351 354 356
333 337 339 339 337 336 334 339 345 345 342 343 343 344 346 349 350 347 344 344 340 339 336 336 333 332 330 327 327 328 327 326 329 333 335 338 340 341 340 344 348 350 352
314 317 322 325 326 326 330 337 345 345 345 342 341 342 342 341 346 346 346 342 341 337 338 336 334 331 331 329 327 327 327 327 330 333 336 338 340 341 342 342 342 344 349
317 315 317 320 322 324 326 325 326 327 333 336 341 345 343 342 343 342 343 344 340 340 339 338 335 333 331 329 324 326 327 327 327 331 334 337 339 342 341 342 342 340 341
316 319 321 323 323 323 323 325 325 323 327 332 334 332 340 342 342 341 341 341 342 341 340 339 335 334 333 333 329 322 321 323 325 330 331 333 334 338 341 342 340 340 340
314 314 315 314 315 317 318 316 315 317 317 317 320 325 328 333 337 339 340 340 340 340 340 340 338 334 333 334 330 327 316 318 318 323 329 332 334 336 339 338 339 340 339
314 314 313 314 316 317 316 315 314 313 312 314 317 321 322 326 329 332 334 338 340 341 339 340 340 337 335 332 330 332 332 323 317 315 325 330 333 335 337 335 338 339 341
314 312 311 312 316 315 315 315 314 313 314 315 317 317 317 319 323 328 330 332 335 338 340 339 339 337 336 333 333 331 328 328 325 319 318 324 329 334 337 336 337 336 337
309 310 309 310 312 314 315 314 313 312 311 311 311 313 315 317 319 323 328 330 333 336 337 338 338 338 338 336 334 334 330 327 325 325 322 324 325 328 333 336 335 334 333

GFSSE_sfc_thetae_102.txt.gz
Theta_e
352 357 363 363 364 363 364 364 363 363 363 363 363 363 362 361 361 361 362 362 362 362 359 357 355 355 354 355 355 355 356 355 353 353 354 353 353 352 350 349 350 347 348
355 357 363 363 363 364 363 363 362 362 362 362 363 362 361 361 362 362 362 362 361 360 356 354 353 353 354 354 355 355 354 356 355 354 353 351 354 350 352 347 352 348 349
355 356 361 362 362 363 363 362 362 361 361 361 361 361 361 362 362 361 361 361 361 357 354 353 353 353 353 353 354 355 356 357 356 353 351 348 348 349 349 348 348 348 348
355 357 359 363 362 362 362 361 360 361 360 360 360 361 361 361 361 361 361 360 358 355 352 353 354 354 353 352 352 354 354 353 353 354 348 346 347 349 349 348 347 347 348
355 357 358 362 361 361 360 360 359 359 360 360 360 360 361 360 360 360 360 359 357 354 351 353 354 355 355 353 354 354 354 354 349 345 343 346 346 349 350 350 350 347 347
354 356 360 362 361 361 360 360 359 359 359 359 360 360 360 360 360 360 360 359 358 353 352 354 356 356 355 354 354 353 352 348 345 336 337 338 345 349 352 351 351 349 347
352 356 359 361 361 361 360 359 359 359 359 359 359 359 359 359 359 359 358 357 356 355 353 353 355 355 355 354 353 352 349 345 337 335 332 342 346 348 354 353 353 352 348
353 356 357 360 360 359 360 359 359 358 358 358 358 358 358 358 358 358 358 357 356 355 354 354 355 354 353 353 353 351 348 346 337 332 330 335 345 348 354 356 356 353 350
354 355 356 356 358 360 359 358 358 357 357 357 357 357 357 357 358 357 357 357 356 354 353 353 353 353 352 352 351 349 347 345 334 331 329 331 339 350 354 357 357 355 353
353 353 353 356 354 355 356 359 358 357 357 356 357 357 356 357 357 357 355 355 356 354 353 351 350 349 348 348 347 347 346 345 337 332 331 330 338 346 354 357 357 356 355
350 349 352 352 353 352 353 356 358 358 357 356 357 356 354 352 353 354 354 354 356 355 353 351 349 348 347 346 346 345 345 335 331 330 329 332 340 349 355 357 357 355 355
346 347 350 351 351 349 352 351 352 354 354 353 353 353 351 349 349 351 353 355 355 355 354 352 350 349 347 338 332 338 337 334 331 330 329 334 340 343 353 357 358 357 355
346 348 350 351 351 349 348 349 349 350 352 352 351 351 350 348 349 351 348 351 350 352 349 349 347 344 339 335 332 329 327 328 332 331 330 339 343 342 348 354 356 357 355
344 345 349 351 351 349 349 350 348 350 351 350 352 352 350 347 345 346 346 345 345 346 345 342 340 339 336 334 331 329 327 325 325 328 330 337 343 345 347 352 357 356 354
344 346 347 350 350 350 347 350 348 349 350 350 350 350 350 347 345 345 345 344 344 344 343 341 339 338 335 334 332 329 328 326 325 326 329 336 342 345 347 352 356 357 355
344 346 346 347 349 348 348 348 348 349 350 350 348 350 349 349 345 344 344 344 343 344 343 342 339 337 335 333 332 330 329 327 327 327 328 332 341 343 347 351 355 358 358
329 346 345 345 346 345 346 347 347 348 349 350 350 350 350 349 345 344 343 343 343 343 343 340 339 337 333 332 331 330 329 328 327 327 330 332 336 342 346 351 353 355 358
321 335 342 347 342 339 339 345 347 348 348 349 349 349 350 350 348 344 344 343 345 344 341 340 339 335 333 332 332 331 330 330 330 329 331 333 336 338 342 350 352 353 355
329 336 340 341 339 338 340 342 345 346 346 348 347 348 349 349 350 347 345 345 344 343 341 340 339 337 338 334 332 332 332 329 330 331 332 334 336 339 340 343 348 350 351
324 330 331 332 334 336 337 338 344 346 345 342 342 343 344 346 349 347 347 346 345 342 340 339 338 338 336 337 335 333 332 331 331 330 332 333 336 340 342 344 345 345 348
319 323 324 323 323 326 326 330 329 329 334 339 343 345 344 343 344 343 344 345 344 341 341 341 339 336 336 334 330 331 331 331 330 331 333 334 335 337 342 343 345 345 346
315 319 321 324 325 324 324 326 323 324 325 331 331 336 342 342 342 341 340 340 341 342 342 341 339 336 335 337 331 330 326 331 328 330 332 333 334 336 340 344 346 345 346
317 319 318 317 318 318 319 317 317 318 318 318 320 324 328 332 334 337 338 338 338 339 339 340 340 339 335 339 335 331 322 322 327 329 330 332 334 334 336 339 343 345 346
312 313 314 316 317 317 317 315 315 312 312 314 318 321 323 325 326 329 332 334 336 338 339 338 340 340 338 332 337 334 335 333 326 324 329 330 332 332 335 337 340 343 344
313 312 314 315 316 317 316 315 315 314 314 315 317 318 317 319 322 325 327 328 329 333 336 338 338 338 339 336 334 334 332 332 332 325 322 326 331 335 336 337 340 341 343
312 310 310 311 309 311 313 313 312 311 310 311 312 312 314 316 318 322 325 326 327 329 332 334 336 337 336 336 335 334 331 329 328 327 324 325 325 330 334 339 340 340 342

GFSSE_sfc_thetae_105.txt.gz
Theta_e
354 360 363 365 364 365 365 366 364 364 363 362 361 362 361 360 361 362 362 362 363 362 359 357 357 356 355 355 355 355 356 356 355 355 354 354 353 351 350 350 349 345 349
357 361 362 364 364 365 365 365 364 364 363 363 363 362 361 360 361 362 362 362 362 361 358 356 354 354 354 354 354 354 354 355 355 354 352 353 353 352 350 351 348 347 348
357 362 361 363 364 364 364 364 363 363 363 363 362 361 361 361 362 362 361 362 361 358 356 354 353 354 354 354 354 354 354 355 354 353 352 349 347 350 349 349 351 349 349
359 362 360 363 363 364 363 362 361 362 362 362 362 362 361 361 361 361 361 360 358 356 353 353 353 353 353 355 355 355 355 355 354 351 347 347 346 349 349 349 348 348 349
358 361 361 362 363 363 361 361 360 360 361 361 361 361 361 361 361 360 361 360 357 354 352 353 354 356 356 354 355 355 355 354 353 353 351 350 350 349 350 350 348 348 348
357 359 361 361 361 362 361 360 360 360 360 360 361 361 360 360 360 360 360 360 358 354 352 354 357 356 355 355 355 354 354 352 347 345 346 346 351 354 352 351 351 348 349
356 359 360 361 361 361 361 361 360 360 359 359 360 360 360 360 360 360 359 359 357 355 354 355 356 356 356 354 353 354 352 346 342 342 343 347 347 349 354 353 353 352 349
355 358 359 360 360 360 360 360 359 358 358 358 359 359 359 359 359 358 359 358 357 356 355 355 355 354 354 354 354 353 351 345 339 340 339 344 352 349 352 356 356 353 352
356 357 357 356 358 360 359 359 358 358 357 357 357 357 358 358 357 357 357 357 356 355 354 354 354 354 353 353 353 352 350 345 340 337 336 336 345 349 351 357 357 355 353
355 356 356 355 353 353 356 359 358 357 357 356 356 356 356 357 357 357 355 355 356 355 353 352 352 351 351 351 350 349 348 344 339 337 335 335 339 339 349 356 357 358 356
352 355 357 356 355 353 352 355 358 358 358 356 357 357 354 351 354 356 354 355 356 355 353 352 351 349 348 347 348 347 343 336 335 332 332 340 338 340 348 355 357 358 357
349 352 354 356 355 353 351 355 355 354 355 355 355 356 353 354 355 353 354 354 355 355 354 353 352 350 346 337 336 337 332 334 334 332 332 339 338 340 343 354 358 358 357
350 352 354 357 357 353 350 353 354 354 355 356 357 357 356 354 354 352 351 352 353 353 350 350 349 347 345 343 338 336 334 333 331 331 334 340 339 342 344 349 352 357 358
349 351 354 356 356 356 351 351 352 352 354 353 354 357 355 353 353 352 351 351 353 351 350 351 347 348 348 346 343 340 337 335 332 331 333 338 340 340 344 348 351 355 357
348 350 352 356 357 356 354 352 353 351 353 353 354 356 355 353 352 353 352 352 351 351 350 350 349 348 347 346 344 341 338 337 337 334 332 339 340 343 343 347 351 354 357
350 350 352 354 357 357 355 355 354 354 354 355 354 355 356 354 352 352 352 351 351 351 351 350 348 348 347 347 345 344 342 341 339 337 334 334 339 341 344 348 352 355 358
348 352 354 354 358 357 356 356 356 355 355 355 355 359 358 356 352 352 353 352 352 353 353 352 351 351 348 348 347 346 345 344 342 340 339 336 334 340 343 345 349 353 356
323 339 354 352 353 355 356 355 355 356 356 356 356 357 357 356 355 352 353 353 355 354 352 351 350 348 348 347 347 347 347 346 344 343 341 340 339 338 340 346 347 351 355
329 336 347 353 350 352 353 355 354 357 356 356 357 356 357 357 356 354 354 355 357 354 354 352 351 349 347 347 347 347 347 346 346 344 344 343 344 342 340 340 346 348 351
335 344 348 349 349 349 350 352 353 353 354 355 356 356 358 358 357 355 354 353 354 352 350 349 349 350 349 348 347 345 347 347 346 344 344 343 343 343 343 346 344 344 347
336 342 345 343 344 343 343 345 347 348 352 354 356 355 354 354 354 354 353 353 353 349 349 349 347 345 344 346 341 341 342 346 345 344 344 343 343 343 344 344 346 344 344
331 334 335 337 340 344 342 340 340 338 337 342 343 347 349 347 347 347 345 340 342 337 342 342 342 338 337 341 336 335 328 331 338 343 343 341 342 343 343 344 346 348 349
327 330 332 333 335 337 335 331 331 331 331 331 331 332 337 338 339 341 340 339 339 339 331 338 339 339 331 334 340 334 326 322 329 336 342 341 343 342 344 344 346 349 352
325 326 328 330 332 331 333 333 336 327 323 325 329 331 333 334 334 335 337 337 339 333 336 334 334 337 337 330 332 338 339 336 326 323 333 340 342 342 344 342 342 346 346
321 323 326 327 325 326 327 328 326 328 326 325 327 329 331 331 331 330 333 335 336 334 337 337 337 337 333 331 327 328 335 335 335 328 324 328 335 339 341 342 342 342 346
319 320 320 321 320 321 323 324 325 324 323 322 323 322 322 323 325 327 329 331 333 333 333 333 336 337 335 333 330 331 328 326 325 330 331 328 329 335 338 341 343 343 345

GFSSE_sfc_thetae_108.txt.gz
Theta_e
354 363 365 366 366 367 367 367 364 364 363 362 360 361 362 361 362 362 363 364 363 363 359 359 358 357 357 356 355 356 356 356 355 355 354 353 351 351 351 349 348 345 349
357 364 364 365 366 366 367 366 364 363 363 361 361 362 361 361 362 362 363 364 363 360 358 356 356 355 355 355 354 355 355 355 355 354 353 353 352 350 349 350 347 348 349
358 365 363 364 365 366 366 365 364 363 362 362 362 361 361 361 362 362 363 363 363 359 357 355 354 354 354 354 354 354 354 354 354 353 352 351 347 352 348 349 348 348 349
360 365 362 364 365 365 365 364 364 363 363 362 361 361 361 361 362 362 362 362 361 357 355 353 354 354 354 354 354 354 354 353 351 351 350 349 345 349 349 347 348 348 348
361 364 363 364 364 364 364 363 363 363 363 362 362 362 361 362 362 362 361 361 358 355 353 353 354 354 354 355 355 355 355 354 353 354 353 353 353 350 350 349 348 347 348
360 361 362 363 363 363 363 363 362 362 362 362 362 361 361 362 361 361 361 360 357 354 353 354 354 354 353 353 353 352 351 351 350 350 350 350 350 352 351 351 351 347 347
357 360 361 362 363 363 363 362 362 361 361 361 362 361 361 361 360 360 360 359 357 353 353 354 355 354 353 352 351 350 350 349 346 347 347 348 349 352 352 352 352 351 348
355 359 358 362 361 361 361 361 360 360 360 360 361 360 361 360 360 360 360 359 357 354 353 354 354 354 353 352 351 350 351 348 347 345 346 344 352 351 350 354 354 353 353
355 357 358 356 360 361 360 359 359 358 358 358 358 359 359 359 359 359 359 358 356 354 353 353 353 353 352 351 351 351 350 349 345 341 339 340 347 348 350 354 355 355 354
354 355 355 354 353 354 357 359 359 358 358 357 358 358 358 358 358 358 355 356 355 353 352 351 351 351 351 352 351 350 348 347 343 339 338 339 340 336 340 350 355 358 357
351 354 355 353 352 350 350 356 358 358 357 357 357 357 355 352 355 355 353 356 355 354 352 350 349 349 348 348 348 346 344 339 338 337 334 343 336 338 340 349 355 358 359
349 352 354 357 353 351 348 356 354 353 354 354 353 355 352 351 353 349 354 355 355 354 353 353 351 349 347 336 338 343 334 333 335 335 333 340 335 340 342 346 355 358 358
350 352 354 360 359 354 351 353 352 352 353 355 357 358 356 354 353 351 349 352 353 352 348 350 350 348 344 342 339 338 336 335 333 331 335 340 340 341 343 347 350 354 358
349 351 355 359 360 358 352 352 353 352 354 355 356 360 357 355 355 354 350 350 352 349 349 348 345 347 347 346 344 341 339 337 335 333 336 341 341 341 342 347 351 352 352
351 351 353 358 361 360 356 353 353 353 354 356 356 359 357 355 355 356 355 354 353 353 352 353 351 352 351 351 349 347 345 343 342 339 336 348 343 343 342 345 350 353 354
354 354 355 356 360 362 359 357 355 356 355 356 356 357 359 358 358 355 356 355 355 355 354 354 353 353 352 353 352 352 352 352 350 349 345 342 345 343 343 345 349 352 355
342 357 357 357 360 362 361 359 357 355 354 355 356 360 360 361 360 359 355 355 354 356 359 357 357 356 354 353 352 352 352 353 352 351 350 347 346 343 343 344 346 348 352
328 341 359 356 358 361 361 359 357 357 357 356 358 359 361 361 361 359 355 356 357 358 356 355 355 354 352 352 352 352 353 354 354 354 352 350 346 345 345 344 345 347 350
332 334 343 358 357 361 362 359 359 361 359 358 358 358 360 359 358 357 356 358 360 358 356 355 354 355 354 353 352 352 352 351 352 351 352 353 352 348 346 346 346 346 347
333 339 340 351 357 359 359 359 358 356 357 358 356 358 359 361 358 360 358 358 357 354 353 352 353 353 350 350 347 345 347 347 348 349 350 351 352 352 350 349 348 345 344
337 345 348 352 358 358 354 355 352 351 354 355 359 359 359 358 358 359 358 355 355 350 349 349 346 345 342 343 339 337 338 343 346 346 346 346 347 350 351 351 349 347 345
339 343 349 353 354 354 353 354 352 352 354 356 355 355 353 352 351 350 347 340 341 335 340 341 341 333 331 334 331 331 326 328 331 337 338 344 347 346 347 349 350 350 351
336 338 344 348 353 355 355 348 340 341 340 333 335 334 338 338 338 339 338 337 336 337 328 335 336 336 326 328 336 328 322 319 324 329 339 336 345 343 345 347 348 349 352
333 340 344 347 348 349 349 344 340 330 328 327 329 329 332 337 335 335 337 336 338 332 339 333 331 333 334 326 325 327 337 332 323 320 328 333 338 343 347 343 345 349 350
335 337 336 336 335 333 337 340 332 333 328 329 333 334 337 337 336 334 335 336 338 335 340 339 338 338 331 327 323 322 327 323 329 322 319 323 329 333 336 337 340 342 351
332 331 331 330 329 331 331 334 334 332 329 328 331 329 327 328 329 332 332 334 336 336 336 335 338 338 338 336 329 327 322 319 320 320 319 324 324 329 332 334 337 340 344

GFSSE_sfc_thetae_111.txt.gz
Theta_e
354 363 367 368 368 368 368 365 364 364 363 361 361 362 362 362 362 363 364 364 363 362 361 361 359 358 356 354 355 356 357 356 355 354 353 352 351 351 349 347 349 345 349
359 363 365 366 368 368 368 365 364 363 362 361 361 362 362 362 362 364 364 364 363 360 359 358 356 356 356 354 355 356 355 355 354 353 353 353 351 349 349 349 352 348 349
359 363 363 366 367 368 367 365 364 363 362 361 362 362 362 362 362 363 364 364 362 359 357 355 355 354 354 354 354 354 354 354 353 353 354 353 348 352 347 349 349 349 348
361 364 363 365 366 367 366 365 363 363 362 362 362 362 361 362 362 362 363 363 360 357 355 353 354 354 354 353 353 353 352 351 351 353 351 347 345 352 349 347 348 347 348
361 363 365 365 366 366 366 364 363 362 362 362 362 362 362 362 362 362 363 362 358 355 353 353 354 353 354 354 353 353 353 353 355 355 353 351 351 350 351 349 348 347 347
359 360 363 364 364 364 365 364 363 363 362 362 362 362 362 362 362 362 362 360 356 353 353 353 354 353 353 353 353 352 351 351 353 352 348 350 347 352 352 350 349 347 346
355 360 363 363 363 364 365 364 363 362 362 362 362 362 362 361 361 361 360 359 356 353 352 354 354 353 352 350 350 350 350 351 348 347 347 347 354 356 353 352 352 351 348
353 359 359 362 362 362 363 362 362 361 361 361 361 361 361 361 361 360 360 358 356 353 353 354 355 353 352 351 351 351 351 350 347 346 344 346 352 354 351 353 354 353 353
353 356 356 356 360 362 361 361 361 361 361 360 360 360 360 360 360 360 359 358 356 354 353 353 354 353 352 352 351 351 351 350 346 342 340 340 351 351 351 352 354 355 355
353 353 354 353 354 355 358 360 360 360 360 359 359 360 360 359 359 358 357 357 355 353 352 351 352 352 352 352 352 351 350 350 344 341 339 341 347 340 340 347 353 357 358
351 353 353 352 352 350 350 356 358 358 358 358 358 359 356 351 354 356 353 356 356 354 352 351 350 350 349 349 351 352 348 339 337 337 337 344 345 339 340 344 353 355 358
349 350 351 354 352 350 349 356 352 351 351 351 351 355 351 351 353 349 354 357 355 355 354 353 353 351 348 337 337 346 339 334 332 334 335 346 342 341 342 347 350 357 357
350 351 350 355 356 351 348 355 350 350 350 352 354 356 356 351 352 347 350 352 354 354 349 351 350 348 343 340 339 340 339 336 334 333 338 347 345 345 346 349 351 351 356
349 351 352 357 357 359 350 352 350 349 351 352 354 358 358 353 354 352 344 346 352 347 350 346 344 348 346 345 344 341 340 338 337 336 339 349 345 346 347 348 350 352 352
347 349 351 358 359 359 359 353 353 351 352 354 355 357 358 355 357 355 354 352 351 349 348 350 349 349 348 350 348 346 345 344 343 341 341 351 346 346 347 347 349 351 354
351 351 352 354 363 362 360 361 355 359 356 355 354 356 358 357 358 354 355 353 353 353 351 351 351 352 351 352 351 352 353 352 352 354 349 349 347 345 347 347 348 350 352
352 351 358 357 360 363 365 360 357 355 354 354 354 359 359 361 362 360 354 354 353 357 360 358 358 356 354 353 353 351 351 355 351 355 353 351 348 346 345 345 347 348 350
332 346 358 356 361 364 364 361 361 361 354 354 353 356 358 361 361 361 355 354 363 367 362 360 358 355 355 351 352 352 351 354 354 358 356 357 354 351 349 345 346 348 349
338 336 348 358 357 362 360 364 354 361 355 359 364 360 358 360 359 359 358 363 364 366 365 359 355 357 353 352 350 349 351 348 349 348 355 358 357 356 354 352 345 345 347
340 345 344 350 355 363 360 362 359 361 363 359 359 356 361 362 359 360 362 360 362 356 357 352 353 352 350 347 341 340 345 345 346 346 347 348 351 356 357 358 357 349 345
335 345 346 351 359 358 355 352 355 352 359 365 360 359 357 358 357 359 359 359 358 354 353 351 347 347 338 341 336 335 338 342 346 345 346 345 345 347 350 353 357 354 352
338 342 346 354 360 357 349 355 353 355 353 358 362 360 359 356 358 359 356 350 353 341 349 345 348 335 332 336 330 329 324 329 334 336 339 340 343 343 345 349 352 355 356
335 340 341 344 349 355 355 357 357 356 353 355 348 345 347 345 343 343 340 340 342 341 329 342 341 343 329 331 337 325 319 317 325 331 335 335 338 337 339 341 346 348 355
333 338 340 346 351 355 358 353 351 344 340 336 334 333 336 338 336 334 337 337 344 337 343 339 337 336 337 327 328 328 333 328 320 318 328 331 335 335 339 340 344 348 351
333 335 344 348 350 347 351 353 344 346 335 331 329 340 338 341 338 334 335 337 343 338 342 347 345 343 334 329 326 325 328 326 328 323 320 323 329 331 334 336 339 342 346
336 339 342 341 339 339 339 339 342 340 337 333 334 331 330 330 336 338 335 339 340 340 339 338 343 344 341 338 334 331 326 323 321 321 320 323 323 327 330 333 334 338 341

GFSSE_sfc_thetae_114.txt.gz
Theta_e
355 361 367 368 368 366 365 365 364 364 361 361 361 362 362 363 363 364 363 363 363 364 363 360 359 358 355 355 357 358 358 357 356 354 353 352 352 351 350 351 352 345 350
359 360 366 367 368 366 365 365 364 363 360 361 362 362 362 363 363 364 363 363 363 363 360 358 357 358 355 356 356 356 356 355 354 353 353 352 352 351 351 351 351 348 349
359 361 362 367 368 367 365 364 364 362 361 361 362 362 362 362 363 363 363 363 362 360 358 356 355 355 355 354 355 355 354 353 352 352 353 349 346 351 350 350 348 349 348
361 360 361 366 367 367 365 364 363 362 361 361 362 362 362 363 363 363 363 362 361 358 355 355 355 355 354 353 353 353 351 351 353 355 348 352 345 352 350 349 348 347 347
360 362 364 366 366 366 365 364 362 362 361 361 362 362 362 362 363 363 363 362 360 356 354 354 355 355 354 354 354 354 353 355 357 354 350 348 343 351 352 350 347 347 347
358 361 364 365 365 365 365 363 362 362 362 361 362 362 362 362 362 362 362 361 358 356 354 355 355 355 355 355 354 353 351 354 355 346 347 344 347 354 355 351 351 349 347
354 363 362 364 365 365 365 364 362 362 361 361 362 362 362 362 361 361 361 360 358 356 356 356 355 355 354 352 351 351 352 352 348 344 345 350 350 355 356 354 353 352 350
354 361 359 364 364 364 364 363 362 361 361 361 361 361 361 361 360 361 360 359 357 356 356 356 356 355 354 353 352 353 353 350 345 342 343 347 352 357 357 356 355 355 354
357 357 356 359 363 363 363 362 361 361 361 360 360 360 360 360 360 360 359 359 358 356 355 356 356 355 354 353 353 353 353 351 345 340 340 346 355 357 357 356 357 356 357
352 353 352 356 358 360 361 362 361 361 361 360 360 360 360 359 359 359 358 358 357 356 355 355 355 355 354 354 353 353 353 352 344 339 338 341 352 355 356 356 356 356 357
349 351 350 351 354 353 355 359 360 361 360 360 359 359 357 353 355 355 354 356 357 356 355 354 353 353 352 352 352 353 353 343 337 336 338 348 348 349 348 348 349 352 356
346 349 349 351 350 349 349 357 357 357 357 356 355 356 353 350 352 350 352 357 357 356 355 354 353 353 351 339 338 348 344 337 332 330 334 349 348 350 349 348 349 350 355
348 350 349 352 352 348 348 352 351 351 350 351 351 354 352 349 353 349 352 350 353 355 350 351 350 348 342 340 337 337 336 337 335 332 337 349 348 351 351 350 350 350 350
346 348 348 352 352 352 353 348 349 348 349 349 351 355 349 354 357 348 349 349 350 350 347 347 346 347 346 344 344 342 340 338 336 336 340 348 349 350 352 351 351 351 351
346 342 338 349 351 351 351 351 348 349 349 351 352 356 354 353 355 354 354 349 350 348 349 348 347 350 349 347 345 344 342 342 343 344 342 352 348 349 351 352 351 351 351
339 339 337 341 349 356 356 353 351 353 351 353 353 355 358 357 358 355 359 359 357 357 353 349 349 352 351 350 349 350 350 350 350 350 350 349 350 346 349 350 351 352 352
340 342 338 339 342 349 355 358 355 357 351 354 354 357 356 360 362 361 358 355 356 357 358 358 358 357 354 352 350 349 350 351 351 350 350 350 350 350 347 348 349 350 351
343 337 339 339 337 343 353 356 355 352 352 346 345 349 359 360 362 362 359 359 359 358 356 354 354 352 354 348 349 350 352 351 351 350 350 349 349 351 352 348 348 350 350
346 345 341 332 331 336 344 342 351 354 349 342 342 338 340 356 354 350 350 353 359 357 357 353 350 353 350 348 347 344 346 346 343 342 343 346 346 351 352 353 350 348 349
345 348 342 342 346 339 333 337 349 354 354 339 331 341 348 348 340 336 345 345 349 348 346 348 352 351 348 347 340 338 338 339 340 340 340 339 336 338 340 344 351 350 347
345 349 355 352 354 347 350 348 350 349 352 347 333 334 343 350 349 343 332 338 351 353 351 346 346 340 337 338 332 328 329 333 334 333 337 334 337 341 336 338 344 344 344
342 350 354 356 357 359 354 356 354 350 354 353 355 356 354 350 355 356 358 354 354 344 344 341 342 338 335 335 330 325 316 319 322 324 328 331 330 333 331 334 335 338 346
338 346 349 356 358 360 360 353 355 358 355 355 354 354 356 356 355 347 347 343 340 338 335 340 342 338 331 332 331 325 316 312 318 323 325 324 323 327 329 332 334 339 338
339 339 343 347 356 356 359 357 353 346 343 345 341 347 344 340 339 339 337 337 338 341 341 338 336 339 335 326 328 327 325 322 317 313 321 325 328 327 327 328 328 332 333
338 340 344 352 355 357 358 358 348 349 344 338 340 341 344 342 339 338 337 339 339 340 340 339 337 337 337 333 328 325 323 323 322 318 314 316 323 325 326 326 331 334 335
334 337 344 347 344 342 342 349 342 338 340 336 339 336 337 340 341 340 338 339 339 339 337 337 338 337 336 334 332 329 326 322 318 317 314 315 315 318 321 325 325 325 327

GFSSE_sfc_thetae_117.txt.gz
Theta_e
355 364 367 366 365 365 365 364 363 361 361 362 362 362 362 362 362 361 362 363 363 363 361 359 358 355 356 356 356 357 358 358 356 353 352 352 351 351 353 352 351 346 349
357 363 366 365 365 365 364 364 363 361 361 362 362 361 361 362 362 362 362 362 363 363 359 358 358 355 356 356 355 355 355 356 356 355 352 352 351 352 353 351 350 347 349
356 362 365 365 364 364 364 363 362 361 361 361 361 361 361 362 362 361 361 361 362 361 356 356 355 355 355 355 354 354 354 356 355 355 353 346 345 351 352 350 350 349 348
357 359 362 365 364 364 363 362 361 360 361 361 361 361 361 362 362 362 361 361 361 358 355 354 355 355 355 354 353 353 353 355 356 354 350 351 345 350 351 350 349 349 348
354 358 362 366 364 363 363 362 360 360 361 361 361 361 361 362 362 361 361 361 360 356 355 355 355 357 357 356 355 355 356 356 353 352 347 347 342 350 351 351 349 348 349
354 358 364 365 364 363 363 362 360 360 361 360 361 361 361 361 361 361 361 360 359 358 357 357 358 358 357 357 356 355 354 354 353 344 342 344 341 355 354 352 353 351 349
355 359 362 364 364 364 363 362 361 360 360 360 361 361 361 361 360 361 361 359 358 358 357 357 357 357 356 357 355 353 352 352 346 342 341 344 345 353 356 356 356 354 351
357 358 360 364 364 363 363 361 360 360 359 360 360 360 360 360 360 360 360 359 357 357 357 358 357 356 354 354 354 353 352 351 345 339 338 345 349 354 357 356 355 355 354
357 355 357 360 362 363 362 361 360 359 358 359 359 359 360 359 359 359 358 358 356 356 356 357 356 356 354 353 353 352 352 351 342 339 338 345 354 357 358 357 356 356 356
354 354 354 356 358 360 360 361 360 359 359 358 358 359 358 358 358 358 356 357 357 355 355 355 356 355 354 353 352 352 353 351 342 339 337 339 354 358 359 357 357 357 357
350 350 352 354 355 356 357 360 360 361 360 358 358 358 356 353 354 356 355 357 357 356 355 354 354 354 353 353 353 353 352 342 339 337 337 346 354 357 358 356 356 356 357
342 348 350 351 352 352 357 356 355 357 356 355 354 354 350 346 349 352 353 355 356 355 354 353 353 352 351 340 338 349 343 340 336 331 327 349 353 355 355 352 351 350 351
336 346 346 348 348 344 352 352 352 352 352 351 351 350 346 346 347 348 345 348 348 353 348 349 348 346 342 338 333 329 336 334 331 331 332 351 350 353 353 351 349 350 350
345 345 343 341 336 341 350 348 346 346 345 344 345 348 344 343 342 342 345 344 345 345 343 342 343 342 340 338 335 332 331 331 332 333 332 352 349 352 354 353 351 350 350
344 345 342 340 340 342 346 343 343 343 343 343 344 349 345 342 343 344 344 343 344 344 344 341 341 341 340 340 338 336 335 334 334 336 338 353 348 350 353 354 354 353 352
344 345 337 338 340 338 340 343 344 344 344 345 346 350 349 346 347 344 343 345 345 345 344 342 341 339 341 342 343 345 338 339 342 344 346 347 350 348 350 352 354 353 353
340 341 336 337 339 337 337 335 351 349 345 346 347 350 351 349 350 348 349 347 345 348 346 346 349 349 347 343 338 340 335 337 340 343 339 347 347 350 351 350 352 353 353
336 334 337 338 330 331 330 334 348 348 345 342 341 347 346 347 344 349 345 341 342 349 347 344 343 343 342 338 331 332 330 333 336 343 346 350 346 344 349 353 352 352 353
334 336 336 333 329 333 334 337 343 345 338 339 340 339 343 344 342 339 340 337 336 336 332 333 330 338 341 340 342 340 342 339 342 343 337 339 342 343 343 348 351 350 351
339 338 331 336 334 334 331 332 335 334 340 335 336 338 340 344 339 338 338 338 332 336 330 332 330 332 342 338 333 330 328 329 330 331 333 334 337 336 335 334 336 341 350
339 336 328 328 333 331 331 329 329 327 331 337 332 340 340 337 340 336 336 333 330 336 330 336 335 336 330 328 322 321 321 322 321 321 323 326 329 330 331 329 329 333 338
339 335 334 333 337 332 332 332 331 330 333 344 333 336 335 334 339 329 333 332 333 342 335 334 332 329 327 327 322 315 310 313 315 318 320 323 319 321 321 324 326 328 329
339 344 343 343 338 336 340 343 342 342 342 342 340 335 336 338 343 340 336 338 332 329 327 330 329 328 322 325 322 316 310 306 309 314 316 318 319 318 318 320 323 325 329
339 346 348 349 346 347 349 342 342 339 336 340 339 340 335 339 341 335 330 329 330 329 327 329 330 329 326 320 321 322 318 315 312 313 314 315 320 319 320 322 323 323 324
336 337 341 344 343 342 343 341 338 336 330 329 332 328 326 326 328 330 329 328 328 327 327 327 326 325 325 324 322 320 318 317 315 312 312 313 316 314 318 317 318 316 322
330 334 337 333 330 330 334 331 329 329 328 329 326 324 326 328 328 327 329 327 328 327 325 326 324 322 322 323 324 324 322 321 322 320 318 318 317 319 317 318 317 319 319

GFSSE_sfc_thetae_120.txt.gz
Theta_e
356 362 365 366 366 365 364 361 360 361 361 361 361 362 361 360 360 361 362 362 363 362 359 358 355 356 355 355 355 355 357 356 354 352 352 354 353 354 353 351 349 346 350
358 363 365 365 366 365 364 362 361 361 361 361 361 361 361 360 360 361 363 362 362 360 357 357 354 356 355 355 354 354 354 356 356 353 351 351 353 353 355 350 348 347 350
359 362 362 364 365 365 364 362 361 361 361 360 360 361 361 360 360 361 362 362 362 358 357 356 354 356 355 355 354 354 355 356 356 354 351 344 345 353 351 349 349 348 348
359 361 359 364 364 364 363 361 360 361 361 360 360 361 361 360 360 361 361 361 361 356 355 354 354 354 354 353 353 353 354 354 354 352 349 346 343 351 350 349 349 348 347
358 360 359 364 363 363 363 361 360 360 360 360 360 361 361 360 360 360 360 360 359 355 354 354 354 356 354 353 354 354 355 355 352 351 348 346 340 349 350 349 348 349 350
355 359 363 363 362 363 363 361 360 360 360 360 360 360 361 361 360 360 360 359 359 357 356 356 357 358 356 356 355 355 354 353 351 341 341 343 341 352 353 350 350 349 350
352 357 362 363 362 363 363 361 360 360 360 360 360 360 361 360 360 361 360 359 359 358 357 356 358 357 357 356 355 354 351 352 344 339 338 342 340 352 355 356 355 353 350
354 357 360 364 363 362 361 360 360 359 359 359 359 359 360 360 360 360 360 359 358 357 357 357 357 356 355 354 354 353 352 351 345 337 337 341 345 353 357 357 356 354 352
356 356 357 360 362 363 361 359 359 359 358 358 358 358 359 359 359 359 358 357 356 356 356 357 355 354 353 352 352 352 352 350 342 338 337 338 351 354 358 356 356 355 354
354 354 356 357 359 358 358 360 360 359 358 357 358 358 358 358 358 358 355 356 356 355 355 356 355 354 353 352 351 352 352 351 342 339 336 334 352 354 359 357 356 356 356
352 351 355 356 356 357 357 359 359 359 359 358 358 358 355 352 353 354 355 356 356 355 355 355 355 354 353 353 352 352 352 342 340 338 335 342 349 356 359 358 357 356 356
347 349 350 354 354 355 357 357 354 356 355 354 354 353 349 347 348 353 354 355 356 356 354 354 353 353 352 342 341 347 342 340 339 336 332 342 348 355 359 359 357 356 356
341 348 348 350 350 350 352 354 353 352 353 352 352 351 347 347 346 348 346 347 346 353 346 349 346 345 341 339 335 329 331 336 335 332 333 343 346 354 358 358 356 353 353
340 338 339 340 342 345 351 351 350 351 350 349 350 350 346 342 340 343 342 342 344 344 343 341 341 340 340 339 335 331 330 331 330 330 331 344 348 354 357 357 354 352 351
337 337 340 343 343 343 343 343 344 347 348 349 347 348 346 341 340 341 341 342 343 342 342 340 338 339 338 338 336 334 336 336 339 340 338 348 351 351 354 356 355 354 354
339 337 341 342 344 346 344 344 345 343 343 344 344 346 347 341 341 342 339 340 342 343 342 343 341 339 339 340 341 340 337 336 341 336 335 339 350 350 350 353 356 357 356
341 340 339 341 342 343 341 343 344 345 344 343 343 345 347 344 344 345 339 335 340 337 335 333 333 339 336 341 336 339 336 337 341 337 338 339 341 347 350 351 353 355 355
343 338 338 339 338 338 337 340 340 342 342 341 342 344 345 342 341 340 336 335 338 336 335 335 333 333 332 334 332 336 337 334 333 334 340 341 343 347 347 350 352 355 357
341 337 337 335 337 336 333 337 345 337 338 340 340 342 344 343 341 340 338 336 336 335 334 333 332 331 328 330 332 333 338 342 339 341 342 338 336 339 338 341 346 348 350
338 337 333 330 330 330 331 334 338 336 334 337 338 341 342 342 342 342 341 336 336 334 333 331 330 329 331 330 336 335 331 328 328 327 326 325 325 328 328 331 328 328 343
334 332 331 327 330 331 329 329 329 330 332 333 333 337 338 342 338 337 338 337 333 333 332 332 329 327 328 334 328 323 320 319 317 319 317 318 321 324 324 324 320 323 328
332 330 331 330 331 332 329 328 328 327 328 335 333 339 338 337 339 334 332 332 331 330 331 331 333 332 330 330 319 314 309 312 314 317 317 319 317 318 319 319 319 321 322
332 329 329 332 332 332 330 332 333 329 334 336 330 330 331 334 338 331 334 332 332 332 332 331 333 326 320 323 321 314 309 306 308 315 316 316 316 316 317 318 320 321 321
333 331 328 330 331 332 333 334 333 329 330 333 335 333 333 334 337 340 337 336 329 326 325 326 328 328 325 321 322 322 318 316 312 313 314 314 316 316 315 317 318 320 321
336 335 333 335 333 337 336 337 334 329 329 331 331 329 328 329 336 333 329 328 326 326 325 323 323 323 323 322 321 321 319 318 315 312 315 316 320 317 315 315 315 315 318
334 336 338 333 328 334 335 334 334 329 327 326 323 322 323 323 323 324 326 324 324 322 323 323 320 318 317 317 317 317 317 316 316 316 314 314 314 317 319 318 318 318 318

GFSSE_sfc_thetae_123.txt.gz
Theta_e
355 360 364 365 364 364 362 360 361 361 361 361 361 360 360 359 359 360 362 362 362 361 359 355 355 354 354 354 354 354 355 355 353 354 354 354 354 353 351 349 349 347 350
356 360 364 364 364 363 362 360 361 360 360 361 360 359 359 360 361 361 362 362 361 359 358 355 354 354 353 353 354 353 353 354 354 352 353 353 354 353 352 349 348 347 349
356 359 362 364 365 364 362 361 360 360 359 359 359 358 359 360 361 361 361 361 360 357 357 354 355 355 354 353 353 353 354 355 355 353 351 344 347 352 352 348 348 349 349
357 359 359 364 364 363 361 360 360 360 359 359 359 359 359 359 360 361 361 361 358 356 356 354 355 355 354 354 353 354 355 354 355 354 346 343 345 352 350 349 349 348 348
356 357 359 364 364 363 360 360 360 359 359 359 360 359 359 359 359 360 360 360 357 355 355 353 354 355 354 354 354 354 355 356 353 352 348 346 340 348 350 350 349 349 347
356 357 361 363 363 362 360 359 360 360 359 359 360 359 358 358 359 359 359 359 358 354 353 354 356 356 355 354 355 355 353 352 350 340 340 342 345 348 352 350 349 351 351
354 356 360 363 362 362 360 359 360 359 359 359 360 359 358 359 359 359 359 359 358 356 355 354 356 356 355 355 355 354 352 349 343 338 336 342 343 348 355 353 352 351 351
354 358 359 362 362 361 360 360 359 359 359 358 358 359 359 359 359 359 359 358 358 357 356 356 356 355 354 354 354 353 352 350 344 337 334 337 344 348 353 356 356 355 352
356 358 359 358 360 361 360 359 359 358 358 358 357 358 358 359 359 359 358 357 356 356 356 356 355 354 353 352 352 352 352 351 341 338 336 333 344 351 353 357 358 356 354
353 356 357 357 357 356 356 359 359 358 358 357 357 357 357 358 358 358 355 356 355 355 355 355 355 354 353 352 351 351 351 350 340 338 337 334 344 352 355 358 357 357 356
350 353 355 355 354 355 355 356 359 358 358 357 357 357 354 350 352 353 354 354 355 354 353 354 354 354 353 353 353 352 351 341 339 338 335 340 345 347 356 358 359 357 356
347 350 353 354 354 353 356 355 353 354 353 352 352 352 349 347 348 352 353 355 355 355 354 353 353 353 352 344 340 343 339 339 338 336 335 343 345 346 353 357 359 358 356
347 350 352 353 352 352 353 352 354 353 351 351 352 351 348 347 347 349 346 347 346 350 346 347 345 344 342 339 337 333 330 329 332 334 335 342 345 347 352 354 358 358 356
345 347 349 348 346 349 350 350 352 350 351 349 351 350 346 344 342 343 343 342 342 342 341 341 340 340 339 339 337 335 332 331 331 332 331 343 346 349 354 357 359 358 356
340 342 345 346 346 349 348 349 349 349 350 350 349 350 348 344 341 341 341 339 340 341 340 339 338 337 337 337 337 336 336 336 336 338 338 346 349 352 355 357 359 358 356
338 340 343 343 346 347 345 346 347 349 349 348 348 349 349 344 340 339 338 340 338 339 337 335 336 337 339 338 336 336 336 337 336 339 338 336 343 350 352 355 356 356 357
337 340 341 341 343 343 342 343 343 345 345 344 344 346 346 340 339 339 336 338 335 335 334 334 334 334 334 336 334 333 331 334 337 338 335 335 339 345 349 353 355 356 356
337 338 339 343 341 337 336 338 339 340 342 341 343 345 344 343 342 336 334 337 336 335 335 335 334 331 332 333 332 330 330 331 333 337 339 337 341 343 342 346 350 352 354
338 337 336 337 335 334 331 335 337 336 338 340 342 343 342 342 340 336 335 335 337 335 334 335 334 333 329 331 331 329 329 329 331 336 339 337 331 330 329 337 341 345 344
338 339 336 334 333 331 330 336 338 333 333 337 338 342 342 341 341 338 336 336 335 333 333 333 331 331 331 330 332 331 329 328 328 329 326 324 318 320 323 322 324 322 334
339 337 334 330 330 330 327 330 337 332 331 332 334 337 338 342 342 340 337 336 334 332 333 332 331 328 328 329 327 326 328 330 326 320 318 316 317 319 319 319 320 318 321
335 335 332 330 329 330 332 328 330 327 328 331 332 334 336 340 339 337 337 338 334 332 331 331 329 328 326 331 324 314 309 310 313 315 316 317 317 318 319 320 318 320 320
333 333 332 331 329 330 330 328 327 327 327 330 328 330 333 334 338 331 332 330 328 329 330 328 328 329 323 323 324 315 308 307 308 317 317 317 316 316 317 318 319 320 319
331 333 332 330 328 330 329 329 327 323 324 328 328 328 330 331 333 331 330 330 329 328 326 326 328 327 322 319 321 321 317 314 313 312 314 314 317 316 316 317 318 319 320
331 329 327 328 328 329 330 330 331 328 330 331 332 330 328 330 333 337 335 331 325 325 324 324 321 320 320 320 319 318 317 316 315 312 312 310 315 318 318 319 319 318 319
330 327 326 327 326 329 330 332 332 330 327 327 323 323 322 322 323 324 324 324 323 322 321 319 317 316 315 315 314 314 314 312 311 311 309 309 310 312 313 316 315 316 317